[[{"header":{"parameterUnit":"m.s-1","parameterCategory":1,"la1":31.0,"la2":29.5877,"lo1":-88.7671,"lo2":-86.6584,"dy":0.0162,"dx":0.0185,"nx":115,"ny":88,"refTime":"2023-08-21T06:00:00:Z","depth":0,"parameterNumber":2,"parameterNumberName":"U-component_of_WINDS"},"data":[0.0,0.0,0.0,0.0,0.0,0.0,0.0,0.0,0.0,0.0,0.0,0.0,0.0,0.0,0.0,0.0,0.0,0.0,0.0,0.0,0.0,0.0,0.0,0.0,0.0,0.0,0.0,0.0,0.0,0.0,0.0,0.0,0.0,0.0,0.0,0.0,0.0,0.0,0.0,0.0,0.0,0.0,0.0,0.0,0.0,0.0,0.0,0.0,0.0,0.0,0.0,0.0,0.0,0.0,0.0,0.0,0.0,0.0,0.0,0.0,0.0,0.0,0.0,0.0,0.0,0.0,0.0,0.0,0.0,0.0,0.0,0.0,0.0,0.0,0.0,0.0,0.0,0.0,0.0,0.0,0.0,0.0,0.0,0.0,0.0,0.0,0.0,0.0,0.0,0.0,0.0,0.0,0.0,0.0,0.0,0.0,0.0,0.0,0.0,0.0,0.0,0.0,0.0,0.0,0.0,0.0,0.0,0.0,0.0,0.0,0.0,0.0,0.0,0.0,0.0,0.0,0.0,0.0,0.0,0.0,0.0,0.0,0.0,0.0,0.0,0.0,0.0,0.0,0.0,0.0,0.0,0.0,0.0,0.0,0.0,0.0,0.0,0.0,0.0,0.0,0.0,0.0,0.0,0.0,0.0,0.0,0.0,0.0,0.0,0.0,0.0,0.0,0.0,0.0,0.0,0.0,0.0,0.0,0.0,0.0,0.0,0.0,0.0,0.0,0.0,0.0,0.0,0.0,0.0,0.0,0.0,0.0,0.0,0.0,0.0,0.0,0.0,0.0,0.0,0.0,0.0,0.0,0.0,0.0,0.0,0.0,0.0,0.0,0.0,0.0,0.0,0.0,0.0,0.0,0.0,0.0,0.0,0.0,0.0,0.0,0.0,0.0,0.0,0.0,0.0,0.0,0.0,0.0,0.0,0.0,0.0,0.0,0.0,0.0,0.0,0.0,0.0,0.0,0.0,0.0,0.0,0.0,0.0,0.0,0.0,0.0,0.0,0.0,0.0,0.0,0.0,0.0,0.0,0.0,0.0,0.0,0.0,0.0,0.0,0.0,0.0,0.0,0.0,0.0,0.0,0.0,0.0,0.0,0.0,0.0,0.0,0.0,0.0,0.0,0.0,0.0,0.0,0.0,0.0,0.0,0.0,0.0,0.0,0.0,0.0,0.0,0.0,0.0,0.0,0.0,0.0,0.0,0.0,0.0,0.0,0.0,0.0,0.0,0.0,0.0,0.0,0.0,0.0,0.0,0.0,0.0,0.0,0.0,0.0,0.0,0.0,0.0,0.0,0.0,0.0,0.0,0.0,0.0,0.0,0.0,0.0,0.0,0.0,0.0,0.0,0.0,0.0,0.0,0.0,0.0,0.0,0.0,0.0,0.0,0.0,0.0,0.0,0.0,0.0,0.0,0.0,0.0,0.0,0.0,0.0,0.0,0.0,0.0,0.0,0.0,0.0,0.0,0.0,0.0,0.0,0.0,0.0,0.0,0.0,0.0,0.0,0.0,0.0,0.0,0.0,0.0,0.0,0.0,0.0,0.0,0.0,0.0,0.0,0.0,0.0,0.0,0.0,0.0,0.0,0.0,0.0,0.0,0.0,0.0,0.0,0.0,0.0,0.0,0.0,0.0,0.0,0.0,0.0,0.0,0.0,0.0,0.0,0.0,0.0,0.0,0.0,0.0,0.0,0.0,0.0,0.0,0.0,0.0,0.0,0.0,0.0,0.0,0.0,0.0,0.0,0.0,0.0,0.0,0.0,0.0,0.0,0.0,0.0,0.0,0.0,0.0,0.0,0.0,0.0,0.0,0.0,0.0,0.0,0.0,0.0,0.0,0.0,0.0,0.0,0.0,0.0,0.0,0.0,0.0,0.0,0.0,0.0,0.0,0.0,0.0,0.0,0.0,0.0,0.0,0.0,0.0,0.0,0.0,0.0,0.0,0.0,0.0,0.0,0.0,0.0,0.0,0.0,0.0,0.0,0.0,0.0,0.0,0.0,0.0,0.0,0.0,0.0,0.0,0.0,0.0,0.0,0.0,0.0,0.0,0.0,0.0,0.0,0.0,0.0,0.0,0.0,0.0,0.0,0.0,0.0,0.0,0.0,0.0,0.0,0.0,0.0,0.0,0.0,0.0,0.0,0.0,0.0,0.0,0.0,0.0,0.0,0.0,0.0,0.0,0.0,0.0,0.0,0.0,0.0,0.0,0.0,0.0,0.0,0.0,0.0,0.0,0.0,0.0,0.0,0.0,0.0,0.0,0.0,0.0,0.0,0.0,0.0,0.0,0.0,0.0,0.0,0.0,0.0,0.0,0.0,0.0,0.0,0.0,0.0,0.0,0.0,0.0,0.0,0.0,0.0,0.0,0.0,0.0,0.0,0.0,0.0,0.0,0.0,0.0,0.0,0.0,0.0,0.0,0.0,0.0,0.0,0.0,0.0,0.0,0.0,0.0,0.0,0.0,0.0,0.0,0.0,0.0,0.0,0.0,0.0,0.0,0.0,0.0,0.0,0.0,0.0,0.0,0.0,0.0,0.0,0.0,0.0,0.0,0.0,0.0,0.0,0.0,0.0,0.0,0.0,0.0,0.0,0.0,0.0,0.0,0.0,0.0,0.0,0.0,0.0,0.0,0.0,0.0,0.0,0.0,0.0,0.0,0.0,0.0,0.0,0.0,0.0,0.0,0.0,0.0,0.0,0.0,0.0,0.0,0.0,0.0,0.0,0.0,0.0,0.0,0.0,0.0,0.0,0.0,0.0,0.0,0.0,0.0,0.0,0.0,0.0,0.0,0.0,0.0,0.0,0.0,0.0,0.0,0.0,0.0,0.0,0.0,0.0,0.0,0.0,0.0,0.0,0.0,0.0,0.0,0.0,0.0,0.0,0.0,0.0,0.0,0.0,0.0,0.0,0.0,0.0,0.0,0.0,0.0,0.0,0.0,0.0,0.0,0.0,0.0,0.0,0.0,0.0,0.0,0.0,0.0,0.0,0.0,0.0,0.0,0.0,0.0,0.0,0.0,0.0,0.0,0.0,0.0,0.0,0.0,0.0,0.0,0.0,0.0,0.0,0.0,0.0,0.0,0.0,0.0,0.0,0.0,0.0,0.0,0.0,0.0,0.0,0.0,0.0,0.0,0.0,0.0,0.0,0.0,0.0,0.0,0.0,0.0,0.0,0.0,0.0,0.0,0.0,0.0,0.0,0.0,0.0,0.0,0.0,0.0,0.0,0.0,0.0,0.0,0.0,0.0,0.0,0.0,0.0,0.0,0.0,0.0,0.0,0.0,0.0,0.0,0.0,0.0,0.0,0.0,0.0,0.0,0.0,0.0,0.0,0.0,0.0,0.0,0.0,0.0,0.0,0.0,0.0,0.0,0.0,0.0,0.0,0.0,0.0,0.0,0.0,0.0,0.0,0.0,0.0,0.0,0.0,0.0,0.0,0.0,0.0,0.0,0.0,0.0,0.0,0.0,0.0,0.0,0.0,0.0,0.0,0.0,0.0,0.0,0.0,0.0,0.0,0.0,0.0,0.0,0.0,0.0,0.0,0.0,0.0,0.0,0.0,0.0,0.0,0.0,0.0,0.0,0.0,0.0,0.0,0.0,0.0,0.0,0.0,0.0,0.0,0.0,0.0,0.0,0.0,0.0,0.0,0.0,0.0,0.0,0.0,0.0,0.0,0.0,0.0,0.0,0.0,0.0,0.0,0.0,0.0,0.0,0.0,0.0,0.0,0.0,0.0,0.0,0.0,0.0,0.0,0.0,0.0,0.0,0.0,0.0,0.0,0.0,0.0,0.0,0.0,0.0,0.0,0.0,0.0,0.0,0.0,0.0,0.0,0.0,0.0,0.0,0.0,0.0,0.0,0.0,0.0,0.0,0.0,0.0,0.0,0.0,0.0,0.0,0.0,0.0,0.0,0.0,0.0,0.0,0.0,0.0,0.0,0.0,0.0,0.0,0.0,0.0,0.0,0.0,0.0,0.0,0.0,0.0,0.0,0.0,0.0,0.0,0.0,0.0,0.0,0.0,0.0,0.0,0.0,0.0,0.0,0.0,0.0,0.0,0.0,0.0,0.0,0.0,0.0,0.0,0.0,0.0,0.0,0.0,0.0,0.0,0.0,0.0,0.0,0.0,0.0,0.0,0.0,0.0,0.0,0.0,0.0,0.0,0.0,0.0,0.0,0.0,0.0,0.0,0.0,0.0,0.0,0.0,0.0,0.0,0.0,0.0,0.0,0.0,0.0,0.0,0.0,0.0,0.0,0.0,-1.8768,0.0,0.0,0.0,0.0,0.0,0.0,0.0,0.0,0.0,0.0,0.0,0.0,0.0,0.0,0.0,0.0,0.0,0.0,0.0,0.0,0.0,0.0,0.0,0.0,0.0,0.0,0.0,0.0,0.0,0.0,0.0,0.0,0.0,0.0,0.0,0.0,0.0,0.0,0.0,0.0,0.0,0.0,0.0,0.0,0.0,0.0,0.0,0.0,0.0,0.0,0.0,0.0,0.0,0.0,0.0,0.0,0.0,0.0,0.0,0.0,0.0,0.0,0.0,0.0,0.0,0.0,0.0,0.0,0.0,0.0,0.0,0.0,0.0,0.0,0.0,0.0,0.0,0.0,0.0,0.0,0.0,0.0,0.0,0.0,0.0,0.0,0.0,0.0,0.0,0.0,0.0,0.0,0.0,0.0,0.0,0.0,0.0,0.0,0.0,0.0,0.0,0.0,0.0,0.0,0.0,0.0,0.0,0.0,0.0,0.0,-1.6955,-1.7269,-1.7855,-1.8294,-1.8556,0.0,0.0,0.0,0.0,0.0,0.0,0.0,0.0,0.0,0.0,0.0,0.0,0.0,0.0,0.0,0.0,0.0,0.0,0.0,0.0,0.0,0.0,0.0,0.0,0.0,0.0,0.0,0.0,0.0,0.0,0.0,0.0,0.0,0.0,0.0,0.0,0.0,0.0,0.0,0.0,0.0,0.0,0.0,0.0,0.0,0.0,0.0,0.0,0.0,0.0,0.0,0.0,0.0,0.0,0.0,0.0,0.0,0.0,0.0,0.0,0.0,0.0,0.0,0.0,0.0,0.0,0.0,0.0,0.0,0.0,0.0,0.0,0.0,0.0,0.0,0.0,0.0,0.0,0.0,0.0,0.0,0.0,0.0,0.0,0.0,0.0,0.0,0.0,0.0,0.0,0.0,0.0,0.0,0.0,0.0,0.0,0.0,0.0,0.0,0.0,0.0,0.0,0.0,0.0,0.0,0.0,0.0,0.0,0.0,0.0,0.0,0.0,-1.7406,-1.8108,-1.8748,0.0,0.0,0.0,0.0,0.0,0.0,0.0,0.0,0.0,0.0,0.0,0.0,0.0,0.0,0.0,0.0,0.0,0.0,0.0,0.0,0.0,0.0,0.0,0.0,0.0,0.0,0.0,0.0,0.0,0.0,0.0,0.0,0.0,0.0,0.0,0.0,0.0,0.0,0.0,0.0,0.0,0.0,0.0,0.0,0.0,0.0,0.0,0.0,0.0,0.0,0.0,0.0,0.0,0.0,0.0,0.0,0.0,0.0,0.0,0.0,0.0,0.0,0.0,0.0,0.0,0.0,0.0,0.0,0.0,0.0,0.0,0.0,0.0,0.0,0.0,0.0,0.0,0.0,0.0,0.0,0.0,0.0,0.0,0.0,0.0,0.0,0.0,0.0,0.0,0.0,0.0,0.0,0.0,0.0,0.0,0.0,0.0,0.0,0.0,0.0,0.0,0.0,0.0,0.0,0.0,0.0,0.0,0.0,0.0,0.0,-1.609,-1.6024,-1.7723,0.0,-1.9522,0.0,0.0,0.0,0.0,0.0,0.0,0.0,0.0,0.0,0.0,0.0,0.0,0.0,0.0,0.0,0.0,0.0,0.0,0.0,0.0,0.0,0.0,0.0,0.0,0.0,0.0,0.0,0.0,0.0,0.0,0.0,0.0,0.0,0.0,0.0,0.0,0.0,0.0,0.0,0.0,0.0,0.0,0.0,0.0,0.0,0.0,0.0,0.0,0.0,0.0,0.0,0.0,0.0,0.0,0.0,0.0,0.0,0.0,0.0,0.0,0.0,0.0,0.0,0.0,0.0,0.0,0.0,0.0,0.0,0.0,0.0,0.0,0.0,0.0,0.0,0.0,0.0,0.0,0.0,0.0,0.0,0.0,0.0,0.0,0.0,0.0,0.0,0.0,0.0,0.0,0.0,0.0,0.0,0.0,0.0,0.0,0.0,0.0,0.0,0.0,0.0,0.0,0.0,0.0,0.0,0.0,0.0,0.0,0.0,0.0,-1.5016,-1.5359,-1.6749,-1.7682,0.0,0.0,0.0,0.0,0.0,0.0,0.0,0.0,0.0,0.0,0.0,0.0,0.0,0.0,0.0,0.0,0.0,0.0,0.0,0.0,0.0,0.0,0.0,0.0,0.0,0.0,0.0,0.0,0.0,0.0,0.0,0.0,0.0,0.0,0.0,0.0,0.0,0.0,0.0,0.0,0.0,0.0,0.0,0.0,0.0,0.0,0.0,0.0,0.0,0.0,0.0,0.0,0.0,0.0,0.0,0.0,0.0,0.0,0.0,0.0,0.0,0.0,0.0,0.0,0.0,0.0,0.0,0.0,0.0,0.0,0.0,0.0,0.0,0.0,0.0,0.0,0.0,0.0,0.0,0.0,0.0,0.0,0.0,0.0,0.0,0.0,0.0,0.0,0.0,0.0,0.0,0.0,0.0,0.0,0.0,0.0,0.0,0.0,0.0,0.0,0.0,0.0,0.0,0.0,0.0,0.0,0.0,0.0,0.0,0.0,-1.3828,-1.4475,-1.532,-1.6024,-1.6591,-1.6969,0.0,0.0,0.0,0.0,0.0,0.0,0.0,0.0,0.0,0.0,0.0,0.0,0.0,0.0,0.0,0.0,0.0,0.0,0.0,0.0,0.0,0.0,0.0,0.0,0.0,0.0,0.0,0.0,0.0,0.0,0.0,0.0,0.0,0.0,0.0,0.0,0.0,0.0,0.0,0.0,0.0,0.0,0.0,0.0,0.0,0.0,0.0,0.0,0.0,0.0,0.0,0.0,0.0,0.0,0.0,0.0,0.0,0.0,0.0,0.0,0.0,0.0,0.0,0.0,0.0,0.0,0.0,0.0,0.0,0.0,0.0,0.0,0.0,0.0,0.0,0.0,0.0,0.0,0.0,0.0,0.0,0.0,0.0,0.0,0.0,0.0,0.0,0.0,0.0,0.0,0.0,0.0,0.0,0.0,0.0,0.0,0.0,0.0,0.0,0.0,0.0,0.0,0.0,0.0,0.0,0.0,0.0,0.0,-1.3216,-1.3894,-1.491,-1.6128,-1.601,-1.6268,0.0,0.0,0.0,0.0,0.0,0.0,0.0,0.0,0.0,0.0,0.0,0.0,0.0,0.0,0.0,0.0,0.0,0.0,0.0,0.0,0.0,0.0,0.0,0.0,0.0,0.0,0.0,0.0,0.0,0.0,0.0,0.0,0.0,0.0,0.0,0.0,0.0,0.0,0.0,0.0,0.0,0.0,0.0,0.0,0.0,0.0,0.0,0.0,0.0,0.0,0.0,0.0,0.0,0.0,0.0,0.0,0.0,0.0,0.0,0.0,0.0,0.0,0.0,0.0,0.0,0.0,0.0,0.0,0.0,0.0,0.0,0.0,0.0,0.0,0.0,0.0,0.0,0.0,0.0,0.0,0.0,0.0,0.0,0.0,0.0,0.0,0.0,0.0,0.0,0.0,0.0,0.0,0.0,0.0,0.0,0.0,0.0,0.0,0.0,0.0,0.0,0.0,0.0,0.0,0.0,0.0,0.0,0.0,0.0,-1.2283,-1.3302,-1.4138,-1.4685,-1.5068,-1.5373,0.0,0.0,0.0,0.0,0.0,0.0,0.0,0.0,0.0,0.0,0.0,0.0,0.0,0.0,0.0,0.0,0.0,0.0,0.0,0.0,0.0,0.0,0.0,0.0,0.0,0.0,0.0,0.0,0.0,0.0,0.0,0.0,0.0,0.0,0.0,0.0,0.0,0.0,0.0,0.0,0.0,0.0,0.0,0.0,0.0,0.0,0.0,0.0,0.0,0.0,0.0,0.0,0.0,0.0,0.0,0.0,0.0,0.0,0.0,0.0,0.0,0.0,0.0,0.0,0.0,0.0,0.0,0.0,0.0,0.0,0.0,0.0,0.0,0.0,0.0,0.0,0.0,0.0,0.0,0.0,0.0,0.0,0.0,0.0,0.0,0.0,0.0,0.0,0.0,0.0,0.0,0.0,0.0,0.0,0.0,0.0,0.0,0.0,0.0,0.0,0.0,0.0,0.0,0.0,0.0,0.0,0.0,0.0,0.0,-1.1777,0.0,-1.3255,-1.3432,-1.4095,-1.4477,0.0,0.0,0.0,0.0,0.0,0.0,0.0,0.0,0.0,0.0,0.0,0.0,0.0,0.0,0.0,0.0,0.0,0.0,0.0,0.0,0.0,0.0,0.0,0.0,0.0,0.0,0.0,0.0,0.0,0.0,0.0,0.0,0.0,0.0,0.0,0.0,0.0,0.0,0.0,0.0,0.0,0.0,0.0,0.0,0.0,0.0,0.0,0.0,0.0,0.0,0.0,0.0,0.0,0.0,0.0,0.0,0.0,0.0,0.0,0.0,0.0,0.0,0.0,0.0,0.0,0.0,0.0,0.0,0.0,0.0,0.0,0.0,0.0,0.0,0.0,0.0,0.0,0.0,0.0,0.0,0.0,0.0,0.0,0.0,0.0,0.0,0.0,0.0,0.0,0.0,0.0,0.0,0.0,0.0,0.0,0.0,0.0,0.0,0.0,0.0,0.0,0.0,0.0,0.0,0.0,0.0,0.0,0.0,-1.1325,-1.1872,-1.2164,-1.2449,-1.2683,-1.3234,-1.3617,0.0,0.0,0.0,0.0,0.0,0.0,0.0,0.0,0.0,0.0,0.0,0.0,0.0,0.0,0.0,0.0,0.0,0.0,0.0,0.0,0.0,0.0,0.0,0.0,0.0,0.0,0.0,0.0,0.0,0.0,0.0,0.0,0.0,0.0,0.0,0.0,0.0,0.0,0.0,0.0,0.0,0.0,0.0,0.0,0.0,0.0,0.0,0.0,0.0,0.0,0.0,0.0,0.0,0.0,0.0,0.0,0.0,0.0,0.0,0.0,0.0,0.0,0.0,0.0,0.0,0.0,0.0,0.0,0.0,0.0,0.0,0.0,0.0,0.0,0.0,0.0,0.0,0.0,0.0,0.0,0.0,0.0,0.0,0.0,0.0,0.0,0.0,0.0,0.0,0.0,0.0,0.0,0.0,0.0,0.0,0.0,0.0,0.0,0.0,0.0,0.0,0.0,0.0,0.0,0.0,0.0,0.0,0.0,0.0,-1.1325,-1.1468,-1.1771,-1.2184,-1.2267,-1.2532,0.0,0.0,0.0,0.0,0.0,0.0,0.0,0.0,0.0,0.0,0.0,0.0,0.0,0.0,0.0,0.0,0.0,0.0,0.0,0.0,0.0,0.0,0.0,0.0,0.0,0.0,0.0,0.0,0.0,0.0,0.0,0.0,0.0,0.0,0.0,0.0,0.0,0.0,0.0,0.0,0.0,0.0,0.0,0.0,0.0,0.0,0.0,0.0,0.0,0.0,0.0,0.0,0.0,0.0,0.0,0.0,0.0,0.0,0.0,0.0,0.0,0.0,0.0,0.0,0.0,0.0,0.0,0.0,0.0,0.0,0.0,0.0,0.0,0.0,0.0,0.0,0.0,0.0,0.0,0.0,0.0,0.0,0.0,0.0,0.0,0.0,0.0,0.0,0.0,0.0,0.0,0.0,0.0,0.0,0.0,0.0,0.0,0.0,0.0,0.0,0.0,0.0,0.0,0.0,0.0,0.0,0.0,0.0,0.0,-1.069,-1.0888,-1.1166,-1.1644,-1.1475,-1.1718,-1.2385,0.0,0.0,0.0,0.0,0.0,0.0,0.0,0.0,0.0,0.0,0.0,0.0,0.0,0.0,0.0,0.0,0.0,0.0,0.0,0.0,0.0,0.0,0.0,0.0,0.0,0.0,0.0,0.0,0.0,0.0,0.0,0.0,0.0,0.0,0.0,0.0,0.0,0.0,0.0,0.0,0.0,0.0,0.0,0.0,0.0,0.0,0.0,0.0,0.0,0.0,0.0,0.0,0.0,0.0,0.0,0.0,0.0,0.0,0.0,0.0,0.0,0.0,0.0,0.0,0.0,0.0,0.0,0.0,0.0,0.0,0.0,0.0,0.0,0.0,0.0,0.0,0.0,0.0,0.0,0.0,0.0,0.0,0.0,0.0,0.0,0.0,0.0,0.0,0.0,0.0,0.0,0.0,0.0,0.0,0.0,0.0,0.0,0.0,0.0,0.0,0.0,0.0,0.0,0.0,0.0,0.0,0.0,0.0,-1.0049,-1.0429,-1.0779,-1.1037,-1.0825,-1.1165,0.0,0.0,0.0,0.0,0.0,0.0,0.0,0.0,0.0,0.0,0.0,0.0,0.0,0.0,0.0,0.0,0.0,0.0,0.0,0.0,0.0,0.0,0.0,0.0,0.0,0.0,0.0,0.0,0.0,0.0,0.0,0.0,0.0,0.0,0.0,0.0,0.0,0.0,0.0,0.0,0.0,0.0,0.0,0.0,0.0,0.0,0.0,0.0,0.0,0.0,0.0,0.0,0.0,0.0,0.0,0.0,0.0,0.0,0.0,0.0,0.0,0.0,0.0,0.0,0.0,0.0,0.0,0.0,0.0,0.0,0.0,0.0,0.0,0.0,0.0,0.0,0.0,0.0,0.0,0.0,0.0,0.0,0.0,0.0,0.0,0.0,0.0,0.0,0.0,0.0,0.0,0.0,0.0,0.0,0.0,0.0,0.0,0.0,0.0,0.0,0.0,0.0,0.0,0.0,0.0,0.0,0.0,0.0,0.0,-0.9563,-1.0349,-1.1008,-1.1348,-1.0762,-1.0809,0.0,0.0,0.0,0.0,0.0,0.0,0.0,0.0,0.0,0.0,0.0,0.0,0.0,0.0,0.0,0.0,0.0,0.0,0.0,0.0,0.0,0.0,0.0,0.0,0.0,0.0,0.0,0.0,0.0,0.0,0.0,0.0,0.0,0.0,0.0,0.0,0.0,0.0,0.0,0.0,0.0,0.0,0.0,0.0,0.0,0.0,0.0,0.0,0.0,0.0,0.0,0.0,0.0,0.0,0.0,0.0,0.0,0.0,0.0,0.0,0.0,0.0,0.0,0.0,0.0,0.0,0.0,0.0,0.0,0.0,0.0,0.0,0.0,0.0,0.0,0.0,0.0,0.0,0.0,0.0,0.0,0.0,0.0,0.0,0.0,0.0,0.0,0.0,0.0,0.0,0.0,0.0,0.0,0.0,0.0,0.0,0.0,0.0,0.0,0.0,0.0,0.0,0.0,0.0,0.0,0.0,0.0,0.0,-0.951,-0.9185,-1.0152,-1.0779,-1.0981,-1.0549,-1.0642,0.0,0.0,0.0,0.0,0.0,0.0,0.0,0.0,0.0,0.0,0.0,0.0,0.0,0.0,0.0,0.0,0.0,0.0,0.0,0.0,0.0,0.0,0.0,0.0,0.0,0.0,0.0,0.0,0.0,0.0,0.0,0.0,0.0,0.0,0.0,0.0,0.0,0.0,0.0,0.0,0.0,0.0,0.0,0.0,0.0,0.0,0.0,0.0,0.0,0.0,0.0,0.0,0.0,0.0,0.0,0.0,0.0,0.0,0.0,0.0,0.0,0.0,0.0,0.0,0.0,0.0,0.0,0.0,0.0,0.0,0.0,0.0,0.0,0.0,0.0,0.0,0.0,0.0,0.0,0.0,0.0,0.0,0.0,0.0,0.0,0.0,0.0,0.0,0.0,0.0,0.0,0.0,0.0,0.0,0.0,0.0,0.0,0.0,0.0,0.0,0.0,0.0,0.0,0.0,0.0,0.0,0.0,0.0,-0.9325,-0.8911,-0.9763,-1.0248,-1.0256,-1.0273,-1.0538,0.0,0.0,0.0,0.0,0.0,0.0,0.0,0.0,0.0,0.0,0.0,0.0,0.0,0.0,0.0,0.0,0.0,0.0,0.0,0.0,0.0,0.0,0.0,0.0,0.0,0.0,0.0,0.0,0.0,0.0,0.0,0.0,0.0,0.0,0.0,0.0,0.0,0.0,0.0,0.0,0.0,0.0,0.0,0.0,0.0,0.0,0.0,0.0,0.0,0.0,0.0,0.0,0.0,0.0,0.0,0.0,0.0,0.0,0.0,0.0,0.0,0.0,0.0,0.0,0.0,0.0,0.0,0.0,0.0,0.0,0.0,0.0,0.0,0.0,0.0,0.0,0.0,0.0,0.0,0.0,0.0,0.0,0.0,0.0,0.0,0.0,0.0,0.0,0.0,0.0,0.0,0.0,0.0,0.0,0.0,0.0,0.0,0.0,0.0,0.0,0.0,0.0,0.0,0.0,0.0,0.0,0.0,0.0,-0.852,-0.825,-0.9336,-0.9897,-0.9918,-1.0137,-1.0216,0.0,0.0,0.0,0.0,0.0,0.0,0.0,0.0,0.0,0.0,0.0,0.0,0.0,0.0,0.0,0.0,0.0,0.0,0.0,0.0,0.0,0.0,0.0,0.0,0.0,0.0,0.0,0.0,0.0,0.0,0.0,0.0,0.0,0.0,0.0,0.0,0.0,0.0,0.0,0.0,0.0,0.0,0.0,0.0,0.0,0.0,0.0,0.0,1.3631,0.0,0.0,0.0,0.0,0.0,0.0,0.0,0.0,0.0,0.0,0.0,0.0,0.0,0.0,0.0,0.0,0.0,0.0,0.0,0.0,0.0,0.0,0.0,0.0,0.0,0.0,0.0,0.0,0.0,0.0,0.0,0.0,0.0,0.0,0.0,0.0,0.0,0.0,0.0,0.0,0.0,0.0,0.0,0.0,0.0,0.0,0.0,0.0,0.0,0.0,0.0,0.0,0.0,0.0,0.0,0.0,0.0,0.0,0.0,-0.795,-0.7787,-0.843,-0.8868,-0.8972,-0.9257,-0.9581,0.0,0.0,0.0,0.0,0.0,0.0,0.0,0.0,0.0,0.0,0.0,0.0,0.0,0.0,0.0,0.0,0.0,0.0,0.0,0.0,0.0,0.0,0.0,0.0,0.0,0.0,0.0,0.0,0.0,0.0,0.0,0.0,0.0,0.0,0.0,0.0,0.0,0.0,0.0,0.0,0.0,0.0,0.0,0.0,0.0,0.0,0.0,0.0,0.0,0.0,0.0,0.0,0.0,0.0,0.0,0.0,0.0,0.0,0.0,0.0,0.0,0.0,0.0,0.0,0.0,0.0,0.0,0.0,0.0,0.0,0.0,0.0,0.0,0.0,0.0,0.0,0.0,0.0,0.0,0.0,0.0,0.0,0.0,0.0,0.0,0.0,0.0,0.0,0.0,0.0,0.0,0.0,0.0,0.0,0.0,0.0,0.0,0.0,0.0,0.0,0.0,0.0,0.0,0.0,0.0,0.0,0.0,-0.7503,-0.7587,-0.7447,-0.7579,-0.778,-0.7996,-0.8165,-0.8767,-0.9781,0.0,0.0,0.0,0.0,0.0,0.0,0.0,0.0,0.0,0.0,0.0,0.0,0.0,0.0,0.0,0.0,0.0,0.0,0.0,0.0,0.0,0.0,0.0,0.0,0.0,0.0,0.0,0.0,0.0,0.0,0.0,0.0,0.0,0.0,0.0,0.0,0.0,0.0,1.7469,1.813,0.0,0.0,0.0,0.0,0.0,0.0,0.0,0.0,1.4501,0.0,0.0,0.0,0.0,0.0,0.0,0.0,0.0,0.0,0.0,0.0,0.0,0.0,0.0,0.0,0.0,0.0,0.0,0.0,0.0,0.0,0.0,0.0,0.0,0.0,0.0,0.0,0.0,0.0,0.0,0.0,0.0,0.0,0.0,0.0,0.0,0.0,0.0,0.0,0.0,0.0,0.0,0.0,0.0,0.0,0.0,0.0,0.0,0.0,0.0,0.0,0.0,0.0,0.0,0.0,0.0,-0.6581,-0.7047,-0.7251,-0.7251,-0.737,-0.761,-0.7877,-0.7709,-0.751,-0.7341,0.0,0.0,0.0,0.0,0.0,0.0,0.0,0.0,0.0,0.0,0.0,0.0,0.0,0.0,0.0,0.0,0.0,0.0,0.0,0.0,0.0,0.0,0.0,0.0,0.0,0.0,0.0,0.0,0.0,0.0,0.0,0.0,0.0,0.0,0.0,0.0,0.0,0.0,0.0,1.9166,1.9221,0.0,0.0,0.0,0.0,0.0,0.0,0.0,0.0,1.4107,0.0,0.0,0.0,0.0,0.0,0.0,0.0,0.0,0.0,0.0,0.0,0.0,0.0,0.0,0.0,0.0,0.0,0.0,0.0,0.0,0.0,0.0,0.0,0.0,0.0,0.0,0.0,0.0,0.0,0.0,0.0,0.0,0.0,0.0,0.0,0.0,0.0,0.0,0.0,0.0,0.0,0.0,0.0,0.0,0.0,0.0,0.0,0.0,0.0,0.0,0.0,0.0,0.0,0.0,0.0,-0.6818,-0.695,-0.6999,-0.6943,-0.695,-0.6888,-0.6805,-0.6705,-0.6426,0.0,0.0,0.0,0.0,0.0,0.0,0.0,0.0,0.0,0.0,0.0,0.0,0.0,0.0,0.0,0.0,0.0,0.0,0.0,0.0,0.0,0.0,0.0,0.0,0.0,0.0,0.0,0.0,0.0,0.0,0.0,0.0,0.0,0.0,0.0,0.0,0.0,0.0,0.0,0.0,1.9611,1.9818,1.9424,0.0,0.0,0.0,0.0,0.0,0.0,1.5276,1.488,0.0,0.0,0.0,0.0,0.0,0.0,0.0,0.0,0.0,0.0,0.0,0.0,0.0,0.0,0.0,0.0,0.0,0.0,0.0,0.0,0.0,0.0,0.0,0.0,0.0,0.0,0.0,0.0,0.0,0.0,0.0,0.0,0.0,0.0,0.0,0.0,0.0,0.0,0.0,0.0,0.0,0.0,0.0,0.0,0.0,0.0,0.0,0.0,0.0,0.0,0.0,0.0,0.0,0.0,0.0,-0.7,-0.6916,-0.6865,-0.6768,-0.6611,-0.6355,-0.5964,-0.594,-0.5696,0.0,0.0,0.0,0.0,0.0,0.0,0.0,0.0,0.0,0.0,0.0,0.0,0.0,0.0,0.0,0.0,0.0,0.0,0.0,0.0,0.0,0.0,0.0,0.0,0.0,0.0,0.0,0.0,0.0,0.0,0.0,0.0,0.0,0.0,0.0,0.0,0.0,0.0,0.0,0.0,0.0,2.0314,2.0066,1.9373,0.0,0.0,0.0,0.0,1.6642,1.6287,0.0,0.0,0.0,0.0,0.0,0.0,0.0,0.0,0.0,0.0,0.0,0.0,0.0,0.0,0.0,0.0,0.0,0.0,0.0,0.0,0.0,0.0,0.0,0.0,0.0,0.0,0.0,0.0,0.0,0.0,0.0,0.0,0.0,0.0,0.0,0.0,0.0,0.0,0.0,0.0,0.0,0.0,0.0,0.0,0.0,0.0,0.0,0.0,0.0,0.0,0.0,0.0,0.0,0.0,0.0,0.0,-0.6265,-0.6736,-0.6985,-0.6979,-0.6787,-0.6575,-0.6441,-0.6164,-0.556,0.0,0.0,0.0,0.0,0.0,0.0,0.0,0.0,0.0,0.0,0.0,0.0,0.0,0.0,0.0,0.0,0.0,0.0,0.0,0.0,0.0,0.0,0.0,0.0,0.0,0.0,0.0,0.0,0.0,0.0,0.0,0.0,0.0,0.0,0.0,0.0,0.0,0.0,0.0,0.0,0.0,2.0862,1.9982,1.9657,1.9192,0.0,0.0,1.7585,1.7626,1.7246,0.0,0.0,0.0,0.0,0.0,0.0,0.0,0.0,0.0,0.0,0.0,0.0,0.0,0.0,0.0,0.0,0.0,0.0,0.0,0.0,0.0,0.0,0.0,0.0,0.0,0.0,0.0,0.0,0.0,0.0,0.0,0.0,0.0,0.0,0.0,0.0,0.0,0.0,0.0,0.0,0.0,0.0,0.0,0.0,0.0,0.0,0.0,0.0,0.0,0.0,0.0,0.0,0.0,0.0,0.0,-0.6584,-0.6719,-0.6868,-0.6865,-0.6689,-0.6447,-0.6099,-0.5658,-0.5272,-0.4747,0.0,0.0,0.0,0.0,0.0,0.0,0.0,0.0,0.0,0.0,0.0,0.0,0.0,0.0,0.0,0.0,0.0,0.0,0.0,0.0,0.0,0.0,0.0,0.0,0.0,0.0,0.0,0.0,0.0,0.0,0.0,0.0,0.0,0.0,0.0,0.0,0.0,0.0,0.0,0.0,0.0,0.0,2.0667,2.0119,0.0,0.0,0.0,1.8094,1.7987,0.0,0.0,0.0,0.0,0.0,0.0,0.0,0.0,0.0,0.0,0.0,0.0,0.0,0.0,0.0,0.0,0.0,0.0,0.0,0.0,0.0,0.0,0.0,0.0,0.0,0.0,0.0,0.0,0.0,0.0,0.0,0.0,0.0,0.0,0.0,0.0,0.0,0.0,0.0,0.0,0.0,0.0,0.0,0.0,0.0,0.0,0.0,0.0,0.0,0.0,0.0,0.0,0.0,0.0,0.0,0.0,0.0,-0.6701,-0.6671,-0.6568,-0.6355,-0.6099,-0.5707,-0.514,-0.4666,0.0,0.0,0.0,0.0,0.0,0.0,0.0,0.0,0.0,0.0,0.0,0.0,0.0,0.0,0.0,0.0,0.0,0.0,0.0,0.0,0.0,0.0,0.0,0.0,0.0,0.0,0.0,2.0345,0.0,0.0,0.0,0.0,0.0,0.0,0.0,0.0,0.0,0.0,0.0,0.0,0.0,0.0,2.1055,2.1309,2.0684,2.0187,0.0,0.0,1.8779,1.8549,1.8049,1.7592,0.0,0.0,0.0,0.0,0.0,0.0,0.0,0.0,0.0,0.0,0.0,0.0,0.0,0.0,0.0,0.0,0.0,0.0,0.0,0.0,0.0,0.0,0.0,0.0,0.0,0.0,0.0,0.0,0.0,0.0,0.0,0.0,0.0,0.0,0.0,0.0,0.0,0.0,0.0,0.0,0.0,0.0,0.0,0.0,0.0,0.0,0.0,0.0,0.0,0.0,0.0,0.0,0.0,0.0,-0.5727,-0.5376,-0.5816,-0.6013,-0.5836,-0.5836,-0.5707,-0.5448,-0.5014,-0.4625,0.0,0.0,0.0,0.0,0.0,0.0,0.0,0.0,0.0,0.0,0.0,0.0,0.0,0.0,0.0,0.0,0.0,0.0,0.0,0.0,0.0,0.0,0.0,0.0,0.0,0.0,0.0,0.0,0.0,0.0,0.0,0.0,0.0,0.0,0.0,0.0,0.0,0.0,0.0,0.0,0.0,2.1386,2.1477,2.1323,2.1134,0.0,2.0314,1.9758,1.9624,1.9464,1.8991,1.7786,0.0,0.0,0.0,0.0,0.0,0.0,0.0,0.0,0.0,0.0,0.0,0.0,0.0,0.0,0.0,0.0,0.0,0.0,0.0,0.0,0.0,0.0,0.0,0.0,0.0,0.0,0.0,0.0,0.0,0.0,0.0,0.0,0.0,0.0,0.0,0.0,0.0,0.0,0.0,0.0,0.0,0.0,0.0,0.0,0.0,0.0,0.0,0.0,0.0,0.0,0.0,0.0,0.0,-0.5531,-0.5975,-0.6001,-0.5841,-0.5529,-0.5399,-0.5101,-0.453,-0.4144,-0.3799,0.0,0.0,0.0,0.0,0.0,0.0,0.0,0.0,0.0,0.0,0.0,0.0,0.0,0.0,0.0,0.0,0.0,0.0,0.0,0.0,0.0,0.0,0.0,0.0,0.0,0.0,0.0,0.0,2.1674,2.2059,2.2322,0.0,0.0,0.0,0.0,0.0,0.0,0.0,0.0,0.0,0.0,2.1672,2.1702,2.1477,0.0,0.0,2.0382,1.9844,1.9711,1.887,1.8232,1.8168,1.6862,0.0,0.0,0.0,0.0,0.0,0.0,0.0,0.0,0.0,0.0,0.0,0.0,0.0,0.0,0.0,0.0,0.0,0.0,0.0,0.0,0.0,0.0,0.0,0.0,0.0,0.0,0.0,0.0,0.0,0.0,0.0,0.0,0.0,0.0,0.0,0.0,0.0,0.0,0.0,0.0,0.0,0.0,0.0,0.0,0.0,0.0,0.0,0.0,0.0,0.0,0.0,0.0,-0.534,-0.6029,-0.5821,-0.5534,-0.5183,-0.5053,-0.4705,-0.4144,-0.3792,-0.3462,0.0,0.0,0.0,0.0,0.0,0.0,0.0,0.0,0.0,0.0,0.0,0.0,0.0,0.0,0.0,0.0,0.0,0.0,0.0,0.0,0.0,0.0,0.0,0.0,0.0,0.0,0.0,0.0,2.2059,2.23,2.273,0.0,0.0,0.0,0.0,0.0,0.0,0.0,0.0,0.0,0.0,2.2034,2.2091,2.1702,2.1306,2.1086,2.0382,1.9808,1.9654,1.8666,1.8049,1.8391,0.0,0.0,0.0,0.0,0.0,0.0,0.0,0.0,0.0,0.0,0.0,0.0,0.0,0.0,0.0,0.0,0.0,0.0,0.0,0.0,0.0,0.0,0.0,0.0,0.0,0.0,0.0,0.0,0.0,0.0,-0.2512,0.0,0.0,0.0,0.0,0.0,0.0,0.0,0.0,0.0,0.0,0.0,0.0,0.0,0.0,0.0,0.0,0.0,0.0,0.0,0.0,0.0,0.0,-0.4902,-0.4948,-0.5006,-0.4985,-0.4845,-0.4801,-0.4753,-0.457,-0.4276,-0.4006,-0.3832,0.0,0.0,0.0,0.0,0.0,0.0,0.0,0.0,0.0,0.0,0.0,0.0,0.0,0.0,0.0,0.0,0.0,0.0,0.0,0.0,0.0,0.0,0.0,0.0,0.0,0.0,2.2282,2.2149,2.2218,0.0,0.0,0.0,0.0,0.0,0.0,0.0,0.0,0.0,2.2512,2.2581,2.2632,2.2747,2.2096,2.1521,2.1243,2.0434,1.9732,1.9487,1.9244,1.8968,0.0,0.0,0.0,0.0,0.0,0.0,0.0,0.0,0.0,0.0,0.0,0.0,0.0,0.0,0.0,0.0,0.0,0.0,0.0,0.0,0.0,0.0,0.0,0.0,0.0,0.0,0.0,-0.4073,-0.3959,0.0,0.0,0.0,0.0,0.0,0.0,0.0,0.0,0.0,0.0,0.0,-0.3962,-0.3382,0.0,0.0,0.0,0.0,0.0,0.0,0.0,0.0,0.0,0.0,0.0,0.0,-0.5185,-0.5198,-0.5212,-0.5067,-0.4801,-0.4797,-0.4622,-0.4268,-0.3965,-0.3411,-0.2733,0.0,0.0,0.0,0.0,0.0,0.0,0.0,0.0,0.0,0.0,0.0,0.0,0.0,0.0,0.0,0.0,0.0,0.0,0.0,0.0,0.0,0.0,0.0,0.0,0.0,2.3038,0.0,0.0,0.0,0.0,0.0,0.0,0.0,0.0,0.0,0.0,0.0,2.2712,2.3021,2.2975,2.2944,2.2977,2.2463,2.1915,0.0,0.0,0.0,0.0,0.0,0.0,0.0,0.0,0.0,0.0,0.0,0.0,0.0,0.0,1.6189,1.4722,1.3603,1.289,1.289,0.0,0.0,0.0,0.0,0.0,0.0,0.0,0.0,0.0,0.0,0.0,0.0,0.0,0.0,-0.4842,0.0,-0.5175,0.0,0.0,0.0,0.0,0.0,0.0,0.0,0.0,-0.4233,-0.4398,-0.4732,-0.4197,-0.3991,0.0,-0.3849,-0.4029,0.0,0.0,0.0,0.0,0.0,0.0,0.0,0.0,-0.5325,-0.5472,-0.5444,-0.5328,-0.5062,-0.5014,-0.4884,-0.4535,-0.4049,-0.3473,-0.2674,-0.2249,-0.1667,0.0,0.0,0.0,0.0,0.0,0.0,0.0,0.0,0.0,0.0,0.0,0.0,0.0,0.0,0.0,0.0,0.0,0.0,0.0,0.0,0.0,0.0,0.0,2.2817,0.0,0.0,0.0,0.0,0.0,0.0,0.0,0.0,0.0,2.2487,2.282,2.3153,2.3369,2.3259,2.3102,2.3045,0.0,0.0,0.0,0.0,0.0,0.0,0.0,1.9489,2.0182,1.9475,1.8759,1.8711,1.8208,1.748,1.6344,0.0,0.0,1.5301,1.419,1.3359,1.3372,1.254,1.1719,1.1469,1.1276,1.1065,0.0,0.0,0.0,0.0,0.0,0.0,0.0,0.0,-0.5257,-0.5542,0.0,-0.5828,0.0,0.0,0.0,0.0,0.0,-0.5113,0.0,0.0,-0.5732,-0.5618,-0.4999,-0.4881,-0.4656,-0.4398,-0.4288,-0.4738,-0.5574,-0.4799,0.0,0.0,0.0,0.0,0.0,0.0,-0.5421,-0.5779,-0.5749,-0.5631,-0.5496,-0.5496,-0.541,-0.5241,-0.4626,-0.4096,-0.3697,-0.2632,-0.182,-0.1321,-0.0285,0.0,0.0,0.0,0.0,0.0,0.0,0.0,0.0,0.0,0.0,0.0,0.0,0.0,0.0,0.0,0.0,0.0,0.0,0.0,0.0,2.2413,0.0,0.0,0.0,0.0,0.0,0.0,0.0,0.0,0.0,0.0,2.3165,2.3282,2.3459,2.3566,0.0,0.0,0.0,0.0,2.1794,2.1477,2.0764,2.0404,2.0773,2.0798,2.0757,2.0956,0.0,0.0,1.8598,1.8013,1.7416,1.6291,1.5855,1.5747,1.6429,1.537,1.4327,1.3784,1.2812,1.2008,1.1719,1.1477,1.1226,-0.6864,0.0,0.0,0.0,0.0,-0.6204,-0.6263,-0.6322,-0.6426,-0.6268,-0.5996,-0.6701,0.0,0.0,0.0,0.0,0.0,0.0,-0.6046,-0.5841,-0.605,-0.605,-0.5928,-0.5701,-0.5646,-0.5766,-0.5426,-0.5435,-0.5699,-0.544,-0.5474,-0.5779,0.0,0.0,0.0,0.0,-0.5762,-0.5601,-0.5793,-0.5804,-0.5636,-0.5636,-0.541,-0.4975,-0.4762,-0.436,-0.37,-0.2996,-0.2337,-0.168,-0.0842,0.0,0.0,0.0,0.0,0.0,0.0,0.0,0.0,0.0,0.0,0.0,0.0,0.0,0.0,0.0,0.0,0.0,0.0,0.0,2.3573,2.2516,2.2239,0.0,0.0,0.0,0.0,0.0,0.0,0.0,0.0,0.0,2.3544,2.3692,2.3753,0.0,0.0,2.3168,2.2868,2.2552,2.2175,2.1751,2.1432,0.0,2.166,2.1419,2.1401,2.2088,2.1946,2.129,2.0075,1.9344,1.8601,1.7638,1.6757,1.6161,1.6068,1.5263,1.4348,1.3894,1.3074,1.2274,1.1927,1.1477,1.1082,-0.7402,-0.6918,-0.6858,-0.6804,-0.6756,-0.6804,-0.6977,-0.7144,-0.7306,-0.7198,-0.6923,-0.7568,-0.723,-0.6244,-0.6891,0.0,0.0,0.0,-0.6858,-0.6539,-0.649,-0.6539,-0.6676,-0.6349,-0.6331,-0.6497,-0.6083,-0.5947,-0.6019,-0.6034,-0.6186,-0.6424,0.0,0.0,-0.5789,-0.5927,-0.5947,-0.5927,-0.6062,-0.6105,-0.5981,-0.5895,-0.5593,-0.5101,-0.4971,-0.4618,-0.4049,-0.3394,-0.2771,-0.2275,-0.1556,0.1156,0.0,0.0,0.0,0.0,0.0,0.0,0.0,0.0,0.0,0.0,0.0,2.2759,2.3042,0.0,0.0,0.0,2.2353,2.2777,2.3322,2.2385,0.0,0.0,0.0,0.0,0.0,0.0,0.0,2.3606,2.3777,2.3876,2.3816,2.3917,2.3876,2.3495,2.3394,2.3193,2.2816,0.0,2.2897,2.2298,2.2474,2.2718,2.2881,2.2623,2.2523,2.2843,2.2331,2.1572,2.065,1.9782,1.8951,1.8136,1.7183,1.6372,1.5745,1.5129,1.4704,1.4456,1.349,1.2657,1.2397,1.1746,1.1104,-0.7723,-0.7717,-0.7509,-0.7241,-0.7036,-0.7295,-0.7456,-0.7628,-0.8055,-0.8215,-0.8162,-0.8321,-0.8321,-0.8221,-0.8415,0.0,-0.7871,-0.7771,-0.7557,-0.7289,-0.709,-0.6987,-0.7117,-0.6778,-0.6687,-0.6744,-0.6422,-0.6354,-0.6502,-0.6514,-0.657,-0.6672,-0.597,-0.5777,-0.6112,-0.5952,-0.6105,-0.6551,-0.6483,-0.6453,-0.6477,-0.6249,-0.5946,-0.5548,-0.5276,-0.4965,-0.464,-0.3447,-0.2726,-0.2452,-0.1429,0.146,0.6274,0.0,0.0,0.0,0.0,0.0,0.0,0.0,0.0,0.0,0.0,0.0,0.0,0.0,0.0,2.1643,2.105,0.0,2.2384,2.2215,0.0,0.0,0.0,2.3876,2.3917,2.3858,2.3896,2.4094,0.0,0.0,2.4036,2.4016,2.3855,2.3445,2.3407,2.3241,2.2773,2.3431,2.3687,2.2842,2.3464,2.3934,2.3679,2.3591,2.3398,2.3093,2.2352,2.1374,2.0543,1.9686,1.8792,1.8178,1.7398,1.6593,1.5488,1.541,1.5295,1.5126,1.3973,1.2945,1.295,1.2184,1.1374,-0.8109,-0.8262,-0.8156,-0.8103,-0.8055,-0.8096,-0.8203,-0.8362,-0.8468,-0.8262,-0.783,-0.8309,-0.8421,-0.8221,-0.8096,-0.7984,-0.7717,-0.7622,-0.7515,-0.7461,-0.7408,-0.7359,-0.7396,-0.7098,-0.706,-0.7146,-0.688,-0.6704,-0.6636,-0.6649,-0.6692,-0.6672,-0.6496,-0.6483,-0.6539,-0.6526,-0.6681,-0.7102,-0.7109,-0.7122,-0.7139,-0.7099,-0.6725,-0.6023,-0.606,-0.5831,-0.5238,-0.1532,0.0928,0.184,0.5628,0.8787,1.0918,1.2047,0.0,0.0,0.0,0.0,0.0,0.0,0.0,0.0,0.0,2.3565,2.3968,0.0,2.3177,0.0,2.2275,2.251,2.3979,2.3434,0.0,0.0,2.4081,2.4096,2.4074,2.4094,2.4133,2.4172,2.4229,2.4247,2.4135,2.4172,2.3979,2.3562,2.344,2.3277,2.3017,2.3369,2.3329,2.2454,2.2756,2.2981,2.2721,2.2477,2.2483,2.2697,2.16,2.0581,2.0348,1.9808,1.9317,1.9107,1.8265,1.7419,1.6797,1.6249,1.5742,1.53,1.3988,1.2911,1.3146,1.2525,1.185,-0.8421,-0.8474,-0.8533,-0.8633,-0.8738,-0.8573,-0.858,-0.8685,-0.8685,-0.8533,-0.8203,-0.8474,-0.8573,-0.8474,-0.8302,-0.8302,-0.8408,-0.7996,-0.7836,-0.7996,-0.7788,-0.7735,-0.7777,-0.7677,-0.7622,-0.7664,-0.726,-0.7122,-0.7154,-0.693,-0.6907,-0.7005,-0.6999,-0.7041,-0.7041,-0.7088,-0.7234,-0.7475,-0.7706,-0.7663,-0.7487,-0.7529,-0.72,-0.6428,-0.6476,-0.6261,-0.5746,-0.0821,0.2251,0.3086,0.8009,1.2199,1.5041,1.5288,1.6394,0.0,0.0,0.0,0.0,0.0,0.0,0.0,0.0,0.0,0.0,0.0,2.3581,2.3917,2.2642,2.2571,2.4546,2.3982,2.3739,2.4405,2.4428,2.4302,2.4152,2.4171,2.4191,2.4192,2.4266,2.4266,2.421,2.4135,2.3979,2.3735,2.3508,2.3271,2.3095,2.3379,2.3392,2.2643,2.2953,2.3145,2.2643,2.2158,2.2058,2.2398,2.1556,2.0726,2.0779,2.0298,1.9861,1.9569,1.8734,1.7833,1.7258,1.6591,1.5902,1.5022,1.4048,1.3306,1.3258,1.2712,1.2133,-0.8679,-0.8732,-0.8897,-0.9169,-0.9365,-0.9049,-0.8877,-0.8857,-0.891,-0.891,-0.891,-0.8791,-0.8778,-0.8778,-0.8679,-0.8837,-0.9204,-0.8474,-0.8262,-0.8521,-0.8162,-0.8055,-0.8209,-0.8223,-0.8233,-0.818,-0.7742,-0.7575,-0.776,-0.7398,-0.7312,-0.7574,-0.7581,-0.7617,-0.7744,-0.7879,-0.7913,-0.7927,-0.8407,-0.842,-0.7885,-0.7234,-0.6582,-0.5821,-0.5099,-0.4509,-0.4079,0.1032,0.4082,0.4635,0.9678,1.4658,1.9089,1.9396,2.1291,0.0,2.5551,0.0,0.0,0.0,0.0,0.0,0.0,0.0,0.0,2.357,2.39,2.4666,2.2819,2.2476,2.4601,2.425,2.4082,2.4538,2.4596,2.4497,2.4247,2.421,2.4229,2.4247,2.4284,2.4303,2.4266,2.4057,2.3939,2.3917,2.3598,2.3247,2.3047,2.3396,2.3517,2.3106,2.3302,2.3128,2.2955,2.2276,2.1898,2.2383,2.1743,2.1189,2.1186,2.0713,2.0205,1.9683,1.8898,1.8074,1.7277,1.6666,1.5858,1.477,1.4071,1.3596,1.3322,1.2822,1.2286,-0.8949,-0.9278,-0.9746,-1.0124,-1.0486,-1.0432,-0.9962,-0.9309,-0.9413,-0.9458,-0.9465,-0.9406,-0.9197,-0.883,-0.8778,-0.8633,-0.8427,-0.8275,-0.8268,-0.8421,-0.8468,-0.8421,-0.8368,-0.8469,-0.8481,-0.837,-0.8349,-0.8311,-0.8164,-0.8186,-0.8296,-0.8434,-0.8427,-0.8617,-0.8959,0.0,0.0,0.0,-0.9791,-0.986,-0.9228,-0.4701,-0.2061,-0.157,0.3008,0.0,0.6271,1.0496,1.3401,1.4617,1.9087,0.0,0.0,0.0,0.0,0.0,0.0,0.0,0.0,0.0,0.0,0.0,2.4907,2.4839,2.4772,2.4714,2.4718,2.4756,2.4417,2.4377,2.4831,2.4866,2.4761,2.461,2.4642,2.4559,2.4248,2.4303,2.4376,2.4358,2.4411,2.4465,2.4411,2.4229,2.3999,2.3855,2.3638,2.3253,2.2799,2.3162,2.3025,2.2098,2.1746,2.1784,2.2525,2.1772,2.1428,2.1999,2.1496,2.0821,2.0623,2.0353,2.0077,1.9749,1.8963,1.8255,1.7912,1.686,1.5739,1.4946,1.4203,1.3597,1.3214,1.2767,1.2372,-0.9636,0.0,-1.0174,-1.0554,0.0,-1.0735,-1.06,-1.0454,-1.0076,-0.9702,-0.9421,-0.9635,-0.9482,-0.9092,-0.8844,-0.8971,-0.9381,-0.9005,-0.9085,-0.9446,-0.9241,-0.9113,-0.9065,-0.9173,-0.9169,-0.9082,-0.9184,-0.9219,-0.9144,-0.8979,-0.8989,-0.9074,-0.9074,-0.9259,-0.9598,-1.0184,-1.0303,-1.0034,-0.7509,-0.5981,-0.5339,0.017,0.3359,0.3758,0.6598,0.0,0.0,0.0,0.0,0.0,0.0,0.0,0.0,2.5537,0.0,2.5605,2.5598,2.5565,2.5531,2.5507,2.5457,2.5356,2.5329,2.5225,2.5068,2.4662,2.4525,2.4823,2.4555,2.4531,2.4962,2.5088,2.5025,2.4734,2.47,2.4572,2.4321,2.4339,2.4394,2.4412,2.4429,2.4465,2.4302,2.4097,2.3878,2.3685,2.3307,2.296,2.2561,2.2643,2.2425,2.153,2.1177,2.1225,2.1688,2.1447,2.1228,2.1825,2.137,2.0823,2.0759,2.047,2.0086,1.9581,1.8804,1.8159,1.7776,1.6729,1.5535,1.4802,1.4135,1.3519,1.291,1.2408,1.2124,-1.0363,-1.036,-1.0637,-1.0959,-1.1296,-1.1019,-1.1239,-1.1743,0.0,0.0,0.0,-1.0002,-0.9962,-0.9729,-0.9213,-0.9564,-1.0506,-1.0012,-1.0051,-1.0537,-1.0107,-0.9923,-0.9923,-1.0034,-1.0107,-1.0098,-1.0098,-1.0136,-1.0212,-0.9771,-0.9643,-0.9831,-0.9831,-0.943,-0.8686,-0.8165,-0.7829,-0.7538,-0.3909,-0.1288,0.0212,0.5826,0.8964,0.9188,1.0352,1.1031,1.1293,1.5598,1.811,1.8426,2.2717,2.5245,2.532,2.5505,2.5615,2.5609,2.5675,2.5707,2.5698,2.5694,2.5651,2.5529,2.549,2.5321,2.503,2.4431,2.4312,2.4872,2.4397,2.4362,2.5037,2.5149,2.5101,2.4818,2.4741,2.4623,2.4357,2.4375,2.443,2.4411,2.4464,2.4411,2.4154,2.3978,2.371,2.3445,2.306,2.2571,2.2237,2.2073,2.188,2.1552,2.1355,2.1301,2.1506,2.1455,2.1478,2.1859,2.1412,2.1014,2.0992,2.0709,2.0105,1.9371,1.8643,1.805,1.7579,1.6513,1.5486,1.4725,1.4025,1.3334,1.2671,1.2092,1.1781,-1.1099,-1.0997,-1.1419,-1.197,-1.2523,-1.2471,-1.2578,-1.2674,-1.2011,-1.1765,-1.1734,-1.1423,-1.1192,-1.1079,-1.0568,-1.0387,-1.0528,-1.0642,-1.0672,-1.0659,-1.0835,-1.0861,-1.0748,-1.0861,-1.1007,-1.1169,-1.0926,-1.0913,-1.0991,-1.0761,-1.0814,-1.0939,-1.1064,-0.8514,-0.372,0.1166,0.3698,0.3822,-0.0371,-0.0041,0.5179,1.101,1.3997,1.4156,1.9063,2.2019,2.2257,2.2996,2.3636,2.3787,2.4693,2.5225,2.5303,2.5483,2.5604,2.5609,2.566,2.5707,2.5698,2.5703,2.5673,2.5609,2.5634,2.5479,2.5046,2.5053,2.5102,2.5076,2.4989,2.5045,2.5172,2.5184,2.5063,2.4771,2.4741,2.467,2.4411,2.4428,2.4479,2.4481,2.4479,2.4409,2.421,2.3979,2.3732,2.3318,2.2925,2.2624,2.2027,2.1526,2.1536,2.1857,2.1623,2.1679,2.2158,2.2203,2.2019,2.1806,2.1722,2.1329,2.0683,2.0472,2.0055,1.9331,1.8643,1.8116,1.7645,1.6446,1.5525,1.5042,1.4025,1.2972,1.2729,1.2149,1.167,-1.198,-1.1861,-1.2467,-1.2905,-1.3159,-1.3657,-1.3847,-1.3951,-1.3969,-1.3309,-1.2322,-1.1777,-1.1573,-1.1576,-1.1079,-1.1061,-1.1317,-1.1615,-1.1776,-1.1763,-1.1884,-1.1789,-1.1673,-1.1831,-1.1898,-1.196,-1.1779,-1.1643,-1.1353,-0.8185,-0.6456,-0.6479,-0.364,-0.0625,0.2073,0.459,0.7511,1.069,0.8329,0.8329,1.1037,1.679,1.9767,1.9757,2.2671,2.4173,2.4393,2.4561,2.4704,2.4842,2.496,2.5107,2.5254,2.5445,2.5564,2.56,2.5634,2.5655,2.5698,2.5701,2.5701,2.5668,2.561,2.5499,2.5281,2.533,2.5313,2.5212,2.5212,2.5201,2.5198,2.5134,2.5025,2.4818,2.4746,2.4623,2.4497,2.4479,2.4495,2.453,2.453,2.4373,2.4115,2.3978,2.3667,2.3146,2.2712,2.2271,2.1873,2.1681,2.1593,2.1824,2.2045,2.2254,2.2435,2.2425,2.2257,2.1955,2.1712,2.1348,2.066,2.0258,1.9656,1.9069,1.8452,1.7744,1.7145,1.6171,1.5332,1.4659,1.3919,1.3123,1.2793,1.2325,1.1774,-1.3195,-1.2917,-1.3588,-1.3828,-1.3892,-1.4646,-1.4984,-1.5044,-1.5292,-1.4482,-1.3107,-1.2455,-1.2236,-1.2217,-1.1781,-1.1797,-1.2276,-1.2612,-1.2778,-1.2749,-1.2738,-1.2622,-1.2314,-1.1321,-1.0609,-1.037,-0.9049,-0.821,-0.7548,-0.3014,-0.0586,0.0042,0.5291,0.8299,0.8544,0.9647,1.245,1.6635,1.718,1.7203,1.7101,2.1447,2.3732,2.3813,2.3917,2.4057,2.4266,2.4476,2.4657,2.4768,2.4879,2.5037,2.5215,2.5385,2.5498,2.5582,2.5779,2.6007,2.6242,2.6286,2.6283,2.6243,2.597,2.5803,2.5784,2.5549,2.5371,2.5321,2.5264,2.5212,2.5138,2.5068,2.4987,2.487,2.4734,2.4626,2.4547,2.4678,2.4827,2.4843,2.4774,2.4635,2.4295,2.3946,2.3473,2.2824,2.2281,2.1903,2.1802,2.2003,2.2147,2.2024,2.2462,2.2757,2.2479,2.2422,2.2267,2.1888,2.1458,2.0957,2.0459,1.9759,1.9198,1.8697,1.805,1.7357,1.6513,1.5716,1.5071,1.4535,1.3782,1.3083,1.2618,1.2342,1.1929,-1.4854,-1.4503,-1.4586,-1.4837,-1.5159,-1.5636,-1.5746,-1.5484,-1.5021,-1.4864,-1.3968,-1.4183,-1.3589,-1.369,-1.2923,-1.2538,-1.2783,-1.3442,-1.3057,-1.2707,-1.3134,-1.3079,-1.1865,-0.7253,-0.4809,-0.4133,0.058,0.2716,0.2752,0.4547,0.5615,0.6697,1.2378,1.5583,1.629,2.0883,2.3537,2.3566,2.3753,2.349,2.2858,2.3275,2.3611,2.3804,2.3915,2.4037,2.4135,2.4424,2.4639,2.4712,2.4981,2.516,2.5322,2.5406,2.5461,2.5596,2.6269,2.7051,2.7823,2.803,2.791,2.7927,2.7089,2.664,2.6566,2.5924,2.5445,2.533,2.5303,2.519,2.5043,2.505,2.498,2.4783,2.4757,2.4726,2.4743,2.5305,2.5772,2.5686,2.556,2.5355,2.4887,2.3979,2.3063,2.2439,2.2056,2.1892,2.2021,2.2563,2.2828,2.2519,2.2566,2.2765,2.2893,2.2515,2.1969,2.1431,2.0944,2.0446,1.985,1.946,1.9146,1.8321,1.76,1.7045,1.6423,1.5659,1.4801,1.4459,1.3672,1.2657,1.2172,1.209,1.1977,-1.5673,-1.5347,-1.5997,-1.6537,-1.6907,-1.6869,-1.4395,-1.0685,-1.0294,-0.7652,-0.3565,-0.3,-0.6975,-1.369,-0.9405,-0.7408,-0.7332,-0.3664,-0.176,-0.1445,-0.1621,-0.1653,-0.1177,0.0919,0.2203,0.2333,0.5322,0.6671,0.7192,1.0421,1.4259,1.7869,2.0714,2.1965,2.2463,2.4619,2.5696,2.5512,2.5476,2.5351,2.5049,2.4055,2.3594,2.3771,2.3876,2.4075,2.4266,2.4476,2.4876,2.5465,2.5729,2.6144,2.6751,2.6843,2.6917,2.7057,2.7439,2.762,2.751,2.7517,2.7276,2.6708,2.6345,2.61,2.6016,2.5669,2.5404,2.5321,2.5274,2.519,2.513,2.5013,2.4865,2.4772,2.4711,2.4851,2.5288,2.5606,2.5963,2.6284,2.6262,2.5784,2.4843,2.3545,2.2616,2.2192,2.1957,2.1917,2.2148,2.2547,2.2736,2.2702,2.261,2.257,2.2725,2.2463,2.1827,2.1286,2.0944,2.0497,1.9656,1.9251,1.8881,1.8104,1.7379,1.6592,1.5894,1.5249,1.4523,1.4042,1.3502,1.2553,1.21,1.2259,1.2213,-1.707,-1.6957,-1.77,-1.6804,-1.4944,-1.4586,-1.0325,-0.4009,-0.3237,0.0099,0.4974,0.5611,0.0618,-0.6875,-0.3091,-0.0949,-0.0261,0.4041,0.6294,0.6519,0.6329,0.6294,0.6608,0.8507,0.9165,0.9534,1.1612,1.2626,1.2918,1.6933,2.1801,2.5631,2.6189,2.6383,2.6669,2.6626,2.6543,2.6417,2.6339,2.6273,2.6002,2.49,2.4338,2.4535,2.4395,2.4556,2.5096,2.5267,2.5672,2.6408,2.6637,2.7063,2.7731,2.7841,2.7933,2.807,2.8194,2.8012,2.7354,2.7343,2.7156,2.668,2.6442,2.6273,2.6142,2.5904,2.5707,2.5659,2.5518,2.5454,2.5406,2.5262,2.5133,2.5095,2.515,2.5475,2.5774,2.6094,2.6619,2.6982,2.6591,2.5823,2.4491,2.3426,2.2811,2.2325,2.2233,2.2054,2.22,2.2399,2.2646,2.27,2.2585,2.25,2.2402,2.203,2.1589,2.1188,2.0845,2.0245,1.954,1.9081,1.8441,1.7556,1.6899,1.6167,1.5325,1.4671,1.3946,1.3047,1.2623,1.2577,1.2149,1.2351,1.2181,-1.9562,-1.9319,-1.9412,-1.4091,-0.7193,-0.7036,-0.2544,0.4666,0.5947,0.6624,0.7146,0.8019,0.7236,0.5734,0.6067,0.5558,0.5697,0.6535,0.7179,0.7282,0.7184,0.669,0.6781,1.2541,1.569,1.628,2.0751,2.3562,2.4185,2.553,2.6543,2.703,2.7549,2.8031,2.8154,2.8196,2.7893,2.7133,2.7155,2.6862,2.6213,2.6108,2.618,2.6397,2.5735,2.578,2.6673,2.7048,2.7214,2.7327,2.7527,2.7713,2.7838,2.7876,2.799,2.81,2.8191,2.8232,2.8189,2.8203,2.8418,2.8835,2.8184,2.7892,2.7584,2.6911,2.6465,2.6436,2.6238,2.6077,2.6099,2.6054,2.5973,2.5916,2.6481,2.6538,2.6015,2.7046,2.7742,2.7548,2.6615,2.5322,2.3727,2.389,2.3433,2.285,2.2913,2.2936,2.23,2.2528,2.267,2.2556,2.2483,2.2466,2.2324,2.1732,2.1188,2.0746,2.0156,1.954,1.8951,1.8375,1.7655,1.6968,1.6296,1.5545,1.4758,1.3974,1.3178,1.2632,1.2632,1.2503,1.2149,1.2104,1.1922,-1.68,-1.1333,-0.5875,-0.1754,0.0862,0.0969,0.5233,1.2071,1.2876,1.5496,1.8933,2.0136,2.0196,1.9514,1.9293,1.659,1.2834,1.6635,1.8752,1.8794,1.8999,1.9224,1.9633,2.2136,2.3293,2.3797,2.5836,2.7108,2.7263,2.7638,2.787,2.7923,2.8165,2.8362,2.851,2.8562,2.8406,2.8227,2.8233,2.8166,2.7962,2.7548,2.7703,2.8484,2.7063,2.6525,2.7167,2.7213,2.7551,2.8255,2.8393,2.8721,2.9276,2.9503,2.961,2.9729,2.9819,2.9611,2.9137,2.906,2.8855,2.852,2.8283,2.8038,2.7815,2.7514,2.7259,2.7109,2.7006,2.7062,2.7347,2.709,2.672,2.6723,2.6877,2.7121,2.7173,2.759,2.7875,2.7623,2.6525,2.509,2.4259,2.3785,2.3504,2.3038,2.292,2.2854,2.2731,2.2585,2.2452,2.2566,2.2217,2.1841,2.1902,2.1348,2.0746,2.0207,1.9656,1.9081,1.8494,1.8027,1.7368,1.6722,1.5914,1.5041,1.4253,1.3421,1.2637,1.2429,1.2448,1.2521,1.2199,1.2018,1.1716,-0.9176,-0.3403,0.2354,0.6475,0.8868,0.8911,1.3212,1.9845,2.0684,2.3327,2.6992,2.8159,2.8135,2.7606,2.7588,2.4918,2.0306,2.4109,2.601,2.6099,2.6225,2.6418,2.6725,2.71,2.7307,2.7382,2.7748,2.7996,2.8182,2.8309,2.844,2.8474,2.8492,2.8543,2.8662,2.8662,2.8737,2.8834,2.8858,2.8962,2.9045,2.8669,2.8798,2.9401,2.8409,2.7866,2.8175,2.8168,2.8491,2.9141,2.9306,2.964,3.0227,3.051,3.0484,3.0222,3.0281,3.0095,2.9469,2.9203,2.8897,2.851,2.8443,2.8348,2.8184,2.8142,2.802,2.7894,2.7793,2.8034,2.8498,2.8203,2.7737,2.7568,2.7606,2.7695,2.7677,2.7821,2.7673,2.719,2.6464,2.5493,2.4696,2.4361,2.3961,2.3535,2.3264,2.3227,2.2768,2.2579,2.222,2.2426,2.1935,2.141,2.1153,2.0597,2.0446,1.9952,1.9174,1.8602,1.817,1.7655,1.7069,1.6409,1.5548,1.4615,1.3714,1.2894,1.2452,1.2236,1.2342,1.2516,1.2199,1.1915,1.1455,0.3423,0.3893,0.386,0.9835,1.6325,1.6894,2.1329,2.7205,2.8844,2.8694,2.8744,2.9678,2.944,2.9041,2.8992,2.8563,2.7271,2.652,2.628,2.6412,2.643,2.6554,2.6742,2.7085,2.7313,2.7397,2.7694,2.8078,2.8524,2.8594,2.867,2.8717,2.8681,2.8737,2.8905,2.8834,2.8785,2.8797,2.8998,2.9089,2.9048,2.9196,2.94,2.9644,2.9585,2.9666,2.9935,3.0009,2.998,3.0084,3.019,3.0328,3.0472,3.062,3.0224,2.9523,2.9473,2.9429,2.9191,2.877,2.8923,2.9165,2.9291,2.9149,2.9041,2.8925,2.8808,2.8738,2.8631,2.8815,2.9363,2.9288,2.8851,2.8406,2.8645,2.8547,2.7851,2.7875,2.7607,2.6437,2.6199,2.6169,2.5529,2.5141,2.4815,2.4097,2.3911,2.361,2.2553,2.2454,2.2335,2.1908,2.1554,2.1153,2.0497,1.9901,1.9901,1.9747,1.8845,1.8104,1.7843,1.739,1.6765,1.6099,1.5342,1.4434,1.3565,1.285,1.2595,1.2424,1.2562,1.2432,1.2028,1.1582,1.109,1.2613,1.3441,1.905,2.2885,2.5468,2.5373,2.6919,2.8894,2.9451,2.9203,2.8828,2.9491,2.9556,2.9214,2.9255,2.922,2.8946,2.8075,2.7528,2.736,2.7417,2.7267,2.7011,2.7201,2.7788,2.8523,2.8987,2.9512,2.9945,2.9707,2.9555,2.9514,2.9179,2.897,2.9053,2.903,2.9097,2.9123,2.9163,2.9251,2.9455,2.9513,2.9681,2.9924,2.9988,3.0064,3.0152,3.0185,3.0253,3.0316,3.0364,3.0463,3.062,3.0681,3.0565,3.031,3.0328,3.0322,3.0134,2.9913,2.9768,2.9978,2.9963,2.987,2.9746,2.9656,2.9532,2.9441,2.9342,2.942,2.9437,2.9434,2.9184,2.8979,2.9055,2.88,2.8,2.7606,2.6878,2.599,2.5881,2.5563,2.4879,2.4814,2.4705,2.4141,2.38,2.3186,2.2819,2.2264,2.2049,2.1841,2.1444,2.0908,2.0194,1.9579,1.9319,1.9109,1.8321,1.7722,1.7457,1.7123,1.6503,1.5713,1.4971,1.4231,1.3422,1.303,1.2865,1.2663,1.2681,1.2283,1.1674,1.1167,1.0718,2.1247,2.1938,2.7072,2.9396,2.9457,2.9213,2.9167,2.9213,2.9531,2.9331,2.9134,2.9675,2.9831,2.965,2.9773,2.9935,3.0084,2.9808,2.9457,2.8955,2.8492,2.8288,2.8157,2.8408,2.8953,2.9776,3.0044,3.0486,3.1125,3.0706,3.0508,3.0551,3.0189,3.0033,3.0023,3.0095,3.0049,2.9813,2.98,2.9752,2.9701,2.9698,2.9836,3.0064,3.0132,3.0199,3.0248,3.0292,3.0348,3.0422,3.047,3.0568,3.0677,3.073,3.0723,3.071,3.0703,3.065,3.051,3.0394,3.0414,3.0314,3.0273,3.0196,3.0045,3.0015,2.9869,2.9662,2.957,2.9531,2.9353,2.9064,2.8997,2.8975,2.8855,2.854,2.7964,2.7289,2.6639,2.6,2.5837,2.5407,2.4884,2.4508,2.4385,2.3979,2.3508,2.2949,2.2723,2.2156,2.1888,2.1684,2.1348,2.0696,1.9876,1.9307,1.8857,1.8375,1.7788,1.7412,1.7078,1.6786,1.6265,1.5355,1.4572,1.4063,1.3314,1.3451,1.3396,1.3158,1.2777,1.229,1.1722,1.0937,1.047,2.8795,2.8951,2.9059,2.9167,2.9213,2.9305,2.938,2.9425,2.9913,2.9984,2.9908,3.0225,3.0452,3.0477,3.0606,3.0903,3.1261,3.1462,3.1286,3.0734,3.0041,2.9643,2.9929,2.9869,3.0159,3.073,3.0702,3.1011,3.1593,3.1419,3.1483,3.1733,3.1449,3.1431,3.1374,3.1637,3.1182,3.0404,3.0599,3.0396,2.9737,2.9803,2.9965,3.0109,3.0228,3.0343,3.0389,3.0578,3.0608,3.0539,3.0628,3.0696,3.0714,3.0741,3.0726,3.0637,3.0607,3.0482,3.0375,3.037,3.0344,3.0234,3.0196,3.0161,3.0064,2.9888,2.9734,2.9514,2.9395,2.9291,2.9042,2.87,2.8428,2.835,2.8306,2.8012,2.7409,2.6939,2.6489,2.6144,2.5977,2.5721,2.5057,2.4664,2.4173,2.3752,2.3334,2.2754,2.231,2.1888,2.1541,2.1348,2.1166,2.0547,1.9773,1.9226,1.8709,1.7952,1.7468,1.719,1.674,1.6389,1.5911,1.505,1.444,1.3895,1.3662,1.3837,1.3707,1.3239,1.2804,1.2327,1.1643,1.0797,1.0257,2.9121,2.9198,2.9364,2.9531,2.9592,2.9858,2.9826,2.9722,3.006,3.0189,3.0172,3.0384,3.0658,3.0925,3.1179,3.1295,3.1466,3.1802,3.1842,3.1636,3.1603,3.0951,3.0348,2.9893,3.0155,3.0912,3.1265,3.1576,3.2279,3.2341,3.2465,3.259,3.2125,3.1592,3.1233,3.188,3.1412,3.0375,3.0787,3.0743,3.0089,3.0011,3.0114,3.0253,3.0382,3.046,3.055,3.1222,3.1251,3.0697,3.0721,3.0762,3.0751,3.0689,3.0619,3.0537,3.0472,3.0372,3.0278,3.0248,3.0163,3.0007,2.9977,2.9953,2.9874,2.9663,2.9513,2.9375,2.9191,2.8906,2.8585,2.8376,2.8094,2.766,2.7613,2.7512,2.7178,2.6774,2.6349,2.603,2.5535,2.5098,2.4623,2.4105,2.361,2.3246,2.2799,2.2296,2.1888,2.165,2.1361,2.1118,2.0871,2.0308,1.9747,1.9239,1.856,1.7634,1.719,1.7022,1.6513,1.5989,1.54,1.4662,1.4646,1.42,1.4234,1.4313,1.3874,1.3423,1.2879,1.2303,1.1328,1.0506,1.0104,2.9454,2.9589,2.9766,2.987,2.993,3.0119,3.0087,3.0027,3.0326,3.0384,3.0384,3.0651,3.0878,3.1061,3.1351,3.1524,3.16,3.1966,3.2197,3.2335,3.2553,3.225,3.1607,3.1135,3.1415,3.1936,3.2237,3.2676,3.3147,3.3321,3.3473,3.3512,3.2919,3.2366,3.2185,3.2145,3.1836,3.081,3.0978,3.0909,3.0247,3.0188,3.0285,3.0394,3.0528,3.0674,3.117,3.2042,3.228,3.1843,3.1543,3.1284,3.113,3.0769,3.0516,3.0402,3.0325,3.0254,3.0099,3.0071,3.0015,2.9872,2.9769,2.9681,2.9589,2.9394,2.9209,2.8911,2.8724,2.8453,2.8112,2.7918,2.7619,2.7161,2.6905,2.6824,2.6825,2.6505,2.6049,2.5572,2.5114,2.4599,2.4063,2.3523,2.3127,2.2709,2.2249,2.1888,2.1554,2.1361,2.1118,2.0822,2.0573,2.0105,1.954,1.9028,1.8333,1.7401,1.6684,1.657,1.6228,1.5642,1.5245,1.4775,1.4734,1.4684,1.4625,1.4488,1.4182,1.3683,1.3016,1.2175,1.1256,1.0364,0.9963,2.9941,3.0011,3.0172,3.0274,3.0231,3.0274,3.0316,3.0316,3.0658,3.0716,3.0692,3.1055,3.1213,3.1134,3.1579,3.1765,3.1984,3.2283,3.2621,3.293,3.3183,3.3094,3.2979,3.2741,3.2837,3.3067,3.3515,3.3652,3.3777,3.3998,3.4379,3.4333,3.3749,3.3431,3.3066,3.2811,3.2105,3.1238,3.123,3.1016,3.0459,3.034,3.0518,3.0857,3.1146,3.1612,3.2294,3.3007,3.3418,3.3535,3.2611,3.1996,3.1744,3.1079,3.0554,3.0369,3.0265,3.0071,2.9921,2.9853,2.9822,2.9718,2.9494,2.9377,2.9293,2.906,2.8724,2.8453,2.8192,2.7964,2.7666,2.7321,2.7004,2.6674,2.6315,2.6156,2.6085,2.6033,2.5652,2.4934,2.4775,2.4188,2.3653,2.3172,2.2859,2.2296,2.1888,2.1568,2.1277,2.1033,2.0723,2.0409,2.0156,1.9901,1.9331,1.8762,1.805,1.7224,1.6275,1.5884,1.5826,1.543,1.5205,1.498,1.4862,1.4793,1.4725,1.4588,1.4332,1.3688,1.2896,1.211,1.1326,1.0431,0.9857,3.0225,3.0251,3.0559,3.0617,3.0651,3.0871,3.0814,3.0651,3.0975,3.1055,3.0975,3.1406,3.1671,3.1711,3.2055,3.2318,3.237,3.2639,3.3011,3.3375,3.3491,3.3615,3.3506,3.314,3.2793,3.2944,3.3245,3.3471,3.3711,3.4365,3.4792,3.4756,3.4049,3.3451,3.2917,3.268,3.2019,3.0989,3.1212,3.1153,3.0642,3.0579,3.0923,3.1584,3.2304,3.3096,3.382,3.4163,3.4525,3.4444,3.3138,3.2048,3.2242,3.1168,3.0567,3.0634,3.0281,2.9921,2.9805,2.9626,2.9476,2.9435,2.9193,2.9045,2.8975,2.8603,2.835,2.8156,2.7886,2.7552,2.7195,2.6774,2.647,2.6227,2.5941,2.561,2.5269,2.5176,2.5075,2.4719,2.4131,2.358,2.3275,2.2632,2.2263,2.1841,2.1568,2.1242,2.0997,2.0736,2.0372,2.0003,1.9631,1.9319,1.8886,1.8255,1.7545,1.6888,1.6046,1.5546,1.543,1.5371,1.5147,1.5088,1.498,1.4911,1.4843,1.4478,1.4231,1.345,1.2695,1.2038,1.1261,1.0439,0.9929,3.0699,3.074,3.0925,3.0942,3.0935,3.1308,3.1329,3.1196,3.1449,3.1524,3.147,3.1785,3.193,3.2002,3.2352,3.2557,3.2672,3.3086,3.3386,3.3615,3.377,3.3935,3.3981,3.3691,3.3438,3.3432,3.3732,3.393,3.4183,3.4529,3.4773,3.4475,3.3792,3.2953,3.2225,3.1973,3.1284,3.0728,3.0865,3.0926,3.0645,3.1025,3.1646,3.2518,3.3338,3.3966,3.3886,3.4211,3.4279,3.3907,3.264,3.1955,3.2474,3.1506,3.0829,3.0478,3.0124,2.9699,2.9551,2.9397,2.9193,2.902,2.879,2.856,2.8384,2.8057,2.784,2.7666,2.7444,2.7166,2.6657,2.6297,2.5977,2.5742,2.5481,2.5059,2.4608,2.4664,2.4599,2.423,2.3696,2.3113,2.2632,2.217,2.1793,2.1506,2.1313,2.1046,2.0586,2.0334,1.9965,1.9592,1.9109,1.8738,1.8298,1.7699,1.6933,1.6436,1.5874,1.5536,1.542,1.5303,1.5254,1.5196,1.5137,1.4902,1.4775,1.4419,1.3923,1.3228,1.2494,1.19,1.1305,1.0602,1.0203,3.1247,3.1308,3.1351,3.1295,3.1274,3.1634,3.1746,3.1691,3.1913,3.1896,3.1986,3.2039,3.2109,3.2179,3.257,3.2752,3.3019,3.3408,3.3807,3.3928,3.4099,3.4265,3.4319,3.4433,3.4438,3.4375,3.4496,3.4639,3.4737,3.4831,3.4694,3.4165,3.33,3.2781,3.1956,3.1149,3.08,3.0643,3.0854,3.0991,3.1093,3.1709,3.2543,3.3413,3.4225,3.4247,3.3898,3.3916,3.3836,3.2897,3.1981,3.1913,3.1962,3.1584,3.0864,3.0014,2.9777,2.9474,2.9275,2.9064,2.8795,2.8529,2.8264,2.8047,2.7823,2.7636,2.743,2.7213,2.6989,2.6657,2.6068,2.5742,2.5481,2.5253,2.4902,2.4405,2.4085,2.4282,2.3921,2.348,2.3083,2.2632,2.2263,2.1855,2.1458,2.1118,2.0983,2.0736,2.0321,1.9926,1.9552,1.9226,1.8804,1.8093,1.76,1.7101,1.6379,1.6036,1.5584,1.5526,1.542,1.5362,1.5303,1.5294,1.5235,1.4942,1.4588,1.4231,1.3674,1.2923,1.2493,1.2048,1.1403,1.0751,1.0431,3.1385,3.1709,3.1709,3.1819,3.1984,3.2002,3.1913,3.1858,3.2003,3.1985,3.202,3.2335,3.2519,3.2669,3.3099,3.3484,3.3698,3.3979,3.4184,3.4307,3.4464,3.4551,3.4754,3.4889,3.4981,3.5034,3.5034,3.5051,3.4961,3.4634,3.4716,3.4769,3.3807,3.2996,3.2693,3.2159,3.143,3.1207,3.1461,3.1742,3.187,3.2495,3.3298,3.4135,3.4905,3.4707,3.411,3.3961,3.3695,3.2824,3.2457,3.1891,3.1312,3.054,3.0245,3.015,2.9695,2.9233,2.8975,2.8578,2.8376,2.8183,2.7869,2.7642,2.7491,2.7307,2.7036,2.6873,2.6488,2.6052,2.5556,2.5214,2.4942,2.4664,2.4214,2.3724,2.345,2.3275,2.3084,2.2709,2.2449,2.217,2.1841,2.1506,2.1166,2.0772,2.0523,2.0271,1.9914,1.95,1.904,1.8762,1.8494,1.7667,1.6909,1.64,1.5836,1.5758,1.5468,1.5468,1.542,1.542,1.5352,1.5235,1.5059,1.4765,1.441,1.3983,1.3502,1.2879,1.2541,1.2196,1.1713,1.115,1.0679,3.1783,3.191,3.1982,3.2001,3.2091,3.2249,3.23,3.2318,3.2601,3.2745,3.284,3.31,3.3277,3.3335,3.3597,3.3891,3.4093,3.4325,3.4483,3.4612,3.4773,3.4945,3.5105,3.5203,3.5273,3.5325,3.5364,3.5369,3.5372,3.5072,3.489,3.468,3.4087,3.3665,3.3284,3.2864,3.2482,3.2246,3.245,3.2456,3.2226,3.2883,3.3624,3.4372,3.4923,3.4563,3.3184,3.3231,3.2615,3.1531,3.108,3.0732,3.0321,2.9926,2.9661,2.9781,2.9388,2.8925,2.8578,2.8183,2.7926,2.7619,2.74,2.723,2.7053,2.6774,2.6505,2.6229,2.5924,2.5443,2.5114,2.4623,2.4256,2.3921,2.345,2.3068,2.2709,2.2434,2.2249,2.2109,2.203,2.1793,2.1458,2.1118,2.0822,2.0459,2.0118,1.9811,1.9488,1.9028,1.8572,1.8127,1.7788,1.7123,1.6457,1.6009,1.5604,1.5478,1.542,1.542,1.5294,1.5235,1.5118,1.4942,1.4765,1.4469,1.3992,1.3502,1.3147,1.2842,1.2512,1.2219,1.2034,1.163,1.1105,3.2161,3.2214,3.2335,3.2351,3.2368,3.2699,3.2876,3.2952,3.3314,3.3514,3.3607,3.3795,3.388,3.3956,3.408,3.4242,3.436,3.4632,3.4753,3.4832,3.5054,3.5242,3.5311,3.5391,3.5451,3.5516,3.5557,3.5588,3.5477,3.5198,3.4982,3.4878,3.4698,3.4257,3.3715,3.3619,3.3571,3.3379,3.334,3.2948,3.2641,3.2898,3.341,3.4002,3.4725,3.4032,3.2349,3.2629,3.2172,3.1083,3.0282,2.9907,2.9756,2.9407,2.9169,2.9082,2.885,2.8515,2.812,2.7811,2.7504,2.7227,2.7103,2.6858,2.6573,2.6229,2.5835,2.5427,2.5214,2.4879,2.4502,2.4105,2.3681,2.3201,2.2875,2.2526,2.2217,2.1935,2.1698,2.1602,2.165,2.1348,2.097,2.0772,2.0472,2.0055,1.9656,1.9226,1.8869,1.8494,1.803,1.7412,1.6965,1.6457,1.6009,1.5836,1.5546,1.542,1.5352,1.5352,1.5118,1.4942,1.4765,1.4519,1.4291,1.3992,1.3511,1.3208,1.2911,1.2674,1.249,1.2328,1.2242,1.1827,1.1312,3.235,3.2885,3.296,3.3241,3.3597,3.3652,3.3723,3.3723,3.3776,3.3828,3.388,3.3981,3.408,3.4195,3.4486,3.4713,3.487,3.4945,3.5019,3.5091,3.5223,3.5326,3.5391,3.5444,3.557,3.565,3.5687,3.5688,3.5581,3.5027,3.5084,3.5363,3.4967,3.4549,3.4547,3.4336,3.4081,3.3545,3.338,3.3236,3.3096,3.3067,3.2995,3.3191,3.3711,3.3662,3.2504,3.2745,3.2657,3.1788,3.0878,3.0469,3.0165,2.9278,2.8731,2.8511,2.8368,2.8201,2.7719,2.74,2.7213,2.7021,2.6858,2.6573,2.6139,2.5799,2.5443,2.502,2.4918,2.4542,2.4006,2.3824,2.3421,2.292,2.248,2.2249,2.1983,2.1568,2.1326,2.1068,2.1068,2.0759,2.0359,2.0271,2.0131,1.9656,1.9186,1.8709,1.8224,1.7854,1.7479,1.6864,1.6513,1.6056,1.5836,1.5604,1.5488,1.542,1.5294,1.5177,1.4942,1.4647,1.4172,1.3932,1.3752,1.3571,1.3268,1.2972,1.2744,1.2621,1.2498,1.256,1.2552,1.2009,1.1381,3.3322,3.3495,3.3524,3.3678,3.388,3.3906,3.3931,3.3981,3.4128,3.4223,3.4315,3.4508,3.4612,3.4674,3.4832,3.4945,3.5092,3.5141,3.5174,3.5273,3.5369,3.5438,3.5512,3.5581,3.5676,3.5768,3.58,3.5812,3.5641,3.5535,3.556,3.5717,3.555,3.5369,3.5211,3.4888,3.4475,3.3853,3.3219,3.2986,3.3267,3.2806,3.2172,3.2081,3.3312,3.3023,3.2439,3.2958,3.2918,3.2079,3.1166,3.0801,3.0527,2.9853,2.9183,2.9034,2.8641,2.8092,2.7442,2.7169,2.6973,2.6775,2.6521,2.6087,2.5615,2.5329,2.5036,2.4549,2.463,2.4245,2.3595,2.3436,2.2994,2.254,2.2109,2.1841,2.1602,2.1326,2.1046,2.0736,2.0372,2.0067,1.9811,1.9604,1.946,1.9146,1.8655,1.817,1.7623,1.7123,1.674,1.6306,1.6066,1.5768,1.571,1.5546,1.5478,1.5294,1.501,1.4883,1.4647,1.435,1.3812,1.345,1.3216,1.3033,1.2911,1.2797,1.2683,1.2621,1.2621,1.256,1.2482,1.1798,1.0988,3.424,3.4195,3.4144,3.4128,3.42,3.4218,3.4246,3.4311,3.4489,3.4632,3.4753,3.4927,3.5057,3.511,3.5072,3.516,3.5242,3.5262,3.5292,3.5378,3.5495,3.559,3.565,3.5718,3.58,3.5887,3.5871,3.5884,3.5886,3.5837,3.5806,3.5886,3.582,3.5813,3.5633,3.5052,3.4399,3.3856,3.3093,3.3068,3.3301,3.2256,3.1762,3.1977,3.2564,3.2878,3.2015,3.2777,3.3041,3.246,3.1521,3.1093,3.0833,3.0231,2.9664,2.9344,2.8864,2.8148,2.7486,2.7046,2.6776,2.6435,2.6066,2.5594,2.5176,2.4974,2.4815,2.4317,2.4234,2.3967,2.3538,2.3083,2.2663,2.2217,2.1759,2.1423,2.1109,2.0938,2.0625,2.0182,1.9823,1.946,1.9198,1.8881,1.8732,1.8572,1.8139,1.7634,1.7067,1.656,1.6239,1.5961,1.5846,1.5652,1.5594,1.5478,1.542,1.5177,1.4824,1.4469,1.4172,1.3872,1.345,1.3094,1.2797,1.2736,1.2736,1.2683,1.2621,1.2621,1.256,1.2436,1.2235,1.1525,1.0641,3.487,3.5001,3.4734,3.4773,3.4964,3.502,3.4982,3.4927,3.4982,3.5001,3.5019,3.5091,3.5143,3.5157,3.5254,3.5311,3.5378,3.5444,3.5469,3.5516,3.5631,3.5702,3.5768,3.5812,3.5871,3.5894,3.5897,3.5898,3.5898,3.5898,3.5898,3.5891,3.5867,3.5845,3.5548,3.4929,3.4117,3.3682,3.3294,3.3185,3.291,3.2103,3.1659,3.2031,3.2354,3.2562,3.2978,3.3295,3.3316,3.2875,3.2065,3.1466,3.119,3.0589,3.0076,2.9695,2.9081,2.841,2.7885,2.7175,2.6465,2.6082,2.5712,2.5342,2.4974,2.4701,2.4513,2.4372,2.4356,2.3938,2.3437,2.2933,2.2747,2.2311,2.1956,2.1488,2.1112,2.0641,2.031,1.9706,1.9316,1.9052,1.8679,1.8398,1.829,1.8127,1.7678,1.7179,1.6729,1.6228,1.5951,1.573,1.573,1.5604,1.5478,1.5362,1.5177,1.4883,1.4588,1.4043,1.3623,1.3268,1.3033,1.292,1.2683,1.2621,1.2621,1.2621,1.2621,1.2621,1.2498,1.2182,1.1608,1.0871,1.0026,3.5124,3.5207,3.5102,3.5089,3.5092,3.5092,3.5094,3.5057,3.5038,3.5126,3.5223,3.5311,3.5364,3.5405,3.5405,3.5477,3.5519,3.5588,3.5601,3.5657,3.5748,3.5816,3.5838,3.5862,3.5896,3.5897,3.5894,3.5884,3.5884,3.5857,3.5806,3.5792,3.5768,3.573,3.5405,3.4814,3.4075,3.3641,3.3389,3.3115,3.3293,3.2367,3.192,3.2147,3.2465,3.2281,3.2162,3.2548,3.2621,3.2484,3.2143,3.1848,3.1481,3.0867,3.0489,3.0224,2.9532,2.8921,2.8478,2.7793,2.7109,2.6308,2.5926,2.5496,2.5026,2.5076,2.4829,2.4709,2.4716,2.4446,2.3779,2.3567,2.3343,2.2839,2.2299,2.1754,2.1133,2.0539,1.9895,1.9271,1.897,1.8744,1.8356,1.7963,1.7854,1.7689,1.7179,1.6729,1.6332,1.5999,1.5778,1.5672,1.5614,1.5614,1.5488,1.5245,1.4951,1.4588,1.4291,1.3752,1.3268,1.2972,1.2744,1.2621,1.2653,1.2685,1.2685,1.2637,1.2498,1.2313,1.1996,1.1608,1.0975,1.0218,0.9512,3.511,3.5301,3.4826,3.4672,3.4761,3.4814,3.4776,3.4742,3.477,3.504,3.5345,3.5451,3.5523,3.5577,3.56,3.5601,3.5668,3.5714,3.5749,3.5797,3.5834,3.5879,3.5873,3.5859,3.5894,3.5879,3.589,3.5888,3.582,3.5779,3.569,3.5616,3.5568,3.5524,3.5361,3.4826,3.424,3.3729,3.3629,3.3336,3.3753,3.2874,3.2459,3.244,3.2366,3.2236,3.2009,3.219,3.1953,3.1903,3.1815,3.1777,3.144,3.1083,3.0774,3.0506,3.0103,2.9486,2.8968,2.8037,2.7324,2.6654,2.6188,2.5644,2.5346,2.5536,2.536,2.4698,2.5052,2.5077,2.4146,2.3884,2.3409,2.2837,2.2459,2.1917,2.0932,2.0225,1.9461,1.8827,1.8576,1.8367,1.7854,1.7468,1.7245,1.7067,1.6786,1.6446,1.6171,1.5884,1.5662,1.5604,1.5604,1.5604,1.5556,1.5128,1.4715,1.43,1.3932,1.3459,1.3042,1.2752,1.2645,1.2637,1.2677,1.2687,1.275,1.2806,1.2445,1.1941,1.1498,1.0989,1.0471,0.9773,0.9268,3.485,3.5345,3.3826,3.3493,3.3953,3.4139,3.416,3.4139,3.4313,3.4809,3.5458,3.5519,3.557,3.5621,3.5687,3.573,3.5791,3.5864,3.5886,3.589,3.5893,3.5957,3.5934,3.5923,3.5887,3.5899,3.5875,3.5807,3.5706,3.5669,3.554,3.538,3.529,3.5282,3.5287,3.5152,3.449,3.3712,3.4163,3.4161,3.3888,3.316,3.3025,3.2934,3.2192,3.1978,3.2133,3.1658,3.1352,3.128,3.1251,3.1022,3.0463,3.0366,3.0278,3.0302,3.0021,2.9491,2.89,2.734,2.6844,2.6904,2.6493,2.6025,2.5848,2.5864,2.5694,2.4985,2.4945,2.4811,2.4289,2.3933,2.3443,2.2937,2.2622,2.1898,2.0902,1.9897,1.9183,1.8538,1.8228,1.792,1.7357,1.6909,1.6627,1.6457,1.6285,1.6114,1.5884,1.5778,1.5604,1.5604,1.5604,1.543,1.5371,1.4951,1.4538,1.4061,1.364,1.3164,1.2907,1.2779,1.2709,1.2693,1.2814,1.3036,1.3068,1.3012,1.2348,1.1633,1.0821,1.0238,0.9786,0.9466,0.9145,3.5059,3.4738,3.4151,3.3382,3.272,3.3153,3.3354,3.3439,3.406,3.4845,3.5535,3.5721,3.5813,3.5856,3.5825,3.5848,3.5899,3.5942,3.5974,3.5957,3.5956,3.5968,3.5971,3.5908,3.5855,3.5781,3.5764,3.5706,3.5577,3.5512,3.54,3.5215,3.4978,3.4926,3.498,3.4889,3.4447,3.417,3.4162,3.4056,3.3913,3.3413,3.3176,3.3382,3.2367,3.1947,3.2044,3.1249,3.0855,3.0733,3.0704,3.0432,3.0269,3.0361,3.0149,3.013,2.9842,2.9496,2.8914,2.7889,2.7055,2.698,2.6863,2.6426,2.6138,2.6208,2.5834,2.5416,2.5274,2.5075,2.4614,2.4173,2.3695,2.3192,2.2674,2.1731,2.0775,1.9817,1.8969,1.8389,1.792,1.7357,1.674,1.6446,1.6171,1.5999,1.5884,1.5768,1.5594,1.572,1.5672,1.5672,1.5614,1.5371,1.5137,1.4715,1.4234,1.3796,1.3336,1.2805,1.2685,1.2814,1.2885,1.2949,1.3187,1.341,1.3273,1.2959,1.2018,1.1199,1.0481,0.9862,0.9472,0.9408,0.9344,3.4841,3.4052,3.3721,3.2971,3.2065,3.2453,3.2645,3.2846,3.392,3.484,3.5349,3.5717,3.5952,3.5968,3.5955,3.5917,3.5957,3.5995,3.5972,3.596,3.5929,3.5903,3.5894,3.584,3.5729,3.5669,3.5631,3.5557,3.5386,3.5326,3.5146,3.4905,3.463,3.4524,3.4526,3.4423,3.4311,3.4048,3.3854,3.3688,3.3468,3.3171,3.2996,3.2818,3.2299,3.1757,3.1393,3.0959,3.0484,3.0353,3.0277,3.0174,3.0349,3.0194,2.9924,2.9754,2.9364,2.8979,2.8294,2.7998,2.7195,2.6872,2.701,2.6773,2.6384,2.6411,2.5842,2.5519,2.5655,2.5121,2.4456,2.4118,2.3715,2.3234,2.2736,2.1743,2.0637,1.9724,1.8975,1.8328,1.7634,1.6941,1.6306,1.5999,1.5768,1.5594,1.542,1.543,1.543,1.5556,1.5682,1.5624,1.5576,1.5352,1.498,1.4419,1.4012,1.3506,1.317,1.2813,1.2973,1.3203,1.3235,1.3298,1.3553,1.3628,1.3345,1.2821,1.1906,1.1012,1.02,0.9664,0.9215,0.9221,0.935,3.4155,3.332,3.248,3.2108,3.2027,3.1958,3.2001,3.2261,3.3898,3.4621,3.4778,3.5659,3.5974,3.6015,3.5995,3.5948,3.5903,3.5962,3.5919,3.5869,3.584,3.5813,3.5749,3.5679,3.559,3.5527,3.5456,3.5334,3.5197,3.5032,3.4813,3.4492,3.4232,3.4037,3.3943,3.3828,3.3795,3.3616,3.3421,3.3225,3.2988,3.2687,3.2555,3.2297,3.1812,3.155,3.1267,3.1033,3.0614,3.0459,3.0409,3.0075,2.9799,2.9486,2.9403,2.9136,2.8638,2.8091,2.7685,2.7478,2.7141,2.6711,2.647,2.6446,2.6358,2.6199,2.5612,2.5039,2.4854,2.4456,2.4021,2.3741,2.3446,2.3085,2.2807,2.1787,2.0594,1.9773,1.9103,1.8453,1.7733,1.6992,1.6304,1.5878,1.5683,1.5478,1.5439,1.5537,1.5586,1.5624,1.5624,1.5508,1.541,1.5332,1.4868,1.4326,1.3941,1.357,1.3412,1.3139,1.3378,1.3545,1.3592,1.3696,1.3866,1.3805,1.3253,1.258,1.18,1.0902,1.0091,0.9728,0.935,0.9356,0.9496,3.3633,3.3318,3.2453,3.1752,3.121,3.115,3.1483,3.2226,3.3319,3.4062,3.4743,3.5563,3.5834,3.6016,3.6007,3.5888,3.5866,3.5844,3.5807,3.5764,3.5735,3.5697,3.5631,3.5557,3.5483,3.5359,3.5239,3.5076,3.4794,3.4634,3.4269,3.3847,3.3707,3.3458,3.3225,3.3027,3.3087,3.3087,3.2921,3.2734,3.2573,3.2318,3.2126,3.1809,3.1669,3.1485,3.1319,3.0942,3.0583,3.052,3.0067,2.9632,2.9576,2.939,2.9198,2.8606,2.8094,2.761,2.7405,2.7121,2.6813,2.6483,2.6074,2.592,2.5849,2.5673,2.5203,2.4624,2.4266,2.3975,2.3492,2.3207,2.298,2.2786,2.2372,2.1451,2.0379,1.978,1.912,1.8276,1.7541,1.7063,1.6326,1.5979,1.5822,1.5557,1.5498,1.5664,1.5743,1.5802,1.5713,1.5555,1.5444,1.5378,1.4896,1.4334,1.405,1.3745,1.3581,1.3497,1.3648,1.3791,1.391,1.3984,1.4011,1.36,1.3043,1.2296,1.1526,1.0758,0.9957,0.9682,0.9484,0.9538,0.9622,3.3309,3.2397,3.2193,3.1591,3.0877,3.0796,3.1133,3.1768,3.2866,3.374,3.4256,3.5037,3.5263,3.4897,3.4866,3.4973,3.5249,3.5208,3.5305,3.565,3.5599,3.5566,3.5512,3.5425,3.5288,3.5168,3.5015,3.4851,3.4486,3.4074,3.3707,3.3429,3.3243,3.2988,3.2784,3.2586,3.2435,3.2401,3.2317,3.2197,3.2055,3.1875,3.1654,3.1579,3.1562,3.1317,3.1162,3.0666,3.0543,3.0377,2.9782,2.9621,2.9425,2.9136,2.8606,2.8012,2.7515,2.721,2.7063,2.664,2.6472,2.6244,2.577,2.5577,2.5398,2.5203,2.4624,2.4092,2.3917,2.3623,2.31,2.2628,2.2469,2.2297,2.1651,2.1,2.0343,1.9727,1.8923,1.8036,1.7491,1.7043,1.6587,1.6247,1.6118,1.6217,1.6225,1.6233,1.6174,1.6017,1.5923,1.5714,1.5604,1.5448,1.4877,1.4408,1.4148,1.3929,1.3858,1.3854,1.3958,1.4016,1.4182,1.4144,1.404,1.3474,1.289,1.2089,1.1309,1.0622,1.0124,1.0013,0.9814,0.9742,0.9844,3.3017,3.1037,3.1685,3.1475,3.0856,3.0782,3.0856,3.1047,3.2561,3.329,3.3446,3.4203,3.4194,3.3829,3.371,3.4075,3.4442,3.4632,3.502,3.5516,3.5412,3.5345,3.5273,3.5203,3.4997,3.4889,3.4733,3.4445,3.4237,3.3813,3.3372,3.3154,3.283,3.2606,3.2472,3.2477,3.2318,3.193,3.1888,3.1788,3.1614,3.1334,3.11,3.1257,3.1004,3.0625,3.0584,3.0418,3.0293,3.0054,2.975,2.9528,2.9012,2.8448,2.7864,2.7414,2.6916,2.6721,2.6563,2.6258,2.6002,2.5879,2.577,2.5189,2.4794,2.4865,2.4394,2.3636,2.3339,2.3113,2.2653,2.2408,2.2235,2.2049,2.1572,2.0876,2.0205,1.9536,1.8744,1.8017,1.7685,1.7239,1.7139,1.6815,1.6545,1.6782,1.6707,1.6654,1.6515,1.6301,1.6052,1.5824,1.5523,1.5272,1.4884,1.4472,1.4334,1.4167,1.417,1.4212,1.4307,1.4379,1.4458,1.4091,1.3685,1.3314,1.2756,1.1888,1.1185,1.0792,1.0449,1.0353,1.0179,1.0065,1.017,3.1787,3.1724,3.1242,3.0905,3.071,3.0658,3.0994,3.1561,3.2011,3.2279,3.2486,3.3115,3.3412,3.3082,3.3009,3.3372,3.3961,3.3978,3.4693,3.5023,3.5082,3.4928,3.4905,3.4718,3.4595,3.4416,3.4189,3.3931,3.3661,3.3314,3.3001,3.2781,3.2521,3.2318,3.2214,3.2348,3.2176,3.1593,3.1501,3.1467,3.1329,3.1179,3.1044,3.0885,3.0543,3.0351,3.0225,2.9995,2.9924,2.9793,2.8996,2.848,2.7997,2.7414,2.7019,2.6826,2.6404,2.6204,2.6042,2.5893,2.5729,2.5328,2.5034,2.4452,2.4221,2.4394,2.4105,2.3292,2.2763,2.2604,2.2309,2.2185,2.1987,2.1726,2.1388,2.0703,2.0017,1.9209,1.8456,1.8152,1.7865,1.769,1.76,1.745,1.7103,1.6888,1.6617,1.644,1.6486,1.6328,1.6021,1.574,1.526,1.4934,1.4653,1.4514,1.4429,1.4393,1.4403,1.4522,1.4553,1.4338,1.4122,1.368,1.3201,1.2862,1.224,1.1475,1.0895,1.0777,1.0606,1.0538,1.0456,1.0384,1.0485,3.1333,3.1372,3.087,3.0649,3.0649,3.0618,3.0845,3.1167,3.1216,3.1234,3.1385,3.2111,3.2421,3.2094,3.199,3.2443,3.2981,3.2961,3.3633,3.4222,3.435,3.4358,3.426,3.4226,3.4147,3.3944,3.3633,3.3335,3.3124,3.2844,3.257,3.2454,3.2214,3.2054,3.1998,3.2046,3.1844,3.1247,3.1183,3.1049,3.0902,3.0601,3.0477,3.0267,3.0097,2.9924,2.9777,2.9512,2.9134,2.8934,2.8273,2.77,2.7261,2.6864,2.6578,2.6365,2.6111,2.5839,2.5674,2.5508,2.5384,2.4935,2.465,2.4176,2.3813,2.393,2.3577,2.2871,2.2919,2.275,2.2235,2.1987,2.1675,2.1348,2.0688,1.9987,1.9302,1.8572,1.8228,1.8111,1.7972,1.8065,1.8005,1.8183,1.7871,1.7599,1.7229,1.6759,1.6673,1.6265,1.6004,1.5671,1.5163,1.4858,1.4644,1.4568,1.4577,1.4609,1.4569,1.4561,1.4489,1.4122,1.3688,1.3317,1.2865,1.2311,1.1687,1.1161,1.0943,1.0888,1.0779,1.0623,1.0609,1.0613,1.0438,3.123,3.0613,3.0585,3.0576,3.0565,3.0548,3.054,3.0491,3.0441,3.0367,3.0448,3.1313,3.11,3.0704,3.0451,3.0941,3.1379,3.1814,3.2556,3.3104,3.3033,3.3465,3.3754,3.3736,3.3648,3.3496,3.3259,3.2996,3.2749,3.2504,3.2301,3.2108,3.1965,3.1856,3.1634,3.147,3.1263,3.0857,3.0641,3.0389,3.0033,2.9694,2.9826,2.9782,2.9544,2.9409,2.9196,2.8857,2.8288,2.7997,2.7635,2.7093,2.6721,2.6418,2.6136,2.5934,2.5784,2.5495,2.5216,2.5048,2.4808,2.4452,2.4292,2.4002,2.3577,2.322,2.2871,2.275,2.2859,2.2677,2.2161,2.1675,2.1348,2.0828,2.0107,1.932,1.8664,1.8076,1.8076,1.8018,1.8134,1.824,1.8375,1.8576,1.8442,1.8259,1.792,1.7501,1.7051,1.6339,1.5817,1.5506,1.5076,1.483,1.4609,1.4617,1.4569,1.4569,1.4569,1.4569,1.4346,1.384,1.3397,1.3178,1.2645,1.1909,1.1613,1.1255,1.1125,1.1081,1.0997,1.0807,1.0818,1.0674,1.0171,3.0588,3.0443,3.0441,3.0428,3.0449,3.0383,3.0311,3.026,3.0318,3.0234,3.0185,3.0356,3.0444,3.0316,3.0267,3.059,3.1005,3.1083,3.1574,3.2298,3.2371,3.2839,3.317,3.3179,3.3164,3.3039,3.2908,3.2798,3.2504,3.2301,3.2179,3.2108,3.1893,3.1651,3.1342,3.1297,3.1297,3.0716,3.0397,3.0319,2.9798,2.9633,2.975,2.9467,2.895,2.8717,2.8384,2.7997,2.7765,2.7464,2.7108,2.6602,2.6297,2.6056,2.577,2.5495,2.5397,2.5048,2.4751,2.4523,2.4208,2.3813,2.359,2.328,2.2932,2.2702,2.2408,2.2347,2.2347,2.2211,2.1788,2.1348,2.0967,2.0313,1.9584,1.8931,1.8212,1.8076,1.8008,1.8076,1.8134,1.8192,1.8259,1.8395,1.8395,1.8134,1.7852,1.7432,1.6673,1.6114,1.5638,1.5284,1.4919,1.4784,1.4561,1.4625,1.4569,1.4569,1.4569,1.4489,1.4129,1.3404,1.3039,1.2886,1.2244,1.1446,1.1222,1.1383,1.1301,1.1232,1.1135,1.1061,1.0948,1.0628,1.0095]},{"header":{"parameterUnit":"m.s-1","parameterCategory":1,"la1":31.0,"la2":29.5877,"lo1":-88.7671,"lo2":-86.6584,"dy":0.0162,"dx":0.0185,"nx":115,"ny":88,"refTime":"2023-08-21T06:00:00:Z","depth":0,"parameterNumber":3,"parameterNumberName":"V-component_of_WINDS"},"data":[0.0,0.0,0.0,0.0,0.0,0.0,0.0,0.0,0.0,0.0,0.0,0.0,0.0,0.0,0.0,0.0,0.0,0.0,0.0,0.0,0.0,0.0,0.0,0.0,0.0,0.0,0.0,0.0,0.0,0.0,0.0,0.0,0.0,0.0,0.0,0.0,0.0,0.0,0.0,0.0,0.0,0.0,0.0,0.0,0.0,0.0,0.0,0.0,0.0,0.0,0.0,0.0,0.0,0.0,0.0,0.0,0.0,0.0,0.0,0.0,0.0,0.0,0.0,0.0,0.0,0.0,0.0,0.0,0.0,0.0,0.0,0.0,0.0,0.0,0.0,0.0,0.0,0.0,0.0,0.0,0.0,0.0,0.0,0.0,0.0,0.0,0.0,0.0,0.0,0.0,0.0,0.0,0.0,0.0,0.0,0.0,0.0,0.0,0.0,0.0,0.0,0.0,0.0,0.0,0.0,0.0,0.0,0.0,0.0,0.0,0.0,0.0,0.0,0.0,0.0,0.0,0.0,0.0,0.0,0.0,0.0,0.0,0.0,0.0,0.0,0.0,0.0,0.0,0.0,0.0,0.0,0.0,0.0,0.0,0.0,0.0,0.0,0.0,0.0,0.0,0.0,0.0,0.0,0.0,0.0,0.0,0.0,0.0,0.0,0.0,0.0,0.0,0.0,0.0,0.0,0.0,0.0,0.0,0.0,0.0,0.0,0.0,0.0,0.0,0.0,0.0,0.0,0.0,0.0,0.0,0.0,0.0,0.0,0.0,0.0,0.0,0.0,0.0,0.0,0.0,0.0,0.0,0.0,0.0,0.0,0.0,0.0,0.0,0.0,0.0,0.0,0.0,0.0,0.0,0.0,0.0,0.0,0.0,0.0,0.0,0.0,0.0,0.0,0.0,0.0,0.0,0.0,0.0,0.0,0.0,0.0,0.0,0.0,0.0,0.0,0.0,0.0,0.0,0.0,0.0,0.0,0.0,0.0,0.0,0.0,0.0,0.0,0.0,0.0,0.0,0.0,0.0,0.0,0.0,0.0,0.0,0.0,0.0,0.0,0.0,0.0,0.0,0.0,0.0,0.0,0.0,0.0,0.0,0.0,0.0,0.0,0.0,0.0,0.0,0.0,0.0,0.0,0.0,0.0,0.0,0.0,0.0,0.0,0.0,0.0,0.0,0.0,0.0,0.0,0.0,0.0,0.0,0.0,0.0,0.0,0.0,0.0,0.0,0.0,0.0,0.0,0.0,0.0,0.0,0.0,0.0,0.0,0.0,0.0,0.0,0.0,0.0,0.0,0.0,0.0,0.0,0.0,0.0,0.0,0.0,0.0,0.0,0.0,0.0,0.0,0.0,0.0,0.0,0.0,0.0,0.0,0.0,0.0,0.0,0.0,0.0,0.0,0.0,0.0,0.0,0.0,0.0,0.0,0.0,0.0,0.0,0.0,0.0,0.0,0.0,0.0,0.0,0.0,0.0,0.0,0.0,0.0,0.0,0.0,0.0,0.0,0.0,0.0,0.0,0.0,0.0,0.0,0.0,0.0,0.0,0.0,0.0,0.0,0.0,0.0,0.0,0.0,0.0,0.0,0.0,0.0,0.0,0.0,0.0,0.0,0.0,0.0,0.0,0.0,0.0,0.0,0.0,0.0,0.0,0.0,0.0,0.0,0.0,0.0,0.0,0.0,0.0,0.0,0.0,0.0,0.0,0.0,0.0,0.0,0.0,0.0,0.0,0.0,0.0,0.0,0.0,0.0,0.0,0.0,0.0,0.0,0.0,0.0,0.0,0.0,0.0,0.0,0.0,0.0,0.0,0.0,0.0,0.0,0.0,0.0,0.0,0.0,0.0,0.0,0.0,0.0,0.0,0.0,0.0,0.0,0.0,0.0,0.0,0.0,0.0,0.0,0.0,0.0,0.0,0.0,0.0,0.0,0.0,0.0,0.0,0.0,0.0,0.0,0.0,0.0,0.0,0.0,0.0,0.0,0.0,0.0,0.0,0.0,0.0,0.0,0.0,0.0,0.0,0.0,0.0,0.0,0.0,0.0,0.0,0.0,0.0,0.0,0.0,0.0,0.0,0.0,0.0,0.0,0.0,0.0,0.0,0.0,0.0,0.0,0.0,0.0,0.0,0.0,0.0,0.0,0.0,0.0,0.0,0.0,0.0,0.0,0.0,0.0,0.0,0.0,0.0,0.0,0.0,0.0,0.0,0.0,0.0,0.0,0.0,0.0,0.0,0.0,0.0,0.0,0.0,0.0,0.0,0.0,0.0,0.0,0.0,0.0,0.0,0.0,0.0,0.0,0.0,0.0,0.0,0.0,0.0,0.0,0.0,0.0,0.0,0.0,0.0,0.0,0.0,0.0,0.0,0.0,0.0,0.0,0.0,0.0,0.0,0.0,0.0,0.0,0.0,0.0,0.0,0.0,0.0,0.0,0.0,0.0,0.0,0.0,0.0,0.0,0.0,0.0,0.0,0.0,0.0,0.0,0.0,0.0,0.0,0.0,0.0,0.0,0.0,0.0,0.0,0.0,0.0,0.0,0.0,0.0,0.0,0.0,0.0,0.0,0.0,0.0,0.0,0.0,0.0,0.0,0.0,0.0,0.0,0.0,0.0,0.0,0.0,0.0,0.0,0.0,0.0,0.0,0.0,0.0,0.0,0.0,0.0,0.0,0.0,0.0,0.0,0.0,0.0,0.0,0.0,0.0,0.0,0.0,0.0,0.0,0.0,0.0,0.0,0.0,0.0,0.0,0.0,0.0,0.0,0.0,0.0,0.0,0.0,0.0,0.0,0.0,0.0,0.0,0.0,0.0,0.0,0.0,0.0,0.0,0.0,0.0,0.0,0.0,0.0,0.0,0.0,0.0,0.0,0.0,0.0,0.0,0.0,0.0,0.0,0.0,0.0,0.0,0.0,0.0,0.0,0.0,0.0,0.0,0.0,0.0,0.0,0.0,0.0,0.0,0.0,0.0,0.0,0.0,0.0,0.0,0.0,0.0,0.0,0.0,0.0,0.0,0.0,0.0,0.0,0.0,0.0,0.0,0.0,0.0,0.0,0.0,0.0,0.0,0.0,0.0,0.0,0.0,0.0,0.0,0.0,0.0,0.0,0.0,0.0,0.0,0.0,0.0,0.0,0.0,0.0,0.0,0.0,0.0,0.0,0.0,0.0,0.0,0.0,0.0,0.0,0.0,0.0,0.0,0.0,0.0,0.0,0.0,0.0,0.0,0.0,0.0,0.0,0.0,0.0,0.0,0.0,0.0,0.0,0.0,0.0,0.0,0.0,0.0,0.0,0.0,0.0,0.0,0.0,0.0,0.0,0.0,0.0,0.0,0.0,0.0,0.0,0.0,0.0,0.0,0.0,0.0,0.0,0.0,0.0,0.0,0.0,0.0,0.0,0.0,0.0,0.0,0.0,0.0,0.0,0.0,0.0,0.0,0.0,0.0,0.0,0.0,0.0,0.0,0.0,0.0,0.0,0.0,0.0,0.0,0.0,0.0,0.0,0.0,0.0,0.0,0.0,0.0,0.0,0.0,0.0,0.0,0.0,0.0,0.0,0.0,0.0,0.0,0.0,0.0,0.0,0.0,0.0,0.0,0.0,0.0,0.0,0.0,0.0,0.0,0.0,0.0,0.0,0.0,0.0,0.0,0.0,0.0,0.0,0.0,0.0,0.0,0.0,0.0,0.0,0.0,0.0,0.0,0.0,0.0,0.0,0.0,0.0,0.0,0.0,0.0,0.0,0.0,0.0,0.0,0.0,0.0,0.0,0.0,0.0,0.0,0.0,0.0,0.0,0.0,0.0,0.0,0.0,0.0,0.0,0.0,0.0,0.0,0.0,0.0,0.0,0.0,0.0,0.0,0.0,0.0,0.0,0.0,0.0,0.0,0.0,0.0,0.0,0.0,0.0,0.0,0.0,0.0,0.0,0.0,0.0,0.0,0.0,0.0,0.0,0.0,0.0,0.0,0.0,0.0,0.0,0.0,0.0,0.0,0.0,0.0,0.0,0.0,0.0,0.0,0.0,0.0,0.0,0.0,0.0,0.0,0.0,0.0,0.0,0.0,0.0,0.0,0.0,0.0,0.0,0.0,0.0,0.0,0.0,0.0,0.0,0.0,0.0,0.0,0.0,0.0,0.0,0.0,0.0,0.0,0.0,0.0,0.0,0.0,0.0,0.0,0.0,0.0,0.0,0.0,0.0,0.0,0.0,0.0,0.0,0.0,0.0,0.0,0.0,0.0,0.0,0.0,0.0,0.0,0.0,-0.787,0.0,0.0,0.0,0.0,0.0,0.0,0.0,0.0,0.0,0.0,0.0,0.0,0.0,0.0,0.0,0.0,0.0,0.0,0.0,0.0,0.0,0.0,0.0,0.0,0.0,0.0,0.0,0.0,0.0,0.0,0.0,0.0,0.0,0.0,0.0,0.0,0.0,0.0,0.0,0.0,0.0,0.0,0.0,0.0,0.0,0.0,0.0,0.0,0.0,0.0,0.0,0.0,0.0,0.0,0.0,0.0,0.0,0.0,0.0,0.0,0.0,0.0,0.0,0.0,0.0,0.0,0.0,0.0,0.0,0.0,0.0,0.0,0.0,0.0,0.0,0.0,0.0,0.0,0.0,0.0,0.0,0.0,0.0,0.0,0.0,0.0,0.0,0.0,0.0,0.0,0.0,0.0,0.0,0.0,0.0,0.0,0.0,0.0,0.0,0.0,0.0,0.0,0.0,0.0,0.0,0.0,0.0,0.0,0.0,0.0,-1.1222,-1.0583,-0.9644,-0.8873,-0.8359,0.0,0.0,0.0,0.0,0.0,0.0,0.0,0.0,0.0,0.0,0.0,0.0,0.0,0.0,0.0,0.0,0.0,0.0,0.0,0.0,0.0,0.0,0.0,0.0,0.0,0.0,0.0,0.0,0.0,0.0,0.0,0.0,0.0,0.0,0.0,0.0,0.0,0.0,0.0,0.0,0.0,0.0,0.0,0.0,0.0,0.0,0.0,0.0,0.0,0.0,0.0,0.0,0.0,0.0,0.0,0.0,0.0,0.0,0.0,0.0,0.0,0.0,0.0,0.0,0.0,0.0,0.0,0.0,0.0,0.0,0.0,0.0,0.0,0.0,0.0,0.0,0.0,0.0,0.0,0.0,0.0,0.0,0.0,0.0,0.0,0.0,0.0,0.0,0.0,0.0,0.0,0.0,0.0,0.0,0.0,0.0,0.0,0.0,0.0,0.0,0.0,0.0,0.0,0.0,0.0,0.0,0.0,0.0,0.0,0.0,0.0,0.0,-1.0771,-0.9832,-0.8643,0.0,0.0,0.0,0.0,0.0,0.0,0.0,0.0,0.0,0.0,0.0,0.0,0.0,0.0,0.0,0.0,0.0,0.0,0.0,0.0,0.0,0.0,0.0,0.0,0.0,0.0,0.0,0.0,0.0,0.0,0.0,0.0,0.0,0.0,0.0,0.0,0.0,0.0,0.0,0.0,0.0,0.0,0.0,0.0,0.0,0.0,0.0,0.0,0.0,0.0,0.0,0.0,0.0,0.0,0.0,0.0,0.0,0.0,0.0,0.0,0.0,0.0,0.0,0.0,0.0,0.0,0.0,0.0,0.0,0.0,0.0,0.0,0.0,0.0,0.0,0.0,0.0,0.0,0.0,0.0,0.0,0.0,0.0,0.0,0.0,0.0,0.0,0.0,0.0,0.0,0.0,0.0,0.0,0.0,0.0,0.0,0.0,0.0,0.0,0.0,0.0,0.0,0.0,0.0,0.0,0.0,0.0,0.0,0.0,0.0,-1.2684,-1.2861,-1.151,0.0,-0.9155,0.0,0.0,0.0,0.0,0.0,0.0,0.0,0.0,0.0,0.0,0.0,0.0,0.0,0.0,0.0,0.0,0.0,0.0,0.0,0.0,0.0,0.0,0.0,0.0,0.0,0.0,0.0,0.0,0.0,0.0,0.0,0.0,0.0,0.0,0.0,0.0,0.0,0.0,0.0,0.0,0.0,0.0,0.0,0.0,0.0,0.0,0.0,0.0,0.0,0.0,0.0,0.0,0.0,0.0,0.0,0.0,0.0,0.0,0.0,0.0,0.0,0.0,0.0,0.0,0.0,0.0,0.0,0.0,0.0,0.0,0.0,0.0,0.0,0.0,0.0,0.0,0.0,0.0,0.0,0.0,0.0,0.0,0.0,0.0,0.0,0.0,0.0,0.0,0.0,0.0,0.0,0.0,0.0,0.0,0.0,0.0,0.0,0.0,0.0,0.0,0.0,0.0,0.0,0.0,0.0,0.0,0.0,0.0,0.0,0.0,-1.3881,-1.3648,-1.2169,-1.1103,0.0,0.0,0.0,0.0,0.0,0.0,0.0,0.0,0.0,0.0,0.0,0.0,0.0,0.0,0.0,0.0,0.0,0.0,0.0,0.0,0.0,0.0,0.0,0.0,0.0,0.0,0.0,0.0,0.0,0.0,0.0,0.0,0.0,0.0,0.0,0.0,0.0,0.0,0.0,0.0,0.0,0.0,0.0,0.0,0.0,0.0,0.0,0.0,0.0,0.0,0.0,0.0,0.0,0.0,0.0,0.0,0.0,0.0,0.0,0.0,0.0,0.0,0.0,0.0,0.0,0.0,0.0,0.0,0.0,0.0,0.0,0.0,0.0,0.0,0.0,0.0,0.0,0.0,0.0,0.0,0.0,0.0,0.0,0.0,0.0,0.0,0.0,0.0,0.0,0.0,0.0,0.0,0.0,0.0,0.0,0.0,0.0,0.0,0.0,0.0,0.0,0.0,0.0,0.0,0.0,0.0,0.0,0.0,0.0,0.0,-1.5091,-1.4665,-1.4099,-1.2861,-1.2054,-1.1827,0.0,0.0,0.0,0.0,0.0,0.0,0.0,0.0,0.0,0.0,0.0,0.0,0.0,0.0,0.0,0.0,0.0,0.0,0.0,0.0,0.0,0.0,0.0,0.0,0.0,0.0,0.0,0.0,0.0,0.0,0.0,0.0,0.0,0.0,0.0,0.0,0.0,0.0,0.0,0.0,0.0,0.0,0.0,0.0,0.0,0.0,0.0,0.0,0.0,0.0,0.0,0.0,0.0,0.0,0.0,0.0,0.0,0.0,0.0,0.0,0.0,0.0,0.0,0.0,0.0,0.0,0.0,0.0,0.0,0.0,0.0,0.0,0.0,0.0,0.0,0.0,0.0,0.0,0.0,0.0,0.0,0.0,0.0,0.0,0.0,0.0,0.0,0.0,0.0,0.0,0.0,0.0,0.0,0.0,0.0,0.0,0.0,0.0,0.0,0.0,0.0,0.0,0.0,0.0,0.0,0.0,0.0,0.0,-1.5681,-1.5031,-1.4588,-1.4458,-1.3553,-1.3056,0.0,0.0,0.0,0.0,0.0,0.0,0.0,0.0,0.0,0.0,0.0,0.0,0.0,0.0,0.0,0.0,0.0,0.0,0.0,0.0,0.0,0.0,0.0,0.0,0.0,0.0,0.0,0.0,0.0,0.0,0.0,0.0,0.0,0.0,0.0,0.0,0.0,0.0,0.0,0.0,0.0,0.0,0.0,0.0,0.0,0.0,0.0,0.0,0.0,0.0,0.0,0.0,0.0,0.0,0.0,0.0,0.0,0.0,0.0,0.0,0.0,0.0,0.0,0.0,0.0,0.0,0.0,0.0,0.0,0.0,0.0,0.0,0.0,0.0,0.0,0.0,0.0,0.0,0.0,0.0,0.0,0.0,0.0,0.0,0.0,0.0,0.0,0.0,0.0,0.0,0.0,0.0,0.0,0.0,0.0,0.0,0.0,0.0,0.0,0.0,0.0,0.0,0.0,0.0,0.0,0.0,0.0,0.0,0.0,-1.6374,-1.5506,-1.4963,-1.4814,-1.4112,-1.3721,0.0,0.0,0.0,0.0,0.0,0.0,0.0,0.0,0.0,0.0,0.0,0.0,0.0,0.0,0.0,0.0,0.0,0.0,0.0,0.0,0.0,0.0,0.0,0.0,0.0,0.0,0.0,0.0,0.0,0.0,0.0,0.0,0.0,0.0,0.0,0.0,0.0,0.0,0.0,0.0,0.0,0.0,0.0,0.0,0.0,0.0,0.0,0.0,0.0,0.0,0.0,0.0,0.0,0.0,0.0,0.0,0.0,0.0,0.0,0.0,0.0,0.0,0.0,0.0,0.0,0.0,0.0,0.0,0.0,0.0,0.0,0.0,0.0,0.0,0.0,0.0,0.0,0.0,0.0,0.0,0.0,0.0,0.0,0.0,0.0,0.0,0.0,0.0,0.0,0.0,0.0,0.0,0.0,0.0,0.0,0.0,0.0,0.0,0.0,0.0,0.0,0.0,0.0,0.0,0.0,0.0,0.0,0.0,0.0,-1.6741,0.0,-1.552,-1.5316,-1.4788,-1.4414,0.0,0.0,0.0,0.0,0.0,0.0,0.0,0.0,0.0,0.0,0.0,0.0,0.0,0.0,0.0,0.0,0.0,0.0,0.0,0.0,0.0,0.0,0.0,0.0,0.0,0.0,0.0,0.0,0.0,0.0,0.0,0.0,0.0,0.0,0.0,0.0,0.0,0.0,0.0,0.0,0.0,0.0,0.0,0.0,0.0,0.0,0.0,0.0,0.0,0.0,0.0,0.0,0.0,0.0,0.0,0.0,0.0,0.0,0.0,0.0,0.0,0.0,0.0,0.0,0.0,0.0,0.0,0.0,0.0,0.0,0.0,0.0,0.0,0.0,0.0,0.0,0.0,0.0,0.0,0.0,0.0,0.0,0.0,0.0,0.0,0.0,0.0,0.0,0.0,0.0,0.0,0.0,0.0,0.0,0.0,0.0,0.0,0.0,0.0,0.0,0.0,0.0,0.0,0.0,0.0,0.0,0.0,0.0,-1.7191,-1.6722,-1.6438,-1.6223,-1.6016,-1.5564,-1.5256,0.0,0.0,0.0,0.0,0.0,0.0,0.0,0.0,0.0,0.0,0.0,0.0,0.0,0.0,0.0,0.0,0.0,0.0,0.0,0.0,0.0,0.0,0.0,0.0,0.0,0.0,0.0,0.0,0.0,0.0,0.0,0.0,0.0,0.0,0.0,0.0,0.0,0.0,0.0,0.0,0.0,0.0,0.0,0.0,0.0,0.0,0.0,0.0,0.0,0.0,0.0,0.0,0.0,0.0,0.0,0.0,0.0,0.0,0.0,0.0,0.0,0.0,0.0,0.0,0.0,0.0,0.0,0.0,0.0,0.0,0.0,0.0,0.0,0.0,0.0,0.0,0.0,0.0,0.0,0.0,0.0,0.0,0.0,0.0,0.0,0.0,0.0,0.0,0.0,0.0,0.0,0.0,0.0,0.0,0.0,0.0,0.0,0.0,0.0,0.0,0.0,0.0,0.0,0.0,0.0,0.0,0.0,0.0,0.0,-1.7191,-1.7002,-1.7126,-1.7482,-1.6653,-1.6406,0.0,0.0,0.0,0.0,0.0,0.0,0.0,0.0,0.0,0.0,0.0,0.0,0.0,0.0,0.0,0.0,0.0,0.0,0.0,0.0,0.0,0.0,0.0,0.0,0.0,0.0,0.0,0.0,0.0,0.0,0.0,0.0,0.0,0.0,0.0,0.0,0.0,0.0,0.0,0.0,0.0,0.0,0.0,0.0,0.0,0.0,0.0,0.0,0.0,0.0,0.0,0.0,0.0,0.0,0.0,0.0,0.0,0.0,0.0,0.0,0.0,0.0,0.0,0.0,0.0,0.0,0.0,0.0,0.0,0.0,0.0,0.0,0.0,0.0,0.0,0.0,0.0,0.0,0.0,0.0,0.0,0.0,0.0,0.0,0.0,0.0,0.0,0.0,0.0,0.0,0.0,0.0,0.0,0.0,0.0,0.0,0.0,0.0,0.0,0.0,0.0,0.0,0.0,0.0,0.0,0.0,0.0,0.0,0.0,-1.7616,-1.7425,-1.7527,-1.7845,-1.7255,-1.721,-1.777,0.0,0.0,0.0,0.0,0.0,0.0,0.0,0.0,0.0,0.0,0.0,0.0,0.0,0.0,0.0,0.0,0.0,0.0,0.0,0.0,0.0,0.0,0.0,0.0,0.0,0.0,0.0,0.0,0.0,0.0,0.0,0.0,0.0,0.0,0.0,0.0,0.0,0.0,0.0,0.0,0.0,0.0,0.0,0.0,0.0,0.0,0.0,0.0,0.0,0.0,0.0,0.0,0.0,0.0,0.0,0.0,0.0,0.0,0.0,0.0,0.0,0.0,0.0,0.0,0.0,0.0,0.0,0.0,0.0,0.0,0.0,0.0,0.0,0.0,0.0,0.0,0.0,0.0,0.0,0.0,0.0,0.0,0.0,0.0,0.0,0.0,0.0,0.0,0.0,0.0,0.0,0.0,0.0,0.0,0.0,0.0,0.0,0.0,0.0,0.0,0.0,0.0,0.0,0.0,0.0,0.0,0.0,0.0,-1.7944,-1.7794,-1.7676,-1.7493,-1.7579,-1.7781,0.0,0.0,0.0,0.0,0.0,0.0,0.0,0.0,0.0,0.0,0.0,0.0,0.0,0.0,0.0,0.0,0.0,0.0,0.0,0.0,0.0,0.0,0.0,0.0,0.0,0.0,0.0,0.0,0.0,0.0,0.0,0.0,0.0,0.0,0.0,0.0,0.0,0.0,0.0,0.0,0.0,0.0,0.0,0.0,0.0,0.0,0.0,0.0,0.0,0.0,0.0,0.0,0.0,0.0,0.0,0.0,0.0,0.0,0.0,0.0,0.0,0.0,0.0,0.0,0.0,0.0,0.0,0.0,0.0,0.0,0.0,0.0,0.0,0.0,0.0,0.0,0.0,0.0,0.0,0.0,0.0,0.0,0.0,0.0,0.0,0.0,0.0,0.0,0.0,0.0,0.0,0.0,0.0,0.0,0.0,0.0,0.0,0.0,0.0,0.0,0.0,0.0,0.0,0.0,0.0,0.0,0.0,0.0,0.0,-1.8274,-1.9161,-1.9556,-1.9361,-1.9022,-1.9399,0.0,0.0,0.0,0.0,0.0,0.0,0.0,0.0,0.0,0.0,0.0,0.0,0.0,0.0,0.0,0.0,0.0,0.0,0.0,0.0,0.0,0.0,0.0,0.0,0.0,0.0,0.0,0.0,0.0,0.0,0.0,0.0,0.0,0.0,0.0,0.0,0.0,0.0,0.0,0.0,0.0,0.0,0.0,0.0,0.0,0.0,0.0,0.0,0.0,0.0,0.0,0.0,0.0,0.0,0.0,0.0,0.0,0.0,0.0,0.0,0.0,0.0,0.0,0.0,0.0,0.0,0.0,0.0,0.0,0.0,0.0,0.0,0.0,0.0,0.0,0.0,0.0,0.0,0.0,0.0,0.0,0.0,0.0,0.0,0.0,0.0,0.0,0.0,0.0,0.0,0.0,0.0,0.0,0.0,0.0,0.0,0.0,0.0,0.0,0.0,0.0,0.0,0.0,0.0,0.0,0.0,0.0,0.0,-1.9178,-1.8423,-1.9399,-2.0061,-2.0329,-2.005,-2.0443,0.0,0.0,0.0,0.0,0.0,0.0,0.0,0.0,0.0,0.0,0.0,0.0,0.0,0.0,0.0,0.0,0.0,0.0,0.0,0.0,0.0,0.0,0.0,0.0,0.0,0.0,0.0,0.0,0.0,0.0,0.0,0.0,0.0,0.0,0.0,0.0,0.0,0.0,0.0,0.0,0.0,0.0,0.0,0.0,0.0,0.0,0.0,0.0,0.0,0.0,0.0,0.0,0.0,0.0,0.0,0.0,0.0,0.0,0.0,0.0,0.0,0.0,0.0,0.0,0.0,0.0,0.0,0.0,0.0,0.0,0.0,0.0,0.0,0.0,0.0,0.0,0.0,0.0,0.0,0.0,0.0,0.0,0.0,0.0,0.0,0.0,0.0,0.0,0.0,0.0,0.0,0.0,0.0,0.0,0.0,0.0,0.0,0.0,0.0,0.0,0.0,0.0,0.0,0.0,0.0,0.0,0.0,0.0,-1.9225,-1.8579,-1.916,-1.9899,-2.0683,-2.0718,-2.1022,0.0,0.0,0.0,0.0,0.0,0.0,0.0,0.0,0.0,0.0,0.0,0.0,0.0,0.0,0.0,0.0,0.0,0.0,0.0,0.0,0.0,0.0,0.0,0.0,0.0,0.0,0.0,0.0,0.0,0.0,0.0,0.0,0.0,0.0,0.0,0.0,0.0,0.0,0.0,0.0,0.0,0.0,0.0,0.0,0.0,0.0,0.0,0.0,0.0,0.0,0.0,0.0,0.0,0.0,0.0,0.0,0.0,0.0,0.0,0.0,0.0,0.0,0.0,0.0,0.0,0.0,0.0,0.0,0.0,0.0,0.0,0.0,0.0,0.0,0.0,0.0,0.0,0.0,0.0,0.0,0.0,0.0,0.0,0.0,0.0,0.0,0.0,0.0,0.0,0.0,0.0,0.0,0.0,0.0,0.0,0.0,0.0,0.0,0.0,0.0,0.0,0.0,0.0,0.0,0.0,0.0,0.0,0.0,-1.9595,-1.8861,-2.002,-2.0749,-2.0912,-2.0785,-2.118,0.0,0.0,0.0,0.0,0.0,0.0,0.0,0.0,0.0,0.0,0.0,0.0,0.0,0.0,0.0,0.0,0.0,0.0,0.0,0.0,0.0,0.0,0.0,0.0,0.0,0.0,0.0,0.0,0.0,0.0,0.0,0.0,0.0,0.0,0.0,0.0,0.0,0.0,0.0,0.0,0.0,0.0,0.0,0.0,0.0,0.0,0.0,0.0,2.1814,0.0,0.0,0.0,0.0,0.0,0.0,0.0,0.0,0.0,0.0,0.0,0.0,0.0,0.0,0.0,0.0,0.0,0.0,0.0,0.0,0.0,0.0,0.0,0.0,0.0,0.0,0.0,0.0,0.0,0.0,0.0,0.0,0.0,0.0,0.0,0.0,0.0,0.0,0.0,0.0,0.0,0.0,0.0,0.0,0.0,0.0,0.0,0.0,0.0,0.0,0.0,0.0,0.0,0.0,0.0,0.0,0.0,0.0,0.0,-1.9433,-1.9035,-1.974,-2.0274,-2.0634,-2.0914,-2.1646,0.0,0.0,0.0,0.0,0.0,0.0,0.0,0.0,0.0,0.0,0.0,0.0,0.0,0.0,0.0,0.0,0.0,0.0,0.0,0.0,0.0,0.0,0.0,0.0,0.0,0.0,0.0,0.0,0.0,0.0,0.0,0.0,0.0,0.0,0.0,0.0,0.0,0.0,0.0,0.0,0.0,0.0,0.0,0.0,0.0,0.0,0.0,0.0,0.0,0.0,0.0,0.0,0.0,0.0,0.0,0.0,0.0,0.0,0.0,0.0,0.0,0.0,0.0,0.0,0.0,0.0,0.0,0.0,0.0,0.0,0.0,0.0,0.0,0.0,0.0,0.0,0.0,0.0,0.0,0.0,0.0,0.0,0.0,0.0,0.0,0.0,0.0,0.0,0.0,0.0,0.0,0.0,0.0,0.0,0.0,0.0,0.0,0.0,0.0,0.0,0.0,0.0,0.0,0.0,0.0,0.0,0.0,-1.917,-1.9137,-1.915,-1.9119,-1.9501,-2.0298,-2.1134,-2.2115,-2.3325,0.0,0.0,0.0,0.0,0.0,0.0,0.0,0.0,0.0,0.0,0.0,0.0,0.0,0.0,0.0,0.0,0.0,0.0,0.0,0.0,0.0,0.0,0.0,0.0,0.0,0.0,0.0,0.0,0.0,0.0,0.0,0.0,0.0,0.0,0.0,0.0,0.0,0.0,1.6943,1.7355,0.0,0.0,0.0,0.0,0.0,0.0,0.0,0.0,2.1198,0.0,0.0,0.0,0.0,0.0,0.0,0.0,0.0,0.0,0.0,0.0,0.0,0.0,0.0,0.0,0.0,0.0,0.0,0.0,0.0,0.0,0.0,0.0,0.0,0.0,0.0,0.0,0.0,0.0,0.0,0.0,0.0,0.0,0.0,0.0,0.0,0.0,0.0,0.0,0.0,0.0,0.0,0.0,0.0,0.0,0.0,0.0,0.0,0.0,0.0,0.0,0.0,0.0,0.0,0.0,0.0,-1.9526,-1.9363,-1.9266,-1.9266,-1.92,-1.9568,-2.0387,-2.1325,-2.2284,-2.3284,0.0,0.0,0.0,0.0,0.0,0.0,0.0,0.0,0.0,0.0,0.0,0.0,0.0,0.0,0.0,0.0,0.0,0.0,0.0,0.0,0.0,0.0,0.0,0.0,0.0,0.0,0.0,0.0,0.0,0.0,0.0,0.0,0.0,0.0,0.0,0.0,0.0,0.0,0.0,1.6082,1.6709,0.0,0.0,0.0,0.0,0.0,0.0,0.0,0.0,2.1415,0.0,0.0,0.0,0.0,0.0,0.0,0.0,0.0,0.0,0.0,0.0,0.0,0.0,0.0,0.0,0.0,0.0,0.0,0.0,0.0,0.0,0.0,0.0,0.0,0.0,0.0,0.0,0.0,0.0,0.0,0.0,0.0,0.0,0.0,0.0,0.0,0.0,0.0,0.0,0.0,0.0,0.0,0.0,0.0,0.0,0.0,0.0,0.0,0.0,0.0,0.0,0.0,0.0,0.0,0.0,-2.0085,-1.9626,-1.936,-1.9338,-1.9357,-1.9586,-2.0048,-2.0945,-2.1868,0.0,0.0,0.0,0.0,0.0,0.0,0.0,0.0,0.0,0.0,0.0,0.0,0.0,0.0,0.0,0.0,0.0,0.0,0.0,0.0,0.0,0.0,0.0,0.0,0.0,0.0,0.0,0.0,0.0,0.0,0.0,0.0,0.0,0.0,0.0,0.0,0.0,0.0,0.0,0.0,1.5599,1.612,1.6443,0.0,0.0,0.0,0.0,0.0,0.0,2.055,2.0862,0.0,0.0,0.0,0.0,0.0,0.0,0.0,0.0,0.0,0.0,0.0,0.0,0.0,0.0,0.0,0.0,0.0,0.0,0.0,0.0,0.0,0.0,0.0,0.0,0.0,0.0,0.0,0.0,0.0,0.0,0.0,0.0,0.0,0.0,0.0,0.0,0.0,0.0,0.0,0.0,0.0,0.0,0.0,0.0,0.0,0.0,0.0,0.0,0.0,0.0,0.0,0.0,0.0,0.0,0.0,-2.0622,-1.9804,-1.9387,-1.938,-1.9475,-1.956,-1.9662,-2.0545,-2.1444,0.0,0.0,0.0,0.0,0.0,0.0,0.0,0.0,0.0,0.0,0.0,0.0,0.0,0.0,0.0,0.0,0.0,0.0,0.0,0.0,0.0,0.0,0.0,0.0,0.0,0.0,0.0,0.0,0.0,0.0,0.0,0.0,0.0,0.0,0.0,0.0,0.0,0.0,0.0,0.0,0.0,1.5588,1.5748,1.6473,0.0,0.0,0.0,0.0,1.9485,1.9758,0.0,0.0,0.0,0.0,0.0,0.0,0.0,0.0,0.0,0.0,0.0,0.0,0.0,0.0,0.0,0.0,0.0,0.0,0.0,0.0,0.0,0.0,0.0,0.0,0.0,0.0,0.0,0.0,0.0,0.0,0.0,0.0,0.0,0.0,0.0,0.0,0.0,0.0,0.0,0.0,0.0,0.0,0.0,0.0,0.0,0.0,0.0,0.0,0.0,0.0,0.0,0.0,0.0,0.0,0.0,0.0,-2.0816,-1.9845,-1.9323,-1.9305,-1.9435,-1.9508,-1.9532,-2.0479,-2.15,0.0,0.0,0.0,0.0,0.0,0.0,0.0,0.0,0.0,0.0,0.0,0.0,0.0,0.0,0.0,0.0,0.0,0.0,0.0,0.0,0.0,0.0,0.0,0.0,0.0,0.0,0.0,0.0,0.0,0.0,0.0,0.0,0.0,0.0,0.0,0.0,0.0,0.0,0.0,0.0,0.0,1.488,1.5823,1.6132,1.6683,0.0,0.0,1.8693,1.8574,1.8821,0.0,0.0,0.0,0.0,0.0,0.0,0.0,0.0,0.0,0.0,0.0,0.0,0.0,0.0,0.0,0.0,0.0,0.0,0.0,0.0,0.0,0.0,0.0,0.0,0.0,0.0,0.0,0.0,0.0,0.0,0.0,0.0,0.0,0.0,0.0,0.0,0.0,0.0,0.0,0.0,0.0,0.0,0.0,0.0,0.0,0.0,0.0,0.0,0.0,0.0,0.0,0.0,0.0,0.0,0.0,-2.1535,-2.1473,-2.0089,-1.9387,-1.9427,-1.955,-1.9641,-1.9732,-2.0202,-2.1194,0.0,0.0,0.0,0.0,0.0,0.0,0.0,0.0,0.0,0.0,0.0,0.0,0.0,0.0,0.0,0.0,0.0,0.0,0.0,0.0,0.0,0.0,0.0,0.0,0.0,0.0,0.0,0.0,0.0,0.0,0.0,0.0,0.0,0.0,0.0,0.0,0.0,0.0,0.0,0.0,0.0,0.0,1.5084,1.5648,0.0,0.0,0.0,1.8173,1.8224,0.0,0.0,0.0,0.0,0.0,0.0,0.0,0.0,0.0,0.0,0.0,0.0,0.0,0.0,0.0,0.0,0.0,0.0,0.0,0.0,0.0,0.0,0.0,0.0,0.0,0.0,0.0,0.0,0.0,0.0,0.0,0.0,0.0,0.0,0.0,0.0,0.0,0.0,0.0,0.0,0.0,0.0,0.0,0.0,0.0,0.0,0.0,0.0,0.0,0.0,0.0,0.0,0.0,0.0,0.0,0.0,0.0,-2.2092,-2.0381,-1.9489,-1.956,-1.9641,-1.9738,-1.9873,-2.001,0.0,0.0,0.0,0.0,0.0,0.0,0.0,0.0,0.0,0.0,0.0,0.0,0.0,0.0,0.0,0.0,0.0,0.0,0.0,0.0,0.0,0.0,0.0,0.0,0.0,0.0,0.0,1.2775,0.0,0.0,0.0,0.0,0.0,0.0,0.0,0.0,0.0,0.0,0.0,0.0,0.0,0.0,1.4743,1.4373,1.5028,1.556,0.0,0.0,1.7435,1.768,1.7354,1.7515,0.0,0.0,0.0,0.0,0.0,0.0,0.0,0.0,0.0,0.0,0.0,0.0,0.0,0.0,0.0,0.0,0.0,0.0,0.0,0.0,0.0,0.0,0.0,0.0,0.0,0.0,0.0,0.0,0.0,0.0,0.0,0.0,0.0,0.0,0.0,0.0,0.0,0.0,0.0,0.0,0.0,0.0,0.0,0.0,0.0,0.0,0.0,0.0,0.0,0.0,0.0,0.0,0.0,0.0,-2.2344,-2.2391,-2.0621,-1.9668,-1.9701,-1.9701,-1.9738,-1.9811,-1.9926,-2.0861,0.0,0.0,0.0,0.0,0.0,0.0,0.0,0.0,0.0,0.0,0.0,0.0,0.0,0.0,0.0,0.0,0.0,0.0,0.0,0.0,0.0,0.0,0.0,0.0,0.0,0.0,0.0,0.0,0.0,0.0,0.0,0.0,0.0,0.0,0.0,0.0,0.0,0.0,0.0,0.0,0.0,1.4222,1.4014,1.4247,1.4525,0.0,1.5588,1.6287,1.6539,1.6697,1.7175,1.8338,0.0,0.0,0.0,0.0,0.0,0.0,0.0,0.0,0.0,0.0,0.0,0.0,0.0,0.0,0.0,0.0,0.0,0.0,0.0,0.0,0.0,0.0,0.0,0.0,0.0,0.0,0.0,0.0,0.0,0.0,0.0,0.0,0.0,0.0,0.0,0.0,0.0,0.0,0.0,0.0,0.0,0.0,0.0,0.0,0.0,0.0,0.0,0.0,0.0,0.0,0.0,0.0,0.0,-2.2393,-2.2299,-2.0589,-1.9719,-1.9769,-1.9804,-1.9904,-2.0021,-2.0144,-2.0749,0.0,0.0,0.0,0.0,0.0,0.0,0.0,0.0,0.0,0.0,0.0,0.0,0.0,0.0,0.0,0.0,0.0,0.0,0.0,0.0,0.0,0.0,0.0,0.0,0.0,0.0,0.0,0.0,1.0806,1.0998,1.1558,0.0,0.0,0.0,0.0,0.0,0.0,0.0,0.0,0.0,0.0,1.3674,1.3627,1.4014,0.0,0.0,1.5499,1.6213,1.6466,1.6695,1.7076,1.7932,1.8563,0.0,0.0,0.0,0.0,0.0,0.0,0.0,0.0,0.0,0.0,0.0,0.0,0.0,0.0,0.0,0.0,0.0,0.0,0.0,0.0,0.0,0.0,0.0,0.0,0.0,0.0,0.0,0.0,0.0,0.0,0.0,0.0,0.0,0.0,0.0,0.0,0.0,0.0,0.0,0.0,0.0,0.0,0.0,0.0,0.0,0.0,0.0,0.0,0.0,0.0,0.0,0.0,-2.246,-2.2305,-2.064,-1.9788,-1.9862,-1.9896,-1.9981,-2.0144,-2.0214,-2.0689,0.0,0.0,0.0,0.0,0.0,0.0,0.0,0.0,0.0,0.0,0.0,0.0,0.0,0.0,0.0,0.0,0.0,0.0,0.0,0.0,0.0,0.0,0.0,0.0,0.0,0.0,0.0,0.0,1.0462,1.0816,1.1832,0.0,0.0,0.0,0.0,0.0,0.0,0.0,0.0,0.0,0.0,1.3044,1.2948,1.3627,1.4236,1.456,1.5499,1.6256,1.6565,1.6807,1.7128,1.776,0.0,0.0,0.0,0.0,0.0,0.0,0.0,0.0,0.0,0.0,0.0,0.0,0.0,0.0,0.0,0.0,0.0,0.0,0.0,0.0,0.0,0.0,0.0,0.0,0.0,0.0,0.0,0.0,0.0,0.0,-2.5502,0.0,0.0,0.0,0.0,0.0,0.0,0.0,0.0,0.0,0.0,0.0,0.0,0.0,0.0,0.0,0.0,0.0,0.0,0.0,0.0,0.0,0.0,-2.2579,-2.255,-2.0853,-1.9993,-1.9988,-1.9998,-1.999,-1.9992,-2.0117,-2.061,-2.1457,0.0,0.0,0.0,0.0,0.0,0.0,0.0,0.0,0.0,0.0,0.0,0.0,0.0,0.0,0.0,0.0,0.0,0.0,0.0,0.0,0.0,0.0,0.0,0.0,0.0,0.0,1.0213,1.027,1.0896,0.0,0.0,0.0,0.0,0.0,0.0,0.0,0.0,0.0,1.2159,1.2197,1.2224,1.1968,1.3016,1.3909,1.4261,1.5398,1.6411,1.6791,1.6951,1.7229,0.0,0.0,0.0,0.0,0.0,0.0,0.0,0.0,0.0,0.0,0.0,0.0,0.0,0.0,0.0,0.0,0.0,0.0,0.0,0.0,0.0,0.0,0.0,0.0,0.0,0.0,0.0,-2.5359,-2.5357,0.0,0.0,0.0,0.0,0.0,0.0,0.0,0.0,0.0,0.0,0.0,-2.5376,-2.4849,0.0,0.0,0.0,0.0,0.0,0.0,0.0,0.0,0.0,0.0,0.0,0.0,-2.2236,-2.165,-2.052,-1.9952,-1.9998,-1.9979,-2.002,-2.0079,-2.0161,-2.0381,-2.0758,0.0,0.0,0.0,0.0,0.0,0.0,0.0,0.0,0.0,0.0,0.0,0.0,0.0,0.0,0.0,0.0,0.0,0.0,0.0,0.0,0.0,0.0,0.0,0.0,0.0,1.1174,0.0,0.0,0.0,0.0,0.0,0.0,0.0,0.0,0.0,0.0,0.0,1.1697,1.1166,1.1392,1.1628,1.1519,1.2452,1.343,0.0,0.0,0.0,0.0,0.0,0.0,0.0,0.0,0.0,0.0,0.0,0.0,0.0,0.0,2.2591,2.1827,2.2199,2.2553,2.2215,0.0,0.0,0.0,0.0,0.0,0.0,0.0,0.0,0.0,0.0,0.0,0.0,0.0,0.0,-2.5203,0.0,-2.5157,0.0,0.0,0.0,0.0,0.0,0.0,0.0,0.0,-2.5293,-2.5265,-2.5224,-2.4427,-2.3848,0.0,-2.3,-2.2851,0.0,0.0,0.0,0.0,0.0,0.0,0.0,0.0,-2.176,-2.1159,-2.0318,-1.9884,-1.9934,-1.9926,-1.9958,-2.004,-2.0124,-2.0212,-2.0313,-2.0954,-2.1184,0.0,0.0,0.0,0.0,0.0,0.0,0.0,0.0,0.0,0.0,0.0,0.0,0.0,0.0,0.0,0.0,0.0,0.0,0.0,0.0,0.0,0.0,0.0,1.0822,0.0,0.0,0.0,0.0,0.0,0.0,0.0,0.0,0.0,1.2083,1.144,1.0797,1.0466,1.0846,1.1267,1.1427,0.0,0.0,0.0,0.0,0.0,0.0,0.0,1.7702,1.8332,1.9222,2.0028,2.0419,2.0946,2.1205,2.1013,0.0,0.0,2.1353,2.1851,2.2233,2.1928,2.2392,2.2876,2.3003,2.3119,2.3199,0.0,0.0,0.0,0.0,0.0,0.0,0.0,0.0,-2.5,-2.4998,0.0,-2.4994,0.0,0.0,0.0,0.0,0.0,-2.513,0.0,0.0,-2.5076,-2.5082,-2.5133,-2.426,-2.3409,-2.2623,-2.2585,-2.2055,-2.1173,-2.2102,0.0,0.0,0.0,0.0,0.0,0.0,-2.1152,-2.1017,-2.0214,-1.9801,-1.9818,-1.9818,-1.9842,-1.9908,-2.0039,-2.0134,-2.0192,-2.0338,-2.0799,-2.16,-2.1756,0.0,0.0,0.0,0.0,0.0,0.0,0.0,0.0,0.0,0.0,0.0,0.0,0.0,0.0,0.0,0.0,0.0,0.0,0.0,0.0,0.963,0.0,0.0,0.0,0.0,0.0,0.0,0.0,0.0,0.0,0.0,1.0864,1.061,1.0261,1.0064,0.0,0.0,0.0,0.0,1.3552,1.4014,1.5017,1.6013,1.6897,1.7144,1.765,1.8787,0.0,0.0,1.9857,2.0181,2.0391,2.0208,2.0478,2.0708,2.1219,2.1951,2.2274,2.1741,2.2192,2.2703,2.2876,2.302,2.3144,-2.4749,0.0,0.0,0.0,0.0,-2.4883,-2.4888,-2.4893,-2.4847,-2.4907,-2.4974,-2.4794,0.0,0.0,0.0,0.0,0.0,0.0,-2.4942,-2.5051,-2.4961,-2.4961,-2.493,-2.3518,-2.2646,-2.2294,-2.1171,-2.0462,-2.0208,-2.0481,-2.136,-2.2754,0.0,0.0,0.0,0.0,-2.0778,-2.0195,-1.9876,-1.9751,-1.982,-1.982,-1.9842,-1.9955,-2.0028,-2.0079,-2.0211,-2.0347,-2.0512,-2.0772,-2.1429,0.0,0.0,0.0,0.0,0.0,0.0,0.0,0.0,0.0,0.0,0.0,0.0,0.0,0.0,0.0,0.0,0.0,0.0,0.0,0.9167,0.8813,0.8929,0.0,0.0,0.0,0.0,0.0,0.0,0.0,0.0,0.0,1.0115,0.9814,0.9718,0.0,0.0,1.1175,1.1778,1.2372,1.2997,1.3658,1.4118,0.0,1.581,1.6361,1.7176,1.8616,1.9935,2.083,2.0879,2.1296,2.1588,2.1302,2.1161,2.1253,2.1518,2.1596,2.1678,2.1601,2.2084,2.2605,2.279,2.302,2.3234,-2.4594,-2.4734,-2.4731,-2.4746,-2.4779,-2.4746,-2.4738,-2.4711,-2.4663,-2.4695,-2.4753,-2.4564,-2.4604,-2.4812,-2.464,0.0,0.0,0.0,-2.4731,-2.4837,-2.487,-2.4837,-2.47,-2.3088,-2.2262,-2.2112,-2.087,-2.0075,-1.9686,-2.0049,-2.0554,-2.1176,0.0,0.0,-2.1054,-2.0671,-2.0238,-1.9694,-1.9673,-1.966,-1.9718,-1.9744,-1.9832,-1.9904,-1.9936,-2.0001,-2.0124,-2.0284,-2.0359,-2.0362,-2.0938,-2.0358,0.0,0.0,0.0,0.0,0.0,0.0,0.0,0.0,0.0,0.0,0.0,0.9311,0.9899,0.0,0.0,0.0,0.8749,0.8403,0.7917,0.7817,0.0,0.0,0.0,0.0,0.0,0.0,0.0,1.002,0.9607,0.9465,0.9562,0.9361,0.9465,1.0277,1.06,1.1124,1.1877,0.0,1.2757,1.3665,1.3975,1.4613,1.5947,1.6512,1.7361,1.9083,2.0642,2.1572,2.1383,2.1874,2.2188,2.1904,2.1894,2.1925,2.1972,2.1809,2.1698,2.1841,2.245,2.2952,2.3072,2.3431,2.3678,-2.4495,-2.4476,-2.4561,-2.4642,-2.4742,-2.4626,-2.4578,-2.4566,-2.4429,-2.4375,-2.4393,-2.4339,-2.4339,-2.4394,-2.4266,0.0,-2.4407,-2.4459,-2.4526,-2.4607,-2.4726,-2.4776,-2.4617,-2.3068,-2.2219,-2.2058,-2.134,-2.0462,-1.9573,-2.035,-2.0373,-1.9516,-1.9681,-2.0145,-2.08,-2.0094,-1.966,-1.9578,-1.9662,-1.9713,-1.9787,-1.9819,-1.9913,-2.0007,-2.004,-2.0099,-2.0096,-2.0058,-2.003,-1.9967,-1.9812,-2.024,-2.118,0.0,0.0,0.0,0.0,0.0,0.0,0.0,0.0,0.0,0.0,0.0,0.0,0.0,0.0,0.8471,0.7609,0.0,0.6471,0.6898,0.0,0.0,0.0,0.9465,0.9361,0.9458,0.9413,0.9008,0.0,0.0,0.9106,0.9159,0.9517,1.0438,1.0667,1.1023,1.1918,1.2262,1.2861,1.3861,1.4379,1.5248,1.658,1.714,1.7954,1.9636,2.0935,2.1467,2.1459,2.196,2.2297,2.2249,2.247,2.2733,2.2535,2.2422,2.2359,2.2638,2.314,2.3596,2.3727,2.4173,2.4392,-2.4411,-2.4339,-2.4375,-2.4393,-2.4429,-2.4374,-2.4338,-2.4284,-2.4248,-2.4339,-2.4461,-2.4302,-2.4284,-2.4394,-2.4374,-2.4391,-2.4476,-2.4547,-2.458,-2.4596,-2.4613,-2.4647,-2.4575,-2.3584,-2.2738,-2.1993,-2.1176,-2.0329,-1.9549,-1.973,-1.9715,-1.9516,-1.9555,-1.9662,-1.9829,-1.9648,-1.9822,-2.0338,-2.0357,-2.0683,-2.1337,-2.1371,-2.1492,-2.1719,-2.1668,-2.1387,-2.0816,-1.8942,-1.771,-1.7148,-1.4953,-1.4131,-1.5027,-1.2639,0.0,0.0,0.0,0.0,0.0,0.0,0.0,0.0,0.0,0.7092,0.8078,0.0,0.7419,0.0,0.697,0.6668,0.6932,0.7053,0.0,0.0,0.8587,0.889,0.9061,0.9008,0.8903,0.8738,0.858,0.8586,0.8725,0.8738,0.9145,1.0123,1.0498,1.0854,1.1351,1.2295,1.3065,1.3559,1.4151,1.4853,1.5836,1.6938,1.8044,1.9045,1.9793,2.0492,2.1348,2.1903,2.2518,2.3179,2.3379,2.3434,2.3549,2.3314,2.3448,2.4249,2.4107,2.3904,2.4465,2.4985,2.5269,-2.4284,-2.4266,-2.4266,-2.421,-2.4172,-2.421,-2.4229,-2.4191,-2.4191,-2.4266,-2.4338,-2.4266,-2.421,-2.4266,-2.4284,-2.4284,-2.4248,-2.4428,-2.4479,-2.4428,-2.4515,-2.4532,-2.4478,-2.3628,-2.2947,-2.2417,-2.1235,-2.0394,-1.9926,-1.9571,-1.9372,-1.9378,-1.936,-1.9344,-1.9344,-1.9743,-2.0147,-2.0537,-2.0889,-2.1342,-2.19,-2.1865,-2.1996,-2.2234,-2.222,-2.2018,-2.1633,-1.881,-1.7099,-1.665,-1.353,-1.1375,-1.063,-0.9881,-0.8264,0.0,0.0,0.0,0.0,0.0,0.0,0.0,0.0,0.0,0.0,0.0,0.7041,0.7141,0.6493,0.6313,0.6865,0.6707,0.6919,0.7812,0.7996,0.8309,0.885,0.8798,0.8685,0.8626,0.8474,0.8474,0.8573,0.8784,0.9145,0.971,1.0344,1.0913,1.1326,1.2235,1.3033,1.3471,1.4204,1.4959,1.5708,1.7002,1.8102,1.8794,1.958,2.0456,2.1611,2.2249,2.2848,2.3634,2.3979,2.41,2.4084,2.4028,2.4139,2.4513,2.4455,2.4379,2.4804,2.522,2.5438,-2.4173,-2.4154,-2.428,-2.42,-2.4083,-2.4203,-2.4225,-2.417,-2.4151,-2.4151,-2.4151,-2.4153,-2.4116,-2.4116,-2.4173,-2.4115,-2.3978,-2.4266,-2.4339,-2.4229,-2.4393,-2.4429,-2.4357,-2.3547,-2.3088,-2.2941,-2.1562,-2.0813,-2.0619,-1.992,-1.9557,-1.9477,-1.9496,-1.9461,-1.9411,-2.026,-2.0749,-2.0786,-2.148,-2.1935,-2.2113,-2.1779,-2.1699,-2.1916,-2.1654,-2.1445,-2.1233,-1.8174,-1.6374,-1.6165,-1.2785,-0.9702,-0.728,-0.7012,-0.4574,0.0,0.1675,0.0,0.0,0.0,0.0,0.0,0.0,0.0,0.0,0.687,0.6853,0.7015,0.6221,0.5917,0.6592,0.6159,0.634,0.7385,0.7461,0.7783,0.8646,0.8633,0.8521,0.8527,0.8421,0.8368,0.8474,0.8995,0.9249,0.9361,1.0138,1.0964,1.1554,1.2244,1.2968,1.361,1.4419,1.5236,1.6148,1.717,1.8051,1.8781,1.9664,2.0822,2.1843,2.2505,2.304,2.3666,2.4297,2.465,2.4334,2.4592,2.4773,2.4825,2.487,2.491,2.4925,2.5164,2.5191,-2.4095,-2.4012,-2.4584,-2.4747,-2.4554,-2.4577,-2.435,-2.3937,-2.3896,-2.3858,-2.3876,-2.3878,-2.3959,-2.4097,-2.4116,-2.421,-2.4303,-2.4376,-2.4358,-2.4284,-2.4248,-2.4284,-2.4303,-2.4082,-2.3621,-2.2997,-2.263,-2.2081,-2.1406,-2.1188,-2.1062,-2.1007,-2.0989,-2.0932,-2.0852,0.0,0.0,0.0,-2.279,-2.3228,-2.3277,-2.1424,-2.0463,-2.0526,-1.8725,0.0,-1.6023,-1.3314,-1.1345,-1.0282,-0.6947,0.0,0.0,0.0,0.0,0.0,0.0,0.0,0.0,0.0,0.0,0.0,0.4729,0.5167,0.5833,0.599,0.622,0.6691,0.6371,0.6134,0.6249,0.6027,0.6288,0.7348,0.7241,0.745,0.8468,0.8427,0.8275,0.8268,0.8109,0.8008,0.8109,0.8521,0.9093,0.9517,1.0095,1.0905,1.1868,1.2641,1.3361,1.3876,1.4599,1.5538,1.6744,1.7086,1.7822,1.8872,1.9355,2.0107,2.1355,2.1826,2.2396,2.3432,2.4271,2.4784,2.4768,2.5473,2.6066,2.6417,2.6158,2.5708,2.5115,2.5192,2.5366,-2.385,0.0,-2.4114,-2.4418,0.0,-2.4254,-2.4377,-2.4779,-2.4028,-2.4013,-2.4543,-2.446,-2.4541,-2.4646,-2.43,-2.4316,-2.46,-2.474,-2.4961,-2.5264,-2.4882,-2.4701,-2.4739,-2.4699,-2.42,-2.3355,-2.3315,-2.2817,-2.194,-2.1544,-2.1306,-2.1249,-2.1249,-2.1169,-2.1061,-2.1715,-2.2349,-2.294,-2.212,-2.1751,-2.1817,-1.953,-1.8347,-1.8469,-1.73,0.0,0.0,0.0,0.0,0.0,0.0,0.0,0.0,-0.274,0.0,-0.1006,-0.0614,0.0279,0.1673,0.2007,0.2563,0.3564,0.4012,0.4618,0.55,0.5524,0.5775,0.6362,0.6065,0.5833,0.5878,0.5677,0.595,0.6918,0.6966,0.7337,0.8256,0.8321,0.8221,0.8168,0.8055,0.8008,0.8309,0.883,0.9406,0.9932,1.0744,1.151,1.2314,1.2811,1.3342,1.4183,1.5245,1.6067,1.6717,1.7523,1.8211,1.9309,1.9841,2.0553,2.1685,2.2144,2.2703,2.3649,2.4395,2.4879,2.5153,2.5885,2.6505,2.643,2.6306,2.5969,2.5338,2.5022,2.4857,-2.3692,-2.3544,-2.3613,-2.4046,-2.4644,-2.404,-2.452,-2.562,0.0,0.0,0.0,-2.5071,-2.5129,-2.5345,-2.4642,-2.4593,-2.5054,-2.5256,-2.5681,-2.6245,-2.5659,-2.5354,-2.5354,-2.531,-2.486,-2.4082,-2.3934,-2.345,-2.2669,-2.1946,-2.1533,-2.1448,-2.1448,-2.1179,-2.0713,-2.0861,-2.1365,-2.2048,-2.0589,-1.9645,-1.9393,-1.7039,-1.5843,-1.6075,-1.5493,-1.5113,-1.4919,-1.2077,-1.0351,-0.9901,-0.6514,-0.4395,-0.4067,-0.3188,-0.2354,-0.1679,-0.157,-0.0898,0.0505,0.0673,0.1288,0.2627,0.3299,0.4181,0.5492,0.5304,0.539,0.6086,0.5633,0.5345,0.555,0.5403,0.5622,0.6534,0.6745,0.7235,0.8209,0.8215,0.8115,0.8109,0.7949,0.8109,0.8672,0.9204,0.9821,1.0438,1.1309,1.2255,1.2774,1.3132,1.3672,1.4606,1.573,1.6642,1.7107,1.8003,1.917,2.003,2.0677,2.1384,2.2218,2.2799,2.3334,2.3921,2.4517,2.4958,2.5339,2.6046,2.6421,2.6026,2.5966,2.5889,2.5415,2.4655,2.4155,-2.3939,-2.3318,-2.394,-2.4541,-2.5118,-2.5013,-2.509,-2.5282,-2.5323,-2.5374,-2.5453,-2.4779,-2.4991,-2.5787,-2.5049,-2.5231,-2.6059,-2.6013,-2.6085,-2.6217,-2.5997,-2.5901,-2.5948,-2.5901,-2.5775,-2.5535,-2.4831,-2.4367,-2.4117,-2.3342,-2.2929,-2.2805,-2.281,-2.1753,-1.983,-1.8401,-1.7584,-1.7418,-1.8883,-1.875,-1.6941,-1.4545,-1.3283,-1.32,-1.1006,-0.946,-0.8936,-0.82,-0.7396,-0.6821,-0.5474,-0.4618,-0.4405,-0.3355,-0.2465,-0.1959,-0.1794,-0.1347,-0.0505,-0.0112,0.0728,0.1959,0.213,0.3072,0.5324,0.5097,0.505,0.5732,0.5311,0.5039,0.5293,0.5238,0.5614,0.6637,0.6745,0.7074,0.8109,0.7996,0.7836,0.7895,0.7836,0.799,0.8573,0.9145,0.9769,1.0626,1.1493,1.2157,1.317,1.4046,1.4664,1.5163,1.5927,1.7014,1.8104,1.8963,1.9913,2.1336,2.1533,2.1895,2.277,2.3038,2.3377,2.3979,2.4517,2.4934,2.5317,2.6066,2.6489,2.6452,2.5966,2.546,2.5255,2.4235,2.3535,-2.4427,-2.3789,-2.4336,-2.5056,-2.5825,-2.6095,-2.5906,-2.5428,-2.5863,-2.6121,-2.6127,-2.5992,-2.6147,-2.6466,-2.5787,-2.5901,-2.6662,-2.6555,-2.6762,-2.7215,-2.6693,-2.6478,-2.653,-2.6417,-2.6108,-2.5649,-2.526,-2.4827,-2.4208,-2.2337,-2.1452,-2.1527,-2.0381,-1.9091,-1.7849,-1.713,-1.6108,-1.4782,-1.5502,-1.5502,-1.4647,-1.2311,-1.107,-1.1008,-0.9623,-0.8679,-0.8103,-0.7509,-0.7025,-0.6598,-0.5534,-0.4824,-0.4567,-0.3633,-0.2856,-0.2296,-0.213,-0.1569,-0.0505,0.0336,0.1066,0.1682,0.2184,0.2905,0.4061,0.4125,0.4349,0.4901,0.4901,0.4956,0.5069,0.5285,0.5778,0.6534,0.6804,0.7235,0.7783,0.7836,0.7723,0.7676,0.7676,0.8037,0.8837,0.9204,0.9925,1.104,1.195,1.2793,1.3536,1.4555,1.5402,1.5784,1.6764,1.7861,1.8992,1.984,2.0664,2.1575,2.1902,2.2203,2.2844,2.3201,2.3739,2.4188,2.471,2.5224,2.5659,2.626,2.6556,2.6309,2.6178,2.5756,2.5244,2.4321,2.3745,-2.4816,-2.4167,-2.4513,-2.5206,-2.6126,-2.6696,-2.6485,-2.5797,-2.6353,-2.6673,-2.6725,-2.6862,-2.7006,-2.7121,-2.6461,-2.6496,-2.7095,-2.7048,-2.7402,-2.7974,-2.7161,-2.6763,-2.6712,-2.6193,-2.5456,-2.473,-2.4203,-2.351,-2.256,-2.0167,-1.919,-1.9394,-1.758,-1.6376,-1.5985,-1.5666,-1.4641,-1.2938,-1.2539,-1.2441,-1.2482,-1.0693,-0.9769,-0.9621,-0.9361,-0.8995,-0.8474,-0.7717,-0.7187,-0.6869,-0.5801,-0.498,-0.4673,-0.3907,-0.3244,-0.2689,-0.2482,-0.1876,-0.063,0.0401,0.1148,0.1548,0.2329,0.2826,0.2995,0.3307,0.3735,0.4181,0.4625,0.4901,0.5171,0.55,0.5941,0.649,0.6918,0.7295,0.7622,0.7663,0.7709,0.7655,0.7811,0.8302,0.9083,0.9553,1.0328,1.1692,1.2735,1.3488,1.4158,1.5123,1.587,1.6824,1.7788,1.8759,1.9541,2.0456,2.1224,2.1698,2.2123,2.2572,2.3024,2.3653,2.4135,2.4477,2.4958,2.5492,2.6046,2.6285,2.6368,2.6221,2.5919,2.5403,2.4632,2.4093,2.3667,-2.4843,-2.4257,-2.4275,-2.4694,-2.548,-2.6151,-2.6335,-2.6286,-2.6822,-2.6954,-2.655,-2.6258,-2.6527,-2.7308,-2.6792,-2.6888,-2.7571,-2.7561,-2.7529,-2.7564,-2.6929,-2.6521,-2.6187,-2.4292,-2.3118,-2.2574,-2.0441,-1.9322,-1.8981,-1.7424,-1.6904,-1.722,-1.6204,-1.538,-1.4862,-1.324,-1.2057,-1.143,-1.1266,-1.0953,-1.0598,-1.0485,-1.0205,-0.9799,-0.942,-0.9047,-0.8725,-0.7818,-0.7182,-0.6853,-0.5882,-0.5062,-0.4522,-0.4024,-0.3522,-0.2916,-0.3051,-0.2724,-0.1641,-0.0979,0.0122,0.1525,0.2072,0.2507,0.3027,0.3298,0.3633,0.4125,0.4519,0.5011,0.5609,0.5668,0.6055,0.6815,0.6982,0.709,0.7447,0.7616,0.7757,0.8037,0.8305,0.8792,0.9615,1.024,1.1124,1.2374,1.3122,1.3947,1.4993,1.5653,1.6662,1.8154,1.9019,1.9358,2.0077,2.0904,2.1589,2.2095,2.2558,2.3009,2.3551,2.3925,2.4177,2.4759,2.5253,2.5631,2.5779,2.5932,2.6027,2.5951,2.518,2.3929,2.3257,2.3102,2.3007,-2.5328,-2.468,-2.487,-2.4984,-2.5183,-2.5607,-2.5314,-2.4574,-2.4699,-2.4456,-2.3856,-2.3579,-2.4941,-2.7308,-2.6195,-2.5834,-2.5998,-2.4888,-2.4409,-2.4508,-2.3929,-2.3634,-2.3427,-2.2149,-2.141,-2.1298,-1.9522,-1.8709,-1.8494,-1.6841,-1.5224,-1.3961,-1.3645,-1.3198,-1.2452,-1.1809,-1.124,-1.0829,-1.1011,-1.0957,-1.0568,-1.0459,-1.0198,-0.9725,-0.9465,-0.9001,-0.8474,-0.7717,-0.7133,-0.6764,-0.594,-0.5319,-0.4958,-0.4552,-0.3963,-0.3202,-0.234,-0.175,-0.1261,-0.036,0.0714,0.1926,0.2711,0.3147,0.3022,0.3436,0.391,0.4181,0.457,0.5011,0.5399,0.5832,0.6431,0.6928,0.7144,0.7361,0.7671,0.7767,0.8,0.8604,0.8915,0.9448,1.0354,1.1293,1.2089,1.2812,1.3324,1.4233,1.5222,1.6083,1.7211,1.8549,1.9568,2.0322,2.0733,2.1131,2.1732,2.2235,2.2558,2.2965,2.3739,2.4094,2.4385,2.4918,2.5406,2.5671,2.5559,2.5631,2.5669,2.5333,2.4739,2.3608,2.2876,2.3057,2.3214,-2.6036,-2.5619,-2.5754,-2.5509,-2.4994,-2.5137,-2.4325,-2.3032,-2.3035,-2.2656,-2.1983,-2.2092,-2.3586,-2.5657,-2.4729,-2.4141,-2.3905,-2.263,-2.213,-2.2187,-2.1714,-2.1419,-2.1283,-1.992,-1.9323,-1.9122,-1.7796,-1.7141,-1.7143,-1.5721,-1.3689,-1.1952,-1.2143,-1.1954,-1.1252,-1.1302,-1.1199,-1.0942,-1.118,-1.1085,-1.077,-1.057,-1.0143,-0.9603,-0.9425,-0.8998,-0.8276,-0.7605,-0.7119,-0.6707,-0.6088,-0.5506,-0.514,-0.4972,-0.4424,-0.3447,-0.2219,-0.1407,-0.1254,0.0119,0.1304,0.2276,0.3247,0.3634,0.3442,0.3871,0.4244,0.4409,0.496,0.5469,0.569,0.6298,0.6793,0.7078,0.745,0.7728,0.7818,0.804,0.8585,0.9225,0.9744,1.0433,1.1486,1.2521,1.3303,1.3547,1.4028,1.4805,1.5762,1.6879,1.7933,1.9132,2.0335,2.089,2.1166,2.1554,2.1969,2.2328,2.2649,2.3187,2.3809,2.4204,2.4695,2.5307,2.5775,2.5872,2.5631,2.5539,2.5029,2.403,2.3615,2.3529,2.285,2.3229,2.3275,-2.6925,-2.6836,-2.6841,-2.5953,-2.4879,-2.4742,-2.3711,-2.219,-2.259,-2.2543,-2.2157,-2.2645,-2.2949,-2.2786,-2.2254,-2.2085,-2.2029,-2.1714,-2.1612,-2.1763,-2.1013,-2.0745,-2.0715,-1.7994,-1.6533,-1.6423,-1.453,-1.3128,-1.259,-1.2659,-1.2448,-1.1894,-1.241,-1.248,-1.1951,-1.1751,-1.1768,-1.1657,-1.1457,-1.1195,-1.0925,-1.0615,-1.0115,-0.9477,-0.924,-0.8877,-0.8282,-0.7565,-0.7101,-0.6813,-0.6229,-0.5638,-0.5097,-0.5104,-0.4684,-0.3824,-0.3087,-0.247,-0.1724,-0.0062,0.1489,0.2523,0.3149,0.361,0.4122,0.4503,0.4786,0.484,0.5817,0.6502,0.681,0.6981,0.7203,0.7615,0.7907,0.7924,0.783,0.8723,0.9417,1.0027,1.0821,1.1875,1.3152,1.3932,1.443,1.4839,1.5382,1.621,1.7266,1.8081,1.9107,2.0309,2.0966,2.1042,2.1277,2.1827,2.2328,2.274,2.329,2.3809,2.4256,2.4719,2.5214,2.5635,2.5952,2.6,2.5692,2.5081,2.427,2.3633,2.3633,2.3392,2.285,2.2763,2.2903,-2.6118,-2.5013,-2.4239,-2.3607,-2.3226,-2.3359,-2.2665,-2.1445,-2.1429,-2.0751,-1.9864,-2.0136,-2.002,-1.9514,-1.9377,-1.9683,-2.0146,-1.9053,-1.8508,-1.8549,-1.8029,-1.7615,-1.7218,-1.5717,-1.4911,-1.4583,-1.3521,-1.2713,-1.2425,-1.2305,-1.2118,-1.1996,-1.2174,-1.2112,-1.1809,-1.1685,-1.1549,-1.1261,-1.1193,-1.0882,-1.0316,-1.0027,-0.9471,-0.864,-0.8924,-0.8683,-0.779,-0.7483,-0.7125,-0.6718,-0.6294,-0.5974,-0.5691,-0.4871,-0.403,-0.3387,-0.2478,-0.1487,-0.0445,0.1142,0.2524,0.3628,0.3786,0.4128,0.4779,0.4913,0.5114,0.5948,0.6484,0.7062,0.7584,0.7704,0.7788,0.7916,0.8153,0.8486,0.9026,0.95,1.0215,1.1654,1.2937,1.3836,1.4076,1.4863,1.541,1.5686,1.6198,1.6988,1.792,1.8783,1.969,2.0588,2.1361,2.1746,2.1712,2.2203,2.274,2.3246,2.3739,2.4204,2.4655,2.4926,2.5389,2.575,2.6097,2.5663,2.5193,2.4338,2.3519,2.3254,2.3288,2.3426,2.2823,2.2963,2.3119,-2.5384,-2.4215,-2.3378,-2.2769,-2.2369,-2.2478,-2.1773,-2.064,-2.0415,-1.9661,-1.8725,-1.8816,-1.8711,-1.8272,-1.8087,-1.8271,-1.8689,-1.7356,-1.657,-1.6467,-1.6228,-1.5874,-1.5352,-1.4638,-1.4291,-1.4103,-1.3459,-1.2981,-1.2621,-1.2236,-1.1926,-1.1794,-1.1802,-1.1677,-1.1435,-1.1435,-1.1247,-1.0996,-1.0933,-1.0541,-1.0072,-0.9662,-0.908,-0.8361,-0.855,-0.8254,-0.7286,-0.7154,-0.6906,-0.6527,-0.6229,-0.5963,-0.5602,-0.422,-0.3137,-0.2578,-0.1388,-0.0394,0.045,0.1786,0.3101,0.4134,0.4187,0.4426,0.516,0.5279,0.5892,0.6632,0.7123,0.7512,0.8037,0.8421,0.848,0.8429,0.8572,0.9065,1.0074,1.0471,1.1533,1.3042,1.4294,1.4867,1.4986,1.5669,1.6238,1.6479,1.7058,1.7823,1.8685,1.9455,2.0272,2.0913,2.165,2.217,2.2388,2.2875,2.3009,2.3465,2.4105,2.4574,2.4895,2.5214,2.5545,2.5881,2.5748,2.5188,2.4488,2.3624,2.3175,2.2892,2.3212,2.3539,2.3309,2.3259,2.3358,-2.4745,-2.4576,-2.472,-2.3599,-2.2469,-2.2216,-2.1236,-2.0039,-1.9824,-1.9629,-1.9206,-1.9458,-1.9394,-1.904,-1.847,-1.8197,-1.7965,-1.7222,-1.6582,-1.6185,-1.6117,-1.5798,-1.5362,-1.4706,-1.4446,-1.4414,-1.3657,-1.2944,-1.2329,-1.2064,-1.1729,-1.1457,-1.1442,-1.1247,-1.0807,-1.0996,-1.1122,-1.0982,-1.0555,-1.0301,-1.0358,-0.9627,-0.8918,-0.8361,-0.8135,-0.7603,-0.6911,-0.6584,-0.6441,-0.6326,-0.6005,-0.5484,-0.4486,-0.3151,-0.2047,-0.1289,-0.0064,0.0514,0.0701,0.1823,0.304,0.3969,0.4051,0.4486,0.5251,0.5951,0.6585,0.6966,0.7471,0.7991,0.835,0.8884,0.9235,0.9024,0.9238,0.9899,1.0831,1.176,1.28,1.4057,1.4974,1.5414,1.5644,1.6405,1.7135,1.7507,1.8182,1.8949,1.9605,2.0218,2.101,2.1623,2.203,2.2388,2.2965,2.3508,2.3508,2.3638,2.4338,2.4918,2.513,2.5422,2.5815,2.6144,2.5916,2.5382,2.4726,2.3915,2.3564,2.3367,2.3626,2.3628,2.3354,2.323,2.3382,-2.311,-2.2933,-2.2206,-2.1622,-2.1181,-2.1385,-2.1126,-2.0705,-2.0526,-2.0164,-1.9813,-1.9986,-1.9749,-1.9062,-1.8638,-1.8437,-1.8176,-1.7543,-1.6869,-1.6277,-1.5989,-1.5663,-1.5204,-1.4616,-1.4082,-1.3605,-1.283,-1.2451,-1.2327,-1.1927,-1.1568,-1.1403,-1.091,-1.0688,-1.0575,-1.0351,-1.0161,-1.0028,-0.997,-0.9646,-0.9005,-0.8812,-0.8301,-0.7461,-0.7199,-0.6872,-0.6478,-0.6416,-0.6086,-0.555,-0.5286,-0.4417,-0.2948,-0.1944,-0.1134,-0.0397,0.0463,0.1722,0.2902,0.3144,0.3721,0.4748,0.5081,0.5603,0.6323,0.6642,0.709,0.7614,0.8137,0.8506,0.893,0.9139,0.9412,0.9346,0.9863,1.0696,1.1813,1.3168,1.4141,1.4629,1.5705,1.6364,1.6624,1.7375,1.8197,1.8524,1.9273,1.9978,2.0278,2.0944,2.1479,2.1746,2.2109,2.2618,2.3231,2.3752,2.3964,2.4131,2.4759,2.5192,2.54,2.5626,2.603,2.615,2.593,2.5541,2.4849,2.4505,2.4195,2.3815,2.385,2.3596,2.3162,2.3151,2.3383,-2.2002,-2.1842,-2.1151,-2.0775,-2.0722,-2.1031,-2.1094,-2.1031,-2.0582,-2.0253,-2.0023,-1.9922,-1.9652,-1.9071,-1.8695,-1.8434,-1.8077,-1.7471,-1.6751,-1.605,-1.6038,-1.56,-1.4814,-1.4241,-1.3655,-1.3024,-1.2598,-1.224,-1.1948,-1.1787,-1.1482,-1.0969,-1.0765,-1.0562,-1.0411,-1.0143,-0.9909,-0.9687,-0.9539,-0.9167,-0.8447,-0.8166,-0.7647,-0.6872,-0.6749,-0.635,-0.5811,-0.5683,-0.5488,-0.4818,-0.4079,-0.2876,-0.1675,-0.0872,0.0,0.0871,0.1542,0.2614,0.422,0.4204,0.4478,0.5345,0.5679,0.6075,0.6868,0.6999,0.7517,0.8296,0.8689,0.8958,0.9396,1.0078,1.0268,1.0332,1.0717,1.1531,1.2818,1.4282,1.5148,1.5469,1.6223,1.6817,1.7343,1.797,1.8881,1.9331,1.9901,2.0573,2.0822,2.1396,2.1698,2.1874,2.2203,2.2785,2.3478,2.3948,2.4354,2.4719,2.5169,2.5454,2.568,2.5848,2.6156,2.6068,2.5887,2.5634,2.504,2.5298,2.5195,2.4747,2.4285,2.412,2.3901,2.3454,2.3517,-2.1404,-2.1325,-2.121,-2.1094,-2.1031,-2.0903,-2.0764,-2.07,-1.9987,-1.9846,-1.989,-1.9441,-1.9121,-1.9044,-1.8572,-1.8113,-1.7687,-1.7083,-1.646,-1.5914,-1.5889,-1.5513,-1.4195,-1.377,-1.327,-1.2729,-1.2796,-1.2294,-1.1421,-1.1669,-1.1381,-1.0541,-1.0829,-1.0823,-1.0194,-1.0203,-0.9832,-0.9441,-0.9136,-0.8716,-0.8247,-0.7777,-0.7125,-0.64,-0.6494,-0.6036,-0.5017,-0.457,-0.437,-0.4156,-0.241,-0.1273,-0.0737,0.0268,0.1476,0.2546,0.288,0.3675,0.4607,0.5014,0.5282,0.5672,0.6075,0.6342,0.6872,0.7521,0.8037,0.8742,0.9198,0.9588,1.0142,1.1017,1.1703,1.1888,1.1943,1.2618,1.3965,1.4932,1.5525,1.6099,1.6549,1.6944,1.7709,1.8417,1.9056,1.9579,2.0105,2.0759,2.1264,2.1698,2.2016,2.2203,2.2402,2.292,2.3565,2.4063,2.4492,2.5052,2.5416,2.5605,2.5901,2.6101,2.635,2.62,2.6051,2.5725,2.5695,2.6023,2.5915,2.5432,2.5129,2.4997,2.4547,2.3969,2.3589,-2.1158,-2.1019,-2.0752,-2.0582,-2.0529,-2.014,-2.0118,-2.0237,-1.9802,-1.9605,-1.9594,-1.9264,-1.8787,-1.8307,-1.791,-1.7706,-1.7442,-1.6821,-1.6576,-1.6381,-1.6016,-1.5179,-1.3991,-1.3387,-1.3034,-1.2646,-1.2237,-1.1806,-1.1589,-1.1532,-1.1179,-1.0747,-1.0283,-0.9961,-0.94,-0.9066,-0.8564,-0.821,-0.8105,-0.7808,-0.7363,-0.6929,-0.647,-0.6086,-0.5837,-0.5302,-0.4361,-0.3213,-0.246,-0.2281,-0.114,0.0067,0.0805,0.181,0.2746,0.3547,0.4215,0.4878,0.5543,0.5811,0.6137,0.6859,0.699,0.726,0.7657,0.8366,0.8882,0.9262,0.9767,1.0521,1.126,1.1826,1.2435,1.3416,1.3468,1.3717,1.4451,1.5225,1.5989,1.6503,1.7224,1.782,1.8471,1.9174,1.9811,2.0207,2.0709,2.1251,2.1698,2.1935,2.2217,2.2449,2.2678,2.3157,2.3638,2.4078,2.463,2.5301,2.5605,2.5717,2.6046,2.6349,2.6674,2.6865,2.6696,2.6427,2.663,2.6919,2.6511,2.6063,2.5551,2.5226,2.4715,2.4162,2.3804,-2.0624,-2.0431,-2.0172,-2.0053,-1.9998,-1.9747,-1.9726,-1.9781,-1.932,-1.9264,-1.9264,-1.8875,-1.8462,-1.8114,-1.7647,-1.7295,-1.7157,-1.6464,-1.5965,-1.5683,-1.518,-1.4528,-1.3907,-1.3377,-1.3013,-1.2822,-1.2213,-1.1813,-1.1657,-1.1392,-1.0876,-1.0166,-0.9829,-0.9357,-0.8699,-0.8313,-0.7864,-0.7539,-0.7509,-0.7207,-0.6498,-0.621,-0.5613,-0.5223,-0.4767,-0.4175,-0.2727,-0.1749,-0.1268,-0.0903,0.0069,0.1229,0.2245,0.303,0.3882,0.4815,0.5279,0.5881,0.6535,0.6666,0.6999,0.7587,0.7907,0.8231,0.8624,0.9268,0.9773,1.0451,1.0954,1.164,1.2443,1.287,1.3545,1.4442,1.4914,1.5099,1.5177,1.569,1.6436,1.7168,1.7831,1.8536,1.9226,1.9914,2.0372,2.0809,2.1299,2.1698,2.203,2.2217,2.2449,2.2723,2.2949,2.3334,2.3809,2.4245,2.4775,2.5438,2.5937,2.601,2.6225,2.6556,2.6808,2.707,2.7137,2.7186,2.7218,2.7247,2.7099,2.6566,2.5963,2.5526,2.5134,2.4415,2.4053,-1.9911,-1.977,-1.9594,-1.9473,-1.9539,-1.9473,-1.9407,-1.9407,-1.8787,-1.8731,-1.8808,-1.8202,-1.793,-1.8066,-1.7235,-1.689,-1.6473,-1.5833,-1.5125,-1.4489,-1.4,-1.3708,-1.3576,-1.3228,-1.2935,-1.2776,-1.2531,-1.1752,-1.1138,-1.0965,-1.0265,-0.936,-0.9201,-0.8802,-0.8015,-0.7651,-0.7412,-0.6997,-0.6852,-0.6451,-0.5852,-0.5418,-0.4834,-0.4131,-0.3549,-0.2349,-0.0846,-0.0144,-0.0146,-0.0073,0.1281,0.2448,0.3477,0.4092,0.4976,0.5903,0.6226,0.6666,0.7391,0.7582,0.7782,0.8242,0.8807,0.9192,0.9518,1.0148,1.0954,1.164,1.2258,1.2818,1.3494,1.4222,1.4815,1.54,1.5968,1.6265,1.6379,1.6425,1.6978,1.8116,1.8333,1.9069,1.9759,2.0321,2.0673,2.1251,2.1698,2.2044,2.2324,2.2555,2.2814,2.3068,2.329,2.3508,2.3979,2.4451,2.4958,2.5535,2.6173,2.6435,2.6469,2.6725,2.6876,2.7024,2.7089,2.7105,2.712,2.7149,2.7241,2.7156,2.6588,2.6269,2.5893,2.4874,2.4245,-1.9441,-1.9365,-1.8911,-1.8854,-1.8875,-1.8549,-1.8607,-1.8875,-1.8337,-1.8202,-1.8337,-1.7588,-1.7107,-1.695,-1.6333,-1.585,-1.57,-1.5133,-1.4353,-1.3484,-1.3193,-1.282,-1.2611,-1.2473,-1.2342,-1.1991,-1.0882,-1.0233,-0.9906,-0.9611,-0.9079,-0.8585,-0.8018,-0.7569,-0.6997,-0.65,-0.6007,-0.5674,-0.5644,-0.5423,-0.4922,-0.4434,-0.3934,-0.332,-0.2259,-0.0794,0.0738,0.1566,0.2112,0.2711,0.3483,0.4219,0.4531,0.5216,0.6011,0.6651,0.7061,0.7391,0.7847,0.8355,0.8801,0.9069,0.9697,1.0072,1.0332,1.1267,1.1888,1.2389,1.3078,1.3812,1.446,1.5225,1.5748,1.6151,1.6606,1.7112,1.7611,1.771,1.7886,1.8375,1.9109,1.9786,2.0233,2.0921,2.1313,2.1746,2.2044,2.2385,2.2615,2.2828,2.3127,2.3421,2.3709,2.3964,2.4282,2.4784,2.5291,2.5758,2.6314,2.6657,2.6725,2.6759,2.6909,2.6942,2.7024,2.704,2.7055,2.723,2.7338,2.7274,2.7225,2.6881,2.6368,2.5357,2.4574,-1.8721,-1.8654,-1.8307,-1.8317,-1.8405,-1.7803,-1.7725,-1.792,-1.7432,-1.7295,-1.7354,-1.6811,-1.6533,-1.6394,-1.5692,-1.5355,-1.5062,-1.4129,-1.3404,-1.282,-1.2291,-1.1768,-1.1452,-1.1273,-1.1107,-1.1186,-1.0313,-0.9569,-0.9239,-0.8769,-0.8268,-0.7643,-0.7106,-0.663,-0.5972,-0.5494,-0.5235,-0.5004,-0.4889,-0.4622,-0.4102,-0.3398,-0.2421,-0.1633,-0.0291,0.1112,0.1998,0.3144,0.383,0.4464,0.517,0.5706,0.5799,0.6195,0.6764,0.7247,0.7861,0.8236,0.8683,0.9128,0.9697,1.0205,1.0836,1.1322,1.1757,1.2565,1.313,1.3494,1.3983,1.4597,1.5391,1.6036,1.6549,1.6877,1.7268,1.7875,1.8459,1.8417,1.8536,1.9016,1.9708,2.0359,2.0921,2.141,2.1793,2.2077,2.2263,2.2569,2.2963,2.3187,2.348,2.3767,2.4131,2.442,2.4728,2.516,2.5705,2.6049,2.6418,2.664,2.6708,2.6775,2.6825,2.6859,2.6892,2.7023,2.707,2.7261,2.7474,2.7578,2.7575,2.7368,2.6795,2.5755,2.5095,-1.7949,-1.7803,-1.7647,-1.7706,-1.7784,-1.7176,-1.6968,-1.7028,-1.6524,-1.6515,-1.6298,-1.6237,-1.6097,-1.5956,-1.5188,-1.484,-1.4186,-1.3244,-1.2305,-1.1848,-1.1162,-1.064,-1.0329,-0.9873,-0.9712,-1.0346,-0.9648,-0.92,-0.8742,-0.8362,-0.7374,-0.6641,-0.6172,-0.5633,-0.499,-0.4586,-0.426,-0.3966,-0.3857,-0.3531,-0.2925,-0.2078,-0.0994,0.0583,0.1494,0.247,0.3339,0.439,0.5359,0.5653,0.6507,0.6929,0.7159,0.7147,0.7481,0.7972,0.8538,0.8941,0.9512,1.0078,1.0766,1.1454,1.2143,1.2634,1.3122,1.3554,1.4052,1.4469,1.4883,1.5391,1.6368,1.6877,1.7268,1.76,1.8093,1.8727,1.9073,1.8886,1.9371,1.9965,2.0422,2.0921,2.1313,2.1759,2.2123,2.2449,2.2601,2.2828,2.3172,2.3538,2.3824,2.4063,2.4395,2.4902,2.5253,2.5594,2.6085,2.6297,2.659,2.6624,2.6708,2.6742,2.6775,2.6758,2.6791,2.6956,2.7149,2.7338,2.7577,2.7872,2.7897,2.7709,2.7029,2.6116,2.5656,-1.7666,-1.7038,-1.7038,-1.683,-1.6473,-1.6394,-1.6524,-1.6673,-1.6306,-1.6385,-1.6315,-1.5683,-1.5251,-1.4974,-1.4049,-1.3105,-1.2432,-1.17,-1.1025,-1.0571,-1.0045,-0.9744,-0.9069,-0.8537,-0.8237,-0.8008,-0.8008,-0.7931,-0.7431,-0.6889,-0.6356,-0.5585,-0.4902,-0.4344,-0.3942,-0.3451,-0.2888,-0.2525,-0.2269,-0.1872,-0.1252,-0.0567,0.0436,0.2088,0.2824,0.3495,0.4566,0.5683,0.6397,0.6678,0.727,0.7804,0.8025,0.7969,0.8317,0.8931,0.9221,0.964,1.0332,1.1329,1.1826,1.2328,1.307,1.3631,1.3932,1.4291,1.4756,1.505,1.568,1.6358,1.7157,1.7655,1.8038,1.8417,1.9004,1.9643,1.994,2.0144,2.0333,2.0809,2.1118,2.141,2.1746,2.2077,2.2402,2.2768,2.2994,2.3216,2.3523,2.3867,2.4261,2.4451,2.4655,2.523,2.5791,2.6118,2.6486,2.6487,2.6657,2.6657,2.6708,2.6708,2.6725,2.6791,2.6891,2.7053,2.7244,2.7444,2.7683,2.7936,2.8004,2.8049,2.7428,2.6754,2.6103,-1.6899,-1.67,-1.656,-1.6482,-1.6263,-1.5903,-1.5754,-1.5762,-1.5029,-1.4665,-1.445,-1.3795,-1.3361,-1.3215,-1.2645,-1.1835,-1.1242,-1.0576,-1.0051,-0.9599,-0.9074,-0.847,-0.7783,-0.7322,-0.6777,-0.6388,-0.6395,-0.6475,-0.6237,-0.6026,-0.5448,-0.472,-0.3959,-0.3316,-0.2766,-0.2082,-0.156,-0.1126,-0.085,-0.0567,-0.0,0.0718,0.213,0.331,0.4211,0.4857,0.5479,0.6535,0.7007,0.7207,0.7749,0.8235,0.848,0.8794,0.8998,0.9533,0.9976,1.0528,1.1329,1.2328,1.2948,1.3545,1.4112,1.4478,1.4765,1.5225,1.5613,1.6073,1.6595,1.7324,1.7831,1.8471,1.8951,1.9371,1.994,2.0409,2.0809,2.1104,2.1299,2.1444,2.1554,2.1793,2.2123,2.2449,2.2723,2.3024,2.3348,2.361,2.3852,2.4245,2.4645,2.495,2.5169,2.5626,2.6082,2.6382,2.6623,2.6674,2.6708,2.6708,2.6758,2.6791,2.6858,2.6956,2.7053,2.7213,2.7461,2.7683,2.7876,2.8017,2.8102,2.8103,2.7843,2.7399,2.6646,-1.6123,-1.5974,-1.5683,-1.5604,-1.5525,-1.4816,-1.4466,-1.4243,-1.3375,-1.2865,-1.2565,-1.205,-1.1749,-1.1527,-1.1156,-1.0714,-1.026,-0.9523,-0.915,-0.8846,-0.8093,-0.733,-0.6784,-0.624,-0.5774,-0.5229,-0.5076,-0.5002,-0.5223,-0.5104,-0.4528,-0.3743,-0.2959,-0.232,-0.1546,-0.0954,-0.0439,-0.0146,0.0073,0.0288,0.0997,0.2156,0.3511,0.4779,0.5733,0.6077,0.6361,0.7308,0.7724,0.7894,0.8327,0.8788,0.8955,0.9484,0.9831,1.0085,1.0787,1.1593,1.252,1.3191,1.3863,1.4401,1.4715,1.5118,1.5575,1.6073,1.6698,1.7313,1.7655,1.8159,1.8632,1.9174,1.9695,2.0258,2.0597,2.1006,2.1361,2.165,2.1888,2.1983,2.1935,2.2203,2.2586,2.2768,2.3038,2.3377,2.3739,2.4063,2.4369,2.4655,2.5045,2.5454,2.5754,2.6082,2.6382,2.6486,2.6657,2.6708,2.6725,2.6725,2.6858,2.6956,2.7053,2.7164,2.7307,2.7461,2.7701,2.7847,2.8007,2.8136,2.8219,2.8183,2.7987,2.7528,2.6813,-1.5517,-1.4299,-1.4076,-1.3346,-1.2478,-1.2331,-1.2191,-1.2191,-1.2044,-1.1896,-1.1749,-1.1452,-1.1156,-1.0864,-0.997,-0.9301,-0.8775,-0.847,-0.8246,-0.8021,-0.7326,-0.6707,-0.624,-0.5693,-0.4841,-0.4219,-0.4066,-0.4224,-0.4133,-0.3991,-0.3455,-0.2473,-0.1909,-0.1206,-0.0528,-0.0,0.0297,0.0805,0.1093,0.1742,0.2896,0.3768,0.4784,0.5554,0.6096,0.6467,0.7057,0.8013,0.8598,0.8816,0.9293,0.9753,1.024,1.0584,1.1101,1.1447,1.1896,1.2336,1.3519,1.4112,1.4469,1.4824,1.5118,1.5575,1.6255,1.6754,1.7324,1.7929,1.8104,1.8578,1.9267,1.9552,2.0003,2.0547,2.1055,2.1299,2.1602,2.2044,2.2278,2.2495,2.2495,2.2754,2.3113,2.3216,2.3363,2.3739,2.412,2.4492,2.4855,2.5146,2.5432,2.5844,2.6046,2.633,2.6486,2.6623,2.6691,2.6708,2.6758,2.6825,2.6956,2.7117,2.7369,2.7491,2.7582,2.7672,2.7818,2.7979,2.8126,2.8182,2.8237,2.8209,2.8191,2.7619,2.6975,-1.2875,-1.2191,-1.2451,-1.2258,-1.1749,-1.1675,-1.1601,-1.1452,-1.1007,-1.0708,-1.0409,-0.9895,-0.9599,-0.9372,-0.8846,-0.8551,-0.8102,-0.771,-0.7557,-0.7176,-0.6475,-0.5851,-0.5386,-0.4763,-0.3986,-0.3051,-0.266,-0.219,-0.2414,-0.2797,-0.2721,-0.1794,-0.1086,-0.0386,0.0538,0.099,0.1581,0.2219,0.2833,0.3613,0.4528,0.5123,0.5601,0.6309,0.6626,0.7245,0.7863,0.837,0.9129,0.9502,1.0202,1.0907,1.1489,1.2137,1.2917,1.3849,1.3584,1.3778,1.4285,1.4675,1.4951,1.5303,1.57,1.6301,1.7034,1.749,1.7941,1.8667,1.856,1.9028,1.9798,2.0016,2.0523,2.1019,2.1444,2.1746,2.1983,2.2278,2.2569,2.2828,2.3127,2.3392,2.361,2.3782,2.3925,2.4177,2.4533,2.4895,2.5285,2.5626,2.5901,2.6222,2.6347,2.6504,2.6538,2.6657,2.6674,2.6758,2.694,2.6989,2.7117,2.7276,2.7552,2.773,2.7864,2.795,2.8007,2.8081,2.8154,2.8182,2.8182,2.8209,2.8201,2.7795,2.7369,-1.0387,-1.0129,-1.0765,-1.1007,-1.0783,-1.0789,-1.0634,-1.049,-0.989,-0.9523,-0.915,-0.8627,-0.8255,-0.8025,-0.8016,-0.7714,-0.733,-0.6934,-0.678,-0.6318,-0.5622,-0.4844,-0.4219,-0.3597,-0.266,-0.1488,-0.1409,-0.1018,-0.094,-0.1251,-0.1563,-0.094,-0.0156,0.0703,0.1478,0.2144,0.2783,0.3558,0.4357,0.509,0.5722,0.6124,0.6606,0.7089,0.7593,0.8045,0.8728,0.9554,1.0102,1.0704,1.1785,1.2562,1.3088,1.3777,1.4388,1.5113,1.5106,1.5204,1.5235,1.5302,1.5459,1.5884,1.6446,1.7101,1.771,1.8061,1.8278,1.8999,1.9105,1.9408,1.9926,2.0422,2.0858,2.1361,2.1855,2.2184,2.2537,2.2749,2.3007,2.3319,2.3625,2.3925,2.4135,2.4385,2.4523,2.4645,2.4966,2.5301,2.5663,2.5994,2.6241,2.6434,2.6503,2.6572,2.6607,2.6674,2.6708,2.6825,2.7021,2.7213,2.7369,2.7522,2.773,2.7922,2.8081,2.8109,2.8109,2.8154,2.8182,2.8182,2.8209,2.8264,2.8139,2.7825,2.7903,-0.8775,-0.8322,-0.9145,-0.9074,-0.8475,-0.8327,-0.8399,-0.8627,-0.8399,-0.8322,-0.8246,-0.8021,-0.7791,-0.7633,-0.7173,-0.6784,-0.6318,-0.5693,-0.5538,-0.5229,-0.4533,-0.3752,-0.3051,-0.219,-0.1409,-0.0548,-0.0313,-0.0157,0.0078,0.0235,0.0235,0.0705,0.0939,0.1957,0.2876,0.344,0.4038,0.4809,0.5646,0.615,0.6546,0.697,0.7601,0.8209,0.8443,0.8801,0.9769,1.0979,1.188,1.2291,1.3282,1.4175,1.4544,1.5251,1.574,1.6039,1.6621,1.6651,1.6426,1.6168,1.606,1.6457,1.7099,1.7745,1.8061,1.853,1.881,1.9214,1.9548,1.9997,2.0374,2.0649,2.1399,2.2021,2.2538,2.2743,2.304,2.3228,2.3467,2.3799,2.4067,2.4276,2.4564,2.4751,2.4831,2.495,2.5246,2.5589,2.5885,2.6225,2.6417,2.6572,2.6572,2.6623,2.6674,2.6742,2.6825,2.6989,2.7149,2.7413,2.7624,2.7818,2.795,2.8025,2.8154,2.8182,2.8182,2.8182,2.8182,2.8182,2.8237,2.8353,2.8551,2.8505,2.871,-0.7787,-0.7403,-0.7702,-0.794,-0.8102,-0.8102,-0.8183,-0.8255,-0.825,-0.7868,-0.7326,-0.6784,-0.6395,-0.6163,-0.6163,-0.5857,-0.5467,-0.5002,-0.4608,-0.3984,-0.3285,-0.2426,-0.1721,-0.1096,-0.0392,0.0313,0.0548,0.1018,0.1567,0.1722,0.1955,0.2189,0.2266,0.3047,0.3956,0.4893,0.5473,0.5932,0.6641,0.719,0.7381,0.7995,0.8478,0.8614,0.9848,1.0178,1.0918,1.1766,1.2522,1.329,1.4143,1.4935,1.5781,1.6499,1.6988,1.71,1.7745,1.781,1.7709,1.7367,1.7353,1.7579,1.8069,1.8439,1.8518,1.8811,1.9486,1.992,2.0374,2.0879,2.1981,2.2266,2.2641,2.3039,2.3293,2.3431,2.3574,2.3837,2.3921,2.4227,2.439,2.4539,2.4806,2.5068,2.5146,2.5262,2.5589,2.5885,2.6137,2.6365,2.6521,2.6606,2.664,2.664,2.6691,2.6808,2.6973,2.7149,2.7307,2.7582,2.7818,2.7979,2.8126,2.8182,2.8253,2.8324,2.8324,2.8217,2.8237,2.8318,2.8432,2.8551,2.8779,2.9056,2.9275,-0.6587,-0.6304,-0.6298,-0.6897,-0.7706,-0.7559,-0.7551,-0.7702,-0.7391,-0.7049,-0.6391,-0.5774,-0.5309,-0.5079,-0.4766,-0.4608,-0.4064,-0.3439,-0.3049,-0.2425,-0.18,-0.1175,-0.0626,-0.0078,0.0548,0.1175,0.141,0.1881,0.2898,0.3366,0.3673,0.3822,0.3895,0.4598,0.5206,0.6298,0.6966,0.74,0.7841,0.8466,0.8808,0.9427,1.0001,0.9995,1.0987,1.1653,1.2207,1.2924,1.3399,1.4204,1.5005,1.5843,1.6629,1.7407,1.8218,1.8512,1.872,1.8784,1.8723,1.847,1.8344,1.8664,1.868,1.9062,1.9361,1.9594,2.0263,2.1094,2.1492,2.2089,2.3216,2.3065,2.3409,2.3752,2.4189,2.4341,2.44,2.4535,2.4575,2.4647,2.4764,2.4822,2.5146,2.5416,2.5567,2.5663,2.5848,2.6066,2.626,2.6435,2.6589,2.6623,2.6623,2.6623,2.6674,2.6875,2.7103,2.7324,2.7491,2.7748,2.7968,2.8144,2.8235,2.8217,2.8307,2.8495,2.8637,2.8762,2.8622,2.8476,2.8637,2.8815,2.8966,2.9209,2.9394,-0.5053,-0.5046,-0.4905,-0.5755,-0.6908,-0.625,-0.6023,-0.625,-0.5588,-0.5202,-0.522,-0.5071,-0.4841,-0.4453,-0.3515,-0.3047,-0.2503,-0.1566,-0.094,-0.0783,-0.0627,-0.0078,0.047,0.1019,0.1488,0.2038,0.243,0.3054,0.4068,0.4222,0.4916,0.5841,0.6143,0.63,0.6381,0.7472,0.844,0.9112,0.9314,1.0038,1.0603,1.1015,1.1533,1.1906,1.2438,1.3083,1.3474,1.4178,1.4703,1.5172,1.6442,1.7196,1.7588,1.8517,1.9104,1.9212,1.9683,1.9705,1.9219,1.8703,1.8971,1.9458,1.9425,1.979,2.0653,2.1038,2.1275,2.2105,2.2559,2.2735,2.3151,2.3519,2.417,2.4705,2.5125,2.5191,2.5243,2.5127,2.5113,2.4939,2.4973,2.5123,2.5492,2.5791,2.5974,2.6082,2.6189,2.6295,2.6435,2.6521,2.6623,2.6623,2.6623,2.6725,2.6759,2.6973,2.7198,2.7448,2.7659,2.7911,2.8159,2.8368,2.8378,2.8342,2.878,2.928,2.9351,2.9397,2.9089,2.8793,2.8942,2.9112,2.9246,2.9351,2.9453,-0.4382,-0.4112,-0.374,-0.4099,-0.5036,-0.5177,-0.5283,-0.5371,-0.4787,-0.4201,-0.3657,-0.3361,-0.274,-0.2115,-0.1956,-0.1487,-0.1175,-0.102,-0.0392,0.0157,0.0314,0.0785,0.1335,0.1882,0.2429,0.313,0.3522,0.4068,0.5079,0.5386,0.5844,0.6765,0.8075,0.8466,0.8156,0.8618,0.9311,0.9798,1.0444,1.123,1.1594,1.2244,1.2818,1.315,1.3823,1.4391,1.4603,1.5326,1.5806,1.6084,1.7283,1.7836,1.8187,1.8971,1.9486,1.966,2.0129,2.0462,2.034,2.0262,2.0111,2.0147,2.0335,2.0646,2.0978,2.1604,2.226,2.3086,2.3672,2.4109,2.5047,2.5473,2.5972,2.6213,2.6431,2.6129,2.6001,2.571,2.5519,2.5194,2.5123,2.5492,2.5901,2.6066,2.626,2.6365,2.6435,2.6504,2.6607,2.6555,2.6606,2.6606,2.664,2.6759,2.6892,2.7103,2.749,2.7822,2.7959,2.8099,2.8324,2.878,2.8941,2.9084,2.9619,3.0118,2.9987,2.9804,2.9375,2.9174,2.9191,2.9262,2.937,2.939,2.9411,-0.2895,-0.2456,-0.2136,-0.2233,-0.2805,-0.3268,-0.3503,-0.3452,-0.3117,-0.2665,-0.2085,-0.1794,-0.1334,-0.0785,-0.0392,-0.0313,-0.0078,0.0236,0.0549,0.1099,0.1412,0.196,0.2431,0.2899,0.3677,0.4222,0.4533,0.5076,0.616,0.6707,0.731,0.8219,0.9604,0.9981,0.99,1.0115,1.049,1.1063,1.1822,1.2345,1.2931,1.3571,1.4091,1.4355,1.489,1.5575,1.5652,1.6031,1.6551,1.6911,1.748,1.8041,1.8507,1.9236,1.9901,2.0259,2.0752,2.1055,2.1128,2.1679,2.1438,2.09,2.1389,2.1777,2.1943,2.2757,2.3576,2.4323,2.4774,2.5452,2.6226,2.6669,2.6923,2.7083,2.7096,2.6851,2.6533,2.6174,2.5879,2.5576,2.542,2.584,2.6222,2.6365,2.6504,2.6607,2.6708,2.6725,2.6725,2.6674,2.6623,2.6657,2.6708,2.686,2.7024,2.7261,2.7648,2.8159,2.8404,2.861,2.9137,2.9654,2.9726,2.9869,3.044,3.0791,3.051,3.0204,2.9842,2.9454,2.9208,2.9307,2.9451,2.947,2.9429,-0.0596,-0.0218,-0.0142,-0.028,-0.0489,-0.0976,-0.0838,-0.0563,-0.074,-0.0755,-0.0683,-0.0622,-0.0392,-0.0236,0.0314,0.0784,0.1019,0.157,0.204,0.2508,0.2899,0.3212,0.3679,0.4302,0.4844,0.5151,0.5616,0.623,0.7161,0.7927,0.868,0.9809,1.0875,1.1471,1.1687,1.1896,1.205,1.2485,1.2997,1.3593,1.4258,1.4982,1.5267,1.5492,1.5774,1.6249,1.6538,1.685,1.6883,1.7321,1.8181,1.843,1.8984,1.9888,2.0493,2.1071,2.1678,2.175,2.1825,2.2551,2.2774,2.2314,2.2508,2.3193,2.3733,2.4112,2.4734,2.5369,2.5849,2.6226,2.6678,2.6953,2.721,2.739,2.7545,2.7267,2.696,2.66,2.6293,2.599,2.5802,2.604,2.6476,2.6689,2.6758,2.6674,2.6742,2.6911,2.686,2.6657,2.6657,2.6725,2.6826,2.6961,2.7242,2.7816,2.8426,2.9101,2.926,2.9512,3.0047,3.0422,3.0529,3.0761,3.1326,3.1374,3.0848,3.0559,3.0345,2.9953,2.9307,2.9286,2.9429,2.9448,2.9444,0.0,0.0363,0.0708,0.0624,0.0272,0.0408,0.0275,-0.007,-0.0291,-0.0149,0.0455,0.0466,0.0625,0.1179,0.1415,0.1881,0.2272,0.2585,0.3054,0.3522,0.3992,0.4146,0.4533,0.5076,0.5699,0.6314,0.685,0.7456,0.8756,0.9442,1.0559,1.1903,1.2352,1.3011,1.3593,1.4019,1.3875,1.3875,1.4314,1.4832,1.5275,1.585,1.6193,1.6471,1.6486,1.6917,1.7182,1.7774,1.7925,1.8338,1.9433,1.9987,2.0138,2.0579,2.1019,2.1753,2.2347,2.276,2.2792,2.3369,2.3722,2.3741,2.4103,2.4383,2.4854,2.5119,2.5646,2.6176,2.6481,2.6745,2.7144,2.7414,2.763,2.7765,2.7875,2.7705,2.7415,2.7225,2.693,2.6969,2.6755,2.6784,2.7171,2.6992,2.6994,2.6809,2.6843,2.7131,2.713,2.696,2.708,2.7216,2.7436,2.7742,2.8313,2.8907,2.9457,2.9988,3.0149,3.0315,3.0654,3.0975,3.1242,3.1594,3.2031,3.1655,3.0916,3.0821,3.1034,2.9963,2.9333,2.9363,2.9407,2.9574,2.9834,0.0872,0.1273,0.1476,0.1379,0.1146,0.121,0.1087,0.0763,0.0574,0.081,0.1196,0.1224,0.1463,0.1753,0.198,0.2446,0.3161,0.339,0.3789,0.4377,0.4924,0.5157,0.5386,0.5928,0.67,0.7395,0.8003,0.8609,0.997,1.1236,1.2352,1.3084,1.36,1.4258,1.4768,1.5108,1.5384,1.5455,1.5675,1.6053,1.6333,1.6682,1.7097,1.7235,1.7226,1.7628,1.7901,1.87,1.89,1.9166,2.0183,2.0453,2.07,2.1071,2.1753,2.2482,2.3088,2.3446,2.3526,2.4092,2.4363,2.458,2.5104,2.5245,2.5398,2.5646,2.6176,2.664,2.6797,2.7056,2.753,2.7944,2.8122,2.8284,2.8217,2.8122,2.8,2.7912,2.7923,2.804,2.7992,2.7948,2.788,2.7582,2.75,2.7668,2.7822,2.7975,2.7874,2.7603,2.786,2.8203,2.8442,2.8749,2.9356,2.9871,3.034,3.0742,3.0945,3.1118,3.135,3.1666,3.2041,3.2335,3.2678,3.2133,3.1508,3.1699,3.1716,3.0632,3.0039,3.0364,3.0429,3.0206,3.0522,0.1803,0.217,0.2146,0.2063,0.1955,0.1883,0.1955,0.2035,0.192,0.1818,0.1826,0.1942,0.2091,0.2291,0.2579,0.3131,0.3772,0.4176,0.4688,0.5229,0.6005,0.6391,0.6777,0.7322,0.808,0.8618,0.9226,1.004,1.0795,1.2057,1.323,1.3818,1.4617,1.5204,1.5488,1.6016,1.629,1.6533,1.6866,1.726,1.7254,1.7638,1.8046,1.7774,1.8172,1.8767,1.8834,1.91,1.9299,1.9704,2.0161,2.0484,2.1175,2.1928,2.2665,2.3207,2.3813,2.406,2.4234,2.4593,2.4892,2.4991,2.5104,2.5632,2.6014,2.5974,2.639,2.7071,2.7327,2.7545,2.7974,2.8171,2.8332,2.8477,2.8498,2.8602,2.8722,2.8828,2.9141,2.9115,2.886,2.8833,2.8665,2.8404,2.8087,2.8491,2.8648,2.8702,2.8895,2.8522,2.8663,2.9145,2.9505,2.9812,3.0182,3.0684,3.1093,3.1449,3.164,3.192,3.2135,3.2487,3.2858,3.2996,3.3039,3.2748,3.2383,3.2441,3.2256,3.1565,3.1228,3.163,3.1563,3.121,3.1299,0.2083,0.2427,0.2802,0.284,0.2822,0.3155,0.3326,0.3526,0.3365,0.3037,0.2699,0.3116,0.3291,0.3258,0.3397,0.4024,0.4924,0.5078,0.5806,0.6412,0.7138,0.7584,0.8219,0.8737,0.9513,1.0276,1.0944,1.1601,1.2418,1.3375,1.4178,1.4681,1.5338,1.585,1.6149,1.666,1.7199,1.7332,1.8095,1.8076,1.7725,1.791,1.8104,1.8375,1.89,1.9243,1.9441,1.9759,1.9901,2.0096,2.1164,2.1854,2.247,2.3207,2.3695,2.3943,2.4408,2.465,2.4821,2.5005,2.5174,2.555,2.5811,2.6336,2.6549,2.639,2.6654,2.7393,2.786,2.8039,2.8299,2.8396,2.8525,2.87,2.8904,2.9159,2.9399,2.9863,3.0266,3.0062,2.9733,2.9587,2.9437,2.9185,2.8891,2.8814,2.8926,2.9206,2.9896,2.9916,2.9661,3.0076,3.0606,3.0961,3.1246,3.1483,3.1845,3.2139,3.2349,3.2616,3.288,3.2975,3.3068,3.3232,3.3299,3.3075,3.2957,3.2859,3.2562,3.221,3.2164,3.2432,3.2664,3.2441,3.2511,0.2879,0.309,0.3381,0.3424,0.3424,0.3692,0.3924,0.4172,0.4248,0.4112,0.3854,0.3872,0.3909,0.4012,0.4211,0.4776,0.5741,0.596,0.6614,0.743,0.793,0.8487,0.918,0.9814,1.0358,1.1193,1.2325,1.3215,1.389,1.4537,1.5188,1.548,1.6061,1.6421,1.6657,1.7399,1.7925,1.7949,1.9015,1.8934,1.8385,1.8844,1.9044,1.9375,1.9639,1.9901,2.0085,2.0473,2.0974,2.1215,2.2089,2.2834,2.3386,2.3872,2.4247,2.4478,2.4778,2.5061,2.523,2.5397,2.5495,2.5934,2.6204,2.6616,2.6916,2.6811,2.7122,2.7745,2.768,2.7845,2.8332,2.8525,2.8763,2.8982,2.9409,2.9772,3.0152,3.0606,3.079,3.0746,3.051,3.0365,3.0264,3.0112,2.9889,3.0027,2.9993,3.008,3.0707,3.1079,3.0907,3.0924,3.1436,3.1862,3.2133,3.2339,3.2549,3.2813,3.2916,3.2898,3.293,3.3068,3.325,3.3379,3.3514,3.3597,3.3467,3.3358,3.343,3.3263,3.3175,3.3185,3.3394,3.3659,3.3877,0.3835,0.3894,0.3959,0.4025,0.3956,0.409,0.4292,0.4625,0.4821,0.515,0.5369,0.454,0.4233,0.4384,0.4755,0.5386,0.6028,0.6545,0.7367,0.8024,0.8389,0.9202,0.9759,1.0234,1.134,1.2357,1.3353,1.4091,1.4752,1.533,1.5842,1.6272,1.6551,1.676,1.7176,1.7714,1.8232,1.8724,1.9333,1.9547,1.9878,2.0313,2.0118,2.0183,2.0495,2.0688,2.0921,2.1353,2.2101,2.247,2.2882,2.3551,2.406,2.4421,2.4694,2.4935,2.5118,2.5384,2.566,2.5825,2.6028,2.6336,2.651,2.6774,2.7122,2.7429,2.7745,2.7845,2.773,2.7879,2.8365,2.8763,2.8982,2.9335,2.981,3.0326,3.0757,3.1151,3.1151,3.1207,3.1095,3.0965,3.0885,3.0764,3.0845,3.0998,3.1196,3.1411,3.1568,3.1723,3.1725,3.1791,3.2148,3.2542,3.2813,3.283,3.2916,3.2916,3.2916,3.2916,3.2993,3.3208,3.3368,3.3455,3.3597,3.3865,3.3968,3.3883,3.3987,3.4104,3.3844,3.3762,3.4311,3.4643,3.518,0.4231,0.4278,0.4821,0.5024,0.4891,0.5289,0.5686,0.5951,0.5756,0.6083,0.6416,0.5969,0.5505,0.555,0.5815,0.6293,0.6874,0.7319,0.7946,0.8579,0.9053,0.9962,1.0858,1.1505,1.3064,1.3939,1.4394,1.4689,1.533,1.5842,1.6132,1.6272,1.6691,1.7185,1.7823,1.8252,1.8713,1.9287,1.9929,2.0259,2.0194,2.0366,2.0161,2.0537,2.1227,2.1542,2.1978,2.247,2.2786,2.3148,2.3564,2.4163,2.4523,2.4835,2.5104,2.5384,2.5508,2.5825,2.6082,2.6297,2.6534,2.6916,2.7137,2.7378,2.7695,2.791,2.8171,2.822,2.822,2.8301,2.8653,2.8982,2.9259,2.9694,3.0156,3.0593,3.1072,3.1151,3.119,3.1151,3.1095,3.1038,3.0998,3.0918,3.0918,3.1095,3.1235,3.1449,3.1858,3.2144,3.2422,3.259,3.2737,3.282,3.2898,3.2848,3.2916,3.2916,3.2916,3.293,3.3086,3.3386,3.353,3.3569,3.387,3.421,3.4284,3.4519,3.4525,3.4569,3.4271,3.4296,3.4987,3.5595,3.6095]}]]